[[{"header":{"parameterUnit":"m.s-1","parameterCategory":1,"la1":30.6,"la2":28.766,"lo1":-90.7593,"lo2":-88.6598,"dy":0.0162,"dx":0.0183,"nx":116,"ny":114,"refTime":"2023-11-04T18:00:00:Z","depth":0,"parameterNumber":2,"parameterNumberName":"U-component_of_WINDS"},"data":[0.0,0.0,0.0,0.0,0.0,0.0,0.0,0.0,0.0,0.0,0.0,0.0,0.0,0.0,0.0,0.0,0.0,0.0,0.0,0.0,0.0,0.0,0.0,0.0,0.0,0.0,0.0,0.0,0.0,0.0,0.0,0.0,0.0,0.0,0.0,0.0,0.0,0.0,0.0,0.0,0.0,0.0,0.0,0.0,0.0,0.0,0.0,0.0,0.0,0.0,0.0,0.0,0.0,0.0,0.0,0.0,0.0,0.0,0.0,0.0,0.0,0.0,0.0,0.0,0.0,0.0,0.0,0.0,0.0,0.0,0.0,0.0,0.0,0.0,0.0,0.0,0.0,0.0,0.0,0.0,0.0,0.0,0.0,0.0,0.0,0.0,0.0,0.0,0.0,0.0,0.0,0.0,0.0,0.0,0.0,0.0,0.0,0.0,0.0,0.0,0.0,0.0,0.0,0.0,0.0,0.0,0.0,0.0,0.0,0.0,0.0,0.0,0.0,0.0,0.0,0.0,0.0,0.0,0.0,0.0,0.0,0.0,0.0,0.0,0.0,0.0,0.0,0.0,0.0,0.0,0.0,0.0,0.0,0.0,0.0,0.0,0.0,0.0,0.0,0.0,0.0,0.0,0.0,0.0,0.0,0.0,0.0,0.0,0.0,0.0,0.0,0.0,0.0,0.0,0.0,0.0,0.0,0.0,0.0,0.0,0.0,0.0,0.0,0.0,0.0,0.0,0.0,0.0,0.0,0.0,0.0,0.0,0.0,0.0,0.0,0.0,0.0,0.0,0.0,0.0,0.0,0.0,0.0,0.0,0.0,0.0,0.0,0.0,0.0,0.0,0.0,0.0,0.0,0.0,0.0,0.0,0.0,0.0,0.0,0.0,0.0,0.0,0.0,0.0,0.0,0.0,0.0,0.0,0.0,0.0,0.0,0.0,0.0,0.0,0.0,0.0,0.0,0.0,0.0,0.0,0.0,0.0,0.0,0.0,0.0,0.0,0.0,0.0,0.0,0.0,0.0,0.0,0.0,0.0,0.0,0.0,0.0,0.0,0.0,0.0,0.0,0.0,0.0,0.0,0.0,0.0,0.0,0.0,0.0,0.0,0.0,0.0,0.0,0.0,0.0,0.0,0.0,0.0,0.0,0.0,0.0,0.0,0.0,0.0,0.0,0.0,0.0,0.0,0.0,0.0,0.0,0.0,0.0,0.0,0.0,0.0,0.0,0.0,0.0,0.0,0.0,0.0,0.0,0.0,0.0,0.0,0.0,0.0,0.0,0.0,0.0,0.0,0.0,0.0,0.0,0.0,0.0,0.0,0.0,0.0,0.0,0.0,0.0,0.0,0.0,0.0,0.0,0.0,0.0,0.0,0.0,0.0,0.0,0.0,0.0,0.0,0.0,0.0,0.0,0.0,0.0,0.0,0.0,0.0,0.0,0.0,0.0,0.0,0.0,0.0,0.0,0.0,0.0,0.0,0.0,0.0,0.0,0.0,0.0,0.0,0.0,0.0,0.0,0.0,0.0,0.0,0.0,0.0,0.0,0.0,0.0,0.0,0.0,0.0,0.0,0.0,0.0,0.0,0.0,0.0,0.0,0.0,0.0,0.0,0.0,0.0,0.0,0.0,0.0,0.0,0.0,0.0,0.0,0.0,0.0,0.0,0.0,0.0,0.0,0.0,0.0,0.0,0.0,0.0,0.0,0.0,0.0,0.0,0.0,0.0,0.0,0.0,0.0,0.0,0.0,0.0,0.0,0.0,0.0,0.0,0.0,0.0,0.0,0.0,0.0,0.0,0.0,0.0,0.0,0.0,0.0,0.0,0.0,0.0,0.0,0.0,0.0,0.0,0.0,0.0,0.0,0.0,0.0,0.0,0.0,0.0,0.0,0.0,0.0,0.0,0.0,0.0,0.0,0.0,0.0,0.0,0.0,0.0,0.0,0.0,0.0,0.0,0.0,0.0,0.0,0.0,0.0,0.0,0.0,0.0,0.0,0.0,0.0,0.0,0.0,0.0,0.0,0.0,0.0,0.0,0.0,0.0,0.0,0.0,0.0,0.0,0.0,0.0,0.0,0.0,0.0,0.0,0.0,0.0,0.0,0.0,0.0,0.0,0.0,0.0,0.0,0.0,0.0,0.0,0.0,0.0,0.0,0.0,0.0,0.0,0.0,0.0,0.0,0.0,0.0,0.0,0.0,0.0,0.0,0.0,0.0,0.0,0.0,0.0,0.0,0.0,0.0,0.0,0.0,0.0,0.0,0.0,0.0,0.0,0.0,0.0,0.0,0.0,0.0,0.0,0.0,0.0,0.0,0.0,0.0,0.0,0.0,0.0,0.0,0.0,0.0,0.0,0.0,0.0,0.0,0.0,0.0,0.0,0.0,0.0,0.0,0.0,0.0,0.0,0.0,0.0,0.0,0.0,0.0,0.0,0.0,0.0,0.0,0.0,0.0,0.0,0.0,0.0,0.0,0.0,0.0,0.0,0.0,0.0,0.0,0.0,0.0,0.0,0.0,0.0,0.0,0.0,0.0,0.0,0.0,0.0,0.0,0.0,0.0,0.0,0.0,0.0,0.0,0.0,0.0,0.0,0.0,0.0,0.0,0.0,0.0,0.0,0.0,0.0,0.0,0.0,0.0,0.0,0.0,0.0,0.0,0.0,0.0,0.0,0.0,0.0,0.0,0.0,0.0,0.0,0.0,0.0,0.0,0.0,0.0,0.0,0.0,0.0,0.0,0.0,0.0,0.0,0.0,0.0,0.0,0.0,0.0,0.0,0.0,0.0,0.0,0.0,0.0,0.0,0.0,0.0,0.0,0.0,0.0,0.0,0.0,0.0,0.0,0.0,0.0,0.0,0.0,0.0,0.0,0.0,0.0,0.0,0.0,0.0,0.0,0.0,0.0,0.0,0.0,0.0,0.0,0.0,0.0,0.0,0.0,0.0,0.0,0.0,0.0,0.0,0.0,0.0,0.0,0.0,0.0,0.0,0.0,0.0,0.0,0.0,0.0,0.0,0.0,0.0,0.0,0.0,0.0,0.0,0.0,0.0,0.0,0.0,0.0,0.0,0.0,0.0,0.0,0.0,0.0,0.0,0.0,0.0,0.0,0.0,0.0,0.0,0.0,0.0,0.0,0.0,0.0,0.0,0.0,0.0,0.0,0.0,0.0,0.0,0.0,0.0,0.0,0.0,0.0,0.0,0.0,0.0,0.0,0.0,0.0,0.0,0.0,0.0,0.0,0.0,0.0,0.0,0.0,0.0,0.0,0.0,0.0,0.0,0.0,0.0,0.0,0.0,0.0,0.0,0.0,0.0,0.0,0.0,0.0,0.0,0.0,0.0,0.0,0.0,0.0,0.0,0.0,0.0,0.0,0.0,0.0,0.0,0.0,0.0,0.0,0.0,0.0,0.0,0.0,0.0,0.0,0.0,0.0,0.0,0.0,0.0,0.0,0.0,0.0,0.0,0.0,0.0,0.0,0.0,0.0,0.0,0.0,0.0,0.0,0.0,0.0,0.0,0.0,0.0,0.0,0.0,0.0,0.0,0.0,0.0,0.0,0.0,0.0,0.0,0.0,0.0,0.0,0.0,0.0,0.0,0.0,0.0,0.0,0.0,0.0,0.0,0.0,0.0,0.0,0.0,0.0,0.0,0.0,0.0,0.0,0.0,0.0,0.0,0.0,0.0,0.0,0.0,0.0,0.0,0.0,0.0,0.0,0.0,0.0,0.0,0.0,0.0,0.0,0.0,0.0,0.0,0.0,0.0,0.0,0.0,0.0,0.0,0.0,0.0,0.0,0.0,0.0,0.0,0.0,0.0,0.0,0.0,0.0,0.0,0.0,0.0,0.0,0.0,0.0,0.0,0.0,0.0,0.0,0.0,0.0,0.0,0.0,0.0,0.0,0.0,0.0,0.0,0.0,0.0,0.0,0.0,0.0,0.0,0.0,0.0,0.0,0.0,0.0,0.0,0.0,0.0,0.0,0.0,0.0,0.0,0.0,0.0,0.0,0.0,0.0,0.0,0.0,0.0,0.0,0.0,0.0,0.0,0.0,0.0,0.0,0.0,0.0,0.0,0.0,0.0,0.0,0.0,0.0,0.0,0.0,0.0,0.0,0.0,0.0,0.0,0.0,0.0,0.0,0.0,0.0,0.0,0.0,0.0,0.0,0.0,0.0,0.0,0.0,0.0,0.0,0.0,0.0,0.0,0.0,0.0,0.0,0.0,0.0,0.0,0.0,0.0,0.0,0.0,0.0,0.0,0.0,0.0,0.0,0.0,0.0,0.0,0.0,0.0,0.0,0.0,0.0,0.0,0.0,0.0,0.0,0.0,0.0,0.0,0.0,0.0,0.0,0.0,0.0,0.0,0.0,0.0,0.0,0.0,0.0,0.0,0.0,0.0,0.0,0.0,0.0,0.0,0.0,0.0,0.0,0.0,0.0,0.0,0.0,0.0,0.0,0.0,0.0,0.0,0.0,0.0,0.0,0.0,0.0,0.0,0.0,0.0,0.0,0.0,0.0,0.0,0.0,0.0,0.0,0.0,0.0,0.0,0.0,0.0,0.0,0.0,0.0,0.0,0.0,0.0,0.0,0.0,0.0,0.0,0.0,0.0,0.0,0.0,0.0,0.0,0.0,0.0,0.0,0.0,0.0,0.0,0.0,0.0,0.0,0.0,0.0,0.0,0.0,0.0,0.0,0.0,0.0,0.0,0.0,0.0,0.0,0.0,0.0,0.0,0.0,0.0,0.0,0.0,0.0,0.0,0.0,0.0,0.0,0.0,0.0,0.0,0.0,0.0,0.0,0.0,0.0,0.0,0.0,0.0,0.0,0.0,0.0,0.0,0.0,0.0,0.0,0.0,0.0,0.0,0.0,0.0,0.0,0.0,0.0,0.0,0.0,0.0,0.0,0.0,0.0,0.0,0.0,0.0,0.0,0.0,0.0,0.0,0.0,0.0,0.0,0.0,0.0,0.0,0.0,0.0,0.0,0.0,0.0,0.0,0.0,0.0,0.0,0.0,0.0,0.0,0.0,0.0,0.0,0.0,0.0,0.0,0.0,0.0,0.0,0.0,0.0,0.0,0.0,0.0,0.0,0.0,0.0,0.0,0.0,0.0,0.0,0.0,0.0,0.0,0.0,0.0,0.0,0.0,0.0,0.0,0.0,0.0,0.0,0.0,0.0,0.0,0.0,0.0,0.0,0.0,0.0,0.0,0.0,0.0,0.0,0.0,0.0,0.0,0.0,0.0,0.0,0.0,0.0,0.0,0.0,0.0,0.0,0.0,0.0,0.0,0.0,0.0,0.0,0.0,0.0,0.0,0.0,0.0,0.0,0.0,0.0,0.0,0.0,0.0,0.0,0.0,0.0,0.0,0.0,0.0,0.0,0.0,0.0,0.0,0.0,0.0,0.0,0.0,0.0,0.0,0.0,0.0,0.0,0.0,0.0,0.0,0.0,0.0,0.0,0.0,0.0,0.0,0.0,0.0,0.0,0.0,0.0,0.0,0.0,0.0,0.0,0.0,0.0,0.0,0.0,0.0,0.0,0.0,0.0,0.0,0.0,0.0,0.0,0.0,0.0,0.0,0.0,0.0,0.0,0.0,0.0,0.0,0.0,0.0,0.0,0.0,0.0,0.0,0.0,0.0,0.0,0.0,0.0,0.0,0.0,0.0,0.0,0.0,0.0,0.0,0.0,0.0,0.0,0.0,0.0,0.0,0.0,0.0,0.0,0.0,0.0,0.0,0.0,0.0,0.0,0.0,0.0,0.0,0.0,0.0,0.0,0.0,0.0,0.0,0.0,0.0,0.0,0.0,0.0,0.0,0.0,0.0,0.0,0.0,0.0,0.0,0.0,0.0,0.0,0.0,0.0,0.0,0.0,0.0,0.0,0.0,0.0,0.0,0.0,0.0,0.0,0.0,0.0,0.0,0.0,0.0,0.0,0.0,0.0,0.0,0.0,0.0,0.0,0.0,0.0,0.0,0.0,0.0,0.0,0.0,0.0,0.0,0.0,0.0,0.0,0.0,0.0,0.0,0.0,0.0,0.0,0.0,0.0,0.0,0.0,0.0,0.0,0.0,0.0,0.0,0.0,0.0,-2.4702,0.0,0.0,0.0,0.0,0.0,0.0,0.0,0.0,0.0,0.0,0.0,0.0,0.0,0.0,0.0,0.0,0.0,0.0,0.0,0.0,0.0,0.0,0.0,0.0,0.0,0.0,0.0,0.0,0.0,0.0,0.0,0.0,0.0,0.0,0.0,0.0,0.0,0.0,0.0,-2.2107,-2.3229,-2.4953,-2.5839,-2.5802,-2.5034,0.0,0.0,0.0,0.0,0.0,0.0,0.0,0.0,0.0,0.0,0.0,0.0,0.0,0.0,0.0,0.0,0.0,0.0,0.0,0.0,0.0,0.0,0.0,0.0,0.0,0.0,0.0,0.0,0.0,0.0,0.0,0.0,0.0,0.0,0.0,0.0,0.0,0.0,0.0,0.0,0.0,0.0,0.0,0.0,0.0,0.0,0.0,0.0,0.0,0.0,0.0,0.0,0.0,0.0,0.0,0.0,0.0,0.0,0.0,0.0,0.0,0.0,0.0,0.0,0.0,0.0,0.0,0.0,0.0,0.0,0.0,-2.531,0.0,0.0,0.0,0.0,0.0,0.0,0.0,0.0,0.0,0.0,0.0,0.0,0.0,0.0,0.0,0.0,0.0,0.0,0.0,0.0,0.0,0.0,0.0,0.0,-2.4778,-2.5028,-2.5196,-2.5292,0.0,0.0,0.0,0.0,0.0,0.0,0.0,-2.2731,-2.2481,-2.184,-2.2899,-2.4699,-2.7101,-2.6899,-2.6186,-2.5083,-2.5572,0.0,0.0,0.0,0.0,0.0,0.0,0.0,0.0,0.0,0.0,0.0,0.0,0.0,0.0,0.0,0.0,0.0,0.0,0.0,0.0,0.0,0.0,0.0,0.0,0.0,0.0,0.0,0.0,0.0,0.0,0.0,0.0,0.0,0.0,0.0,0.0,0.0,0.0,0.0,0.0,0.0,0.0,0.0,0.0,0.0,0.0,0.0,0.0,0.0,0.0,0.0,0.0,0.0,0.0,0.0,0.0,0.0,0.0,0.0,0.0,0.0,0.0,0.0,-3.198,-3.1973,-3.1041,-3.0809,-3.0442,-2.9881,-2.8576,-2.7478,-2.649,0.0,0.0,0.0,0.0,0.0,0.0,0.0,0.0,0.0,0.0,0.0,0.0,0.0,0.0,0.0,0.0,0.0,0.0,0.0,0.0,0.0,0.0,-2.4081,-2.4305,-2.4802,-2.4857,-2.4871,0.0,0.0,0.0,0.0,0.0,0.0,-2.154,-2.234,-2.2798,-2.2746,-2.4358,-2.609,-2.784,-2.7134,-2.7307,-2.8132,-2.6923,-2.7156,-2.8302,0.0,0.0,0.0,0.0,0.0,0.0,0.0,0.0,0.0,0.0,0.0,0.0,0.0,0.0,0.0,0.0,0.0,0.0,0.0,0.0,0.0,0.0,0.0,0.0,0.0,0.0,0.0,0.0,0.0,0.0,0.0,0.0,0.0,0.0,0.0,0.0,0.0,0.0,0.0,0.0,0.0,-2.6753,-2.6913,0.0,0.0,0.0,0.0,0.0,0.0,0.0,0.0,0.0,0.0,0.0,0.0,0.0,0.0,-3.1266,-3.2687,-3.304,-3.234,-3.4619,-3.523,-3.433,-3.3291,-3.3146,-3.3572,-3.1216,0.0,-2.7007,-2.6093,0.0,0.0,0.0,0.0,0.0,0.0,0.0,0.0,0.0,0.0,0.0,0.0,0.0,0.0,0.0,0.0,0.0,0.0,0.0,0.0,0.0,-2.428,-2.4876,-2.4688,-2.5945,-2.6283,-2.5203,-2.5401,0.0,0.0,0.0,-2.3212,-2.2539,-2.2642,-2.3206,-2.4293,-2.5538,-2.7017,-2.8648,-2.8174,-2.8756,-3.0111,-2.8471,-2.7797,-2.7898,-2.6812,0.0,0.0,0.0,0.0,0.0,0.0,0.0,0.0,0.0,0.0,0.0,0.0,0.0,0.0,0.0,0.0,0.0,0.0,0.0,0.0,0.0,0.0,0.0,0.0,0.0,0.0,0.0,0.0,0.0,0.0,0.0,0.0,0.0,0.0,0.0,0.0,0.0,0.0,0.0,-2.6626,-2.7224,-2.517,-2.6596,-2.6833,0.0,0.0,0.0,0.0,0.0,0.0,0.0,0.0,0.0,-3.2374,-3.3623,-3.4518,-3.4961,-3.5725,-3.5945,-3.5602,-3.6394,-3.6334,-3.5473,-3.4536,-3.4025,-3.3832,-3.2039,-3.0261,-2.8453,-2.7347,-2.6194,-2.5051,0.0,0.0,0.0,0.0,-2.4192,-2.4565,0.0,0.0,0.0,0.0,0.0,0.0,0.0,0.0,0.0,0.0,0.0,0.0,-2.2815,-2.4224,-2.5059,-2.4905,-2.6287,-2.6573,-2.5197,-2.5041,0.0,0.0,0.0,-2.2637,-2.2814,-2.2817,-2.3711,-2.5552,-2.614,-2.7451,-2.9347,-2.88,-2.9556,-3.124,-2.9584,-2.8721,-2.8418,-2.7365,-2.64,-2.5627,0.0,0.0,0.0,0.0,0.0,0.0,0.0,0.0,0.0,0.0,0.0,0.0,0.0,0.0,0.0,0.0,0.0,0.0,0.0,0.0,0.0,0.0,0.0,0.0,0.0,0.0,0.0,0.0,0.0,0.0,0.0,0.0,0.0,0.0,0.0,0.0,0.0,-2.7616,-2.8077,-2.4642,-2.7402,-2.8137,0.0,0.0,0.0,0.0,0.0,0.0,-3.1498,-3.2412,-3.356,-3.5011,-3.6394,-3.7378,-3.7976,-3.8003,-3.799,-3.8026,-3.7466,-3.6748,-3.5897,-3.5029,-3.4234,-3.3407,-3.2172,-3.1039,-2.9885,-2.8422,-2.7079,-2.5895,-2.5324,-2.4897,-2.4632,-2.523,-2.5288,-2.5146,0.0,0.0,0.0,0.0,0.0,0.0,0.0,0.0,0.0,0.0,0.0,-2.1633,-2.3178,-2.3457,-2.4096,-2.5525,-2.4701,-2.4184,-2.4355,-2.2726,-2.1672,-2.1492,-2.0866,-2.0675,-2.0937,-2.2581,-2.4275,-2.5981,-2.6012,-2.7312,-2.9729,-2.8519,-2.9147,-3.1224,-2.995,-3.0361,-3.1774,-2.755,-2.6658,-2.7779,-2.506,0.0,0.0,0.0,0.0,0.0,0.0,0.0,0.0,0.0,0.0,0.0,0.0,0.0,0.0,0.0,0.0,0.0,0.0,0.0,0.0,0.0,0.0,0.0,0.0,0.0,0.0,0.0,0.0,0.0,0.0,0.0,0.0,0.0,0.0,0.0,0.0,0.0,0.0,-2.7918,-3.1168,0.0,0.0,0.0,0.0,-3.03,-3.1272,-3.2293,-3.3236,-3.4766,-3.612,-3.729,-3.8556,-3.9261,-3.9297,-3.8605,-3.8286,-3.8251,-3.7527,-3.6767,-3.5952,-3.4784,-3.3843,-3.3044,-3.1754,-3.1196,-3.0959,-2.8721,-2.6962,-2.5557,-2.4825,-2.455,-2.4448,-2.4052,-2.393,-2.4045,0.0,0.0,0.0,0.0,0.0,0.0,0.0,0.0,-1.9255,-1.9552,-2.0531,-2.169,-2.2995,-2.4365,-2.5222,-2.5288,-2.584,-2.5515,-2.3961,-2.3051,-2.2461,-2.213,-2.1421,-2.1456,-2.239,-2.314,-2.4237,-2.5672,-2.55,-2.6163,-2.7513,-2.6958,-2.7253,-2.8211,-2.7289,-2.7639,-2.886,-2.7282,-2.61,-2.5218,-2.4289,-2.3769,0.0,0.0,0.0,0.0,0.0,0.0,0.0,0.0,0.0,0.0,0.0,0.0,0.0,0.0,0.0,0.0,0.0,0.0,0.0,0.0,0.0,0.0,0.0,0.0,0.0,0.0,0.0,0.0,0.0,0.0,0.0,0.0,0.0,0.0,0.0,0.0,0.0,-2.9996,-3.3222,0.0,0.0,-3.1177,-3.2188,-3.2985,-3.3871,-3.5138,-3.6931,-3.7848,-3.8764,-3.9673,-4.0502,-4.0919,-4.0919,-3.9371,-3.8573,-3.8538,-3.6942,-3.5773,-3.5015,-3.409,-3.3094,-3.1954,-3.1003,-3.0068,-2.9137,-2.8334,-2.7907,-2.7638,-2.6403,-2.5609,-2.5252,-2.5553,-2.5236,-2.4629,0.0,0.0,0.0,0.0,0.0,0.0,0.0,0.0,-1.8154,-1.8474,-1.9679,-2.0944,-2.2158,-2.3702,-2.4593,-2.4297,-2.4833,-2.4436,-2.2617,-2.1923,-2.1595,-2.1687,-2.162,-2.1893,-2.2482,-2.3087,-2.381,-2.4706,-2.4418,-2.4675,-2.5459,-2.5027,-2.5121,-2.5617,-2.4804,-2.484,-2.5499,-2.5172,-2.4713,-2.416,-2.3502,-2.3231,-2.3129,0.0,0.0,0.0,0.0,0.0,0.0,0.0,0.0,0.0,0.0,0.0,0.0,0.0,0.0,0.0,0.0,0.0,0.0,0.0,0.0,0.0,0.0,0.0,0.0,0.0,0.0,0.0,0.0,0.0,0.0,0.0,0.0,0.0,0.0,0.0,-3.3565,-3.1725,-3.497,-3.6024,-3.2618,-3.3681,-3.4967,-3.5926,-3.6705,-3.7787,-3.9276,-3.9689,-4.0133,-4.0614,-4.1013,-4.1218,-4.1218,-3.9363,-3.8436,-3.8401,-3.6503,-3.497,-3.3805,-3.3314,-3.2209,-3.0707,-3.0196,-2.9293,-2.8184,-2.7936,-2.7945,-2.7996,-2.7044,-2.6201,-2.5592,-2.6407,-2.5908,-2.4696,0.0,0.0,0.0,0.0,0.0,0.0,0.0,-1.5618,-1.6378,-1.6353,-1.7824,-1.9367,-2.0693,-2.1328,-2.1941,-2.2573,-2.1535,-2.0697,-2.0313,-1.9071,-1.878,-1.9837,-2.123,-2.1659,-2.0948,-2.2376,-2.3141,-2.3129,-2.2718,-2.2911,-2.3652,-2.2869,-2.2913,-2.3588,-2.2671,-2.2269,-2.2177,-2.1208,-2.2425,-2.485,-2.2791,-2.2616,-2.3453,0.0,0.0,0.0,0.0,0.0,0.0,0.0,0.0,0.0,0.0,0.0,0.0,0.0,0.0,0.0,0.0,0.0,0.0,0.0,0.0,0.0,0.0,0.0,0.0,0.0,0.0,0.0,0.0,0.0,0.0,0.0,0.0,0.0,-3.0056,-3.297,-3.4561,-3.3248,-3.6604,-3.7889,-3.4923,-3.7313,-3.9005,-3.9014,-3.9681,-4.0113,-4.0113,-4.0113,-4.0113,-4.0113,-4.0079,-4.0079,-4.0079,-3.8575,-3.7831,-3.7831,-3.6287,-3.4499,-3.2473,-3.2496,-3.1371,-2.9361,-2.9361,-2.899,-2.8265,-2.7582,-2.6846,-2.6281,-2.6514,-2.6067,-2.5376,-2.6339,-2.5617,-2.4053,0.0,0.0,0.0,0.0,0.0,0.0,0.0,-1.4473,-1.5647,-1.5278,-1.6942,-1.8487,-1.9354,-2.0415,-2.1126,-2.1291,-2.0329,-1.9806,-1.999,-1.8174,-1.782,-1.9485,-2.0643,-2.1392,-2.1631,-2.1616,-2.154,-2.1374,-2.1033,-2.0751,-2.0601,-2.0395,-1.9975,-1.945,-1.9179,-1.8942,-1.8663,-1.8398,-1.9265,-2.0855,-2.0968,-2.1118,-2.1383,0.0,0.0,0.0,0.0,0.0,0.0,0.0,0.0,0.0,0.0,0.0,0.0,0.0,0.0,0.0,0.0,0.0,0.0,0.0,0.0,0.0,0.0,0.0,0.0,0.0,0.0,0.0,0.0,0.0,0.0,0.0,0.0,-3.2092,-3.2738,-3.4843,-3.6582,-3.7228,-3.8798,-3.9236,-3.7834,-3.8967,-3.9547,-3.8963,-3.9664,-4.0113,-4.0113,-4.0113,-4.0113,-4.0113,-3.9605,-3.93,-3.93,-3.7318,-3.6306,-3.6306,-3.5319,-3.3787,-3.1796,-3.2292,-3.1112,-2.8772,-2.8772,-2.8061,-2.6936,-2.6726,-2.5978,-2.4938,-2.4913,-2.4723,-2.4614,-2.548,-2.4453,-2.2452,0.0,0.0,0.0,0.0,0.0,0.0,0.0,-1.2426,-1.3359,-1.3346,-1.5154,-1.6622,-1.7002,-1.8191,-1.8807,-1.8353,-1.7948,-1.7539,-1.7118,-1.6435,-1.6718,-1.8207,-1.9345,-2.0076,-2.0376,-2.0109,-1.9899,-1.9759,-1.9129,-1.8668,-1.8342,-1.819,-1.762,-1.674,-1.652,-1.615,-1.5721,-1.577,-1.6353,-1.7299,-1.8354,-1.9501,-2.0684,-2.1428,-2.188,-2.2149,-2.2463,-2.3126,-2.3733,-2.2756,0.0,0.0,0.0,0.0,0.0,0.0,0.0,0.0,0.0,0.0,0.0,0.0,0.0,0.0,0.0,0.0,0.0,0.0,0.0,0.0,0.0,0.0,0.0,0.0,-3.2307,-3.4207,-3.4975,-3.6313,-3.7624,-3.8839,-3.9068,-3.8966,-3.846,-3.8864,-3.8929,-3.8466,-3.8844,-3.9129,-3.9129,-3.9129,-3.9295,-3.9584,-3.8617,-3.8235,-3.858,-3.6398,-3.527,-3.5273,-3.4518,-3.3103,-3.1121,-3.1531,-3.0386,0.0,-2.785,-2.7103,-2.6039,-2.5781,-2.5024,0.0,0.0,0.0,0.0,0.0,-2.2881,-2.1341,0.0,0.0,0.0,0.0,0.0,0.0,0.0,-0.9898,-1.0349,-1.0836,-1.2657,-1.3949,-1.4019,-1.5107,-1.5532,-1.4785,-1.5032,-1.4609,-1.3231,-1.4418,-1.5541,-1.6399,-1.7543,-1.8074,-1.7992,-1.8108,-1.8105,-1.7917,-1.7003,-1.6493,-1.6345,-1.6044,-1.5536,-1.4874,-1.4406,-1.3814,-1.3217,-1.3317,-1.3724,-1.4415,-1.5523,-1.7776,-2.0465,-2.0446,-2.081,-2.1407,-2.1895,-2.2175,-2.2346,-2.266,0.0,0.0,0.0,0.0,0.0,0.0,0.0,0.0,0.0,0.0,0.0,0.0,0.0,0.0,0.0,0.0,0.0,0.0,0.0,0.0,0.0,0.0,0.0,0.0,-3.4371,-3.587,-3.6698,-3.7308,-3.7937,-3.8697,-3.8192,-3.7765,-3.768,-3.7755,-3.778,-3.7657,-3.7769,-3.7782,-3.7815,0.0,0.0,0.0,0.0,-3.6961,-3.7617,-3.5531,-3.4462,-3.4467,-3.3784,-3.243,-3.0505,-3.0571,-2.9508,-2.756,-2.6916,-2.6219,-2.5551,-2.4878,-2.4097,-2.3319,-2.3698,-2.3222,-2.2278,-2.1675,-2.1005,-2.0463,0.0,0.0,0.0,0.0,0.0,0.0,0.0,-0.8132,-0.8704,-0.8508,-0.9532,-1.0523,-1.1127,-1.1844,-1.2672,-1.3606,-1.3499,-1.3237,-1.281,-1.3853,-1.4554,-1.4756,-1.5508,-1.5972,-1.6133,-1.6153,-1.5574,-1.4411,-1.4399,-1.3954,-1.3104,-1.3322,-1.304,-1.2392,-1.2291,-1.1896,-1.1314,-1.1357,-1.2055,-1.3197,-1.419,-1.5868,-1.7874,-1.9038,-1.9549,-1.9861,-2.1465,-2.2672,-2.3519,-2.3143,-2.3393,-2.3545,-2.1872,-2.0785,0.0,0.0,0.0,0.0,0.0,0.0,0.0,0.0,0.0,0.0,0.0,0.0,0.0,0.0,0.0,0.0,0.0,0.0,0.0,-3.2834,-3.4541,-3.6053,-3.7406,-3.7144,-3.7138,-3.7943,-3.7908,-3.756,-3.689,-3.7433,-3.7557,-3.687,-3.7433,-3.7801,-3.7801,-3.7801,0.0,-3.7221,-3.6362,-3.5714,-3.5313,-3.3809,-3.3011,-3.299,0.0,0.0,-2.9807,-3.033,-2.952,-2.7555,-2.6882,-2.6201,-2.5568,-2.4881,-2.3334,-2.1442,-2.1507,-2.0676,-1.9372,-1.8969,-1.8898,-1.902,0.0,0.0,0.0,0.0,0.0,0.0,0.0,-0.5443,-0.5775,-0.5894,-0.7055,-0.8008,-0.8319,-0.9519,-1.0466,-1.0854,-1.0962,-1.1016,-1.0993,-1.1777,-1.2315,-1.2503,-1.3137,-1.3707,-1.4159,-1.3496,-1.2943,-1.2554,-1.1686,-1.1161,-1.0967,-1.0786,-1.0128,-0.9123,-0.9472,-0.9086,-0.8202,-0.8907,-0.9787,-1.0847,-1.1878,-1.3157,-1.4775,-1.773,-1.8953,-1.9308,-2.0523,-2.153,-2.2317,-2.2749,-2.2633,-2.2257,-2.1951,-2.0682,-1.9269,0.0,0.0,0.0,0.0,0.0,0.0,0.0,0.0,0.0,0.0,0.0,0.0,0.0,0.0,-2.7312,0.0,0.0,-3.2254,-3.4116,-3.5351,-3.6242,-3.6599,-3.6291,-3.6321,-3.7095,-3.6878,-3.6505,-3.6101,-3.6415,-3.6477,-3.6101,-3.6415,-3.6661,-3.6656,-3.6656,-3.6497,-3.6209,-3.514,-3.445,-3.4203,-3.2777,-3.2043,-3.2048,-3.1699,-3.0651,-2.8995,-2.902,-2.8145,-2.6467,-2.5792,-2.5163,-2.4513,-2.3265,-2.1833,-2.0342,-1.9809,-1.91,-1.8343,-1.8165,-1.8222,-1.8364,0.0,0.0,0.0,0.0,0.0,0.0,0.0,-0.2769,-0.2889,-0.3378,-0.4725,-0.5686,-0.5719,-0.7274,-0.827,-0.8179,-0.8535,-0.8746,-0.8731,-0.9092,-0.9408,-0.9663,-1.0172,-1.083,-1.1556,-1.0508,-1.0137,-1.0483,-0.892,-0.832,-0.8564,-0.8088,-0.7238,-0.6115,-0.6727,-0.6341,-0.5373,-0.6656,-0.7634,-0.8418,-0.9574,-1.073,-1.2147,-1.5805,-1.7651,-1.84,-1.9346,-1.9871,-2.0377,-2.1934,-2.151,-2.0537,-2.1612,-2.0514,-1.8666,-1.8167,-1.7681,0.0,0.0,0.0,0.0,0.0,0.0,0.0,0.0,0.0,-2.4489,-2.639,-2.7424,-2.878,-3.1491,-3.2667,-3.3728,-3.5268,-3.6106,-3.6318,-3.5617,-3.5519,-3.5737,-3.6325,-3.5859,-3.5519,-3.5519,-3.5519,-3.5519,-3.5519,-3.5519,-3.5519,-3.5519,-3.537,-3.5269,-3.5183,-3.3788,-3.3036,-3.3034,-3.1691,-3.1014,-3.1014,-3.0476,-2.9489,-2.8163,-2.7655,-2.6694,-2.5356,-2.4559,-2.3931,-2.3261,-2.1592,-2.042,-1.9642,-1.8522,-1.7896,-1.7635,-1.7748,-1.7786,-1.778,0.0,0.0,0.0,0.0,0.0,0.0,0.0,0.0,-0.1348,-0.1422,-0.2154,-0.293,-0.3559,-0.4303,-0.5469,-0.7179,-0.7485,-0.7313,-0.6675,-0.6243,-0.6015,-0.5978,-0.6057,-0.6571,-0.7524,-0.7399,-0.6934,-0.609,-0.6182,-0.5661,-0.4632,-0.4797,-0.4785,-0.4653,-0.4729,-0.4667,-0.4577,-0.5398,-0.6239,-0.7114,-0.827,-0.9719,-1.1278,-1.213,-1.3682,-1.5662,-1.8068,-1.8733,-1.881,-2.0989,-2.1019,-2.0213,-2.0628,-1.9694,-1.8311,-1.788,0.0,-1.5841,-1.7046,-1.7308,-1.7721,-1.9953,-2.0447,-2.1433,0.0,0.0,-2.6949,-2.9185,-3.0188,-3.1176,-3.2975,-3.4334,-3.526,-3.5471,-3.6072,-3.6247,-3.5579,-3.5519,-3.5519,-3.5612,-3.5549,-3.5519,-3.5519,-3.5519,-3.5519,-3.5519,-3.5519,-3.5519,-3.5519,-3.4925,-3.4358,-3.3757,-3.2238,-3.1221,-3.068,-2.975,-2.9255,-2.9286,-2.9205,-2.853,-2.7324,-2.727,-2.6575,-2.5329,-2.4171,-2.3317,-2.2605,-2.1327,-2.0149,-1.9073,-1.7888,-1.6783,-1.5935,-1.6479,-1.6646,-1.6595,0.0,0.0,0.0,0.0,0.0,0.0,0.0,0.0,0.0,0.0582,-0.0362,-0.1113,-0.1345,-0.2545,-0.3785,-0.4943,-0.5271,-0.5097,-0.4367,-0.4662,-0.4667,-0.4198,-0.4599,-0.5011,-0.544,-0.5019,-0.4812,-0.4828,-0.3679,-0.3067,-0.2928,-0.2182,-0.1595,-0.1213,-0.1656,-0.1835,-0.1901,-0.2625,-0.3943,-0.5626,-0.6086,-0.7683,-0.9807,-1.0279,-1.1441,-1.3097,-1.5333,-1.6067,0.0,-1.8455,-1.8566,-1.7964,-1.9186,-1.8194,-1.658,-1.6395,-1.5785,0.0,-1.6332,-1.7194,0.0,0.0,-2.1313,-2.2899,-2.591,-2.6976,-2.7854,-2.9848,-3.0864,-3.1884,-3.348,-3.3792,-3.401,0.0,-3.4855,-3.4735,-3.3947,-3.4292,-3.4305,-3.343,-3.3773,-3.4489,-3.5394,-3.5519,-3.5519,-3.5519,-3.4968,-3.461,-3.461,-3.3541,-3.2614,-3.1976,-3.0991,-3.0175,-2.9526,-2.9172,-2.9017,-2.9002,-2.8612,-2.7759,-2.6546,-2.6166,-2.5095,-2.3526,-2.2277,-2.1419,-2.0753,-1.9121,-1.8039,-1.734,-1.6476,-1.5705,-1.5107,-1.5354,-1.5444,-1.542,0.0,0.0,0.0,0.0,0.0,0.0,0.0,0.0,0.0,0.0,0.1054,0.0331,0.0262,-0.0931,-0.1921,-0.2488,-0.2751,-0.2578,-0.1839,-0.2491,-0.2556,-0.1824,-0.2282,-0.2646,-0.2837,-0.2317,-0.2272,-0.2735,-0.1135,-0.0397,-0.0479,0.0368,0.116,0.1866,0.1085,0.0736,0.0678,-0.0305,-0.1778,-0.3463,-0.4155,-0.5792,-0.7879,-0.871,-0.963,-1.0711,-1.2876,-1.3618,-1.3886,-1.5833,-1.5939,-1.5575,-1.7334,-1.6654,-1.5273,-1.5442,-1.5447,-1.5468,-1.5835,0.0,0.0,-2.0317,-2.1986,-2.3815,-2.6186,-2.7305,-2.833,-3.0231,-3.1066,-3.1929,-3.3346,-3.3203,0.0,-3.352,-3.3762,-3.3585,-3.272,-3.3077,-3.309,-3.224,-3.2369,-3.3062,-3.4443,-3.4744,-3.4794,-3.4739,-3.4041,-3.3602,-3.3602,-3.2289,-3.1274,-3.0825,-2.9855,-2.9121,-2.8652,-2.8427,-2.8298,-2.8298,-2.7424,-2.6427,-2.5344,-2.432,-2.306,-2.1574,-2.0493,-1.9742,-1.9174,-1.7644,-1.6711,-1.6154,-1.5527,-1.4926,-1.4422,-1.426,-1.4306,-1.4445,0.0,0.0,0.0,0.0,0.0,0.0,0.0,0.0,0.0,0.0,0.0,0.0,0.0,0.0817,0.0554,-0.0044,-0.0119,0.0199,0.0924,0.0962,0.125,0.2007,0.2007,0.1722,0.1133,0.1135,0.1242,0.1431,0.1494,0.2313,0.3786,0.299,0.3078,0.389,0.3018,0.2616,0.2496,0.0854,0.0033,-0.0366,-0.2828,-0.4375,-0.538,-0.6963,-0.7885,-0.8629,-1.1219,-1.1903,-1.1828,-1.3383,-1.3598,-1.347,-1.5013,-1.5174,0.0,-1.5519,-1.5907,-1.6093,0.0,0.0,-1.8422,-2.1026,-2.2283,-2.3694,-2.6611,-2.77,-2.868,-3.0727,-3.1203,-3.1525,-3.2446,-3.3127,-3.3344,-3.2759,-3.3207,-3.3398,-3.2716,-3.2173,-3.2171,-3.2973,-3.1864,-3.1371,0.0,-3.2807,-3.3043,-3.2707,-3.2664,-3.2629,-3.2629,-3.1488,-3.0825,-3.0798,-2.8845,-2.7762,-2.7736,-2.696,-2.6602,-2.6543,-2.5101,-2.4126,-2.3499,-2.1615,-2.0448,-1.993,-1.9396,-1.8902,-1.8464,-1.7835,-1.7024,-1.6126,-1.5446,-1.4641,-1.3745,-1.3166,-1.3334,-1.3815,0.0,0.0,0.0,0.0,0.0,0.0,0.0,0.0,0.0,0.0,0.0,0.0,0.0,0.0,0.0,0.0,0.2106,0.2531,0.3002,0.3038,0.2991,0.2934,0.2938,0.2841,0.2643,0.2279,0.2349,0.2867,0.359,0.42,0.475,0.5763,0.6251,0.6315,0.6432,0.5734,0.4408,0.3919,0.2336,0.0,-0.1416,-0.3266,-0.5178,-0.604,-0.7123,-0.8275,0.0,-0.9686,-1.0525,-1.1476,-1.1713,-1.167,-1.2193,-1.2246,-1.2246,-1.2761,-1.3067,-1.3506,-1.4918,0.0,-1.775,-2.086,-2.2448,-2.3844,-2.5866,-2.6677,-2.7341,-2.8382,-2.8021,-2.7885,-2.9228,-2.944,-2.9554,-2.9961,-3.1143,-3.1703,-3.0839,-3.0474,-2.9926,-2.8902,-2.8463,0.0,0.0,0.0,0.0,-3.1576,-3.1268,-3.1119,-3.1119,-2.914,-2.8019,-2.8019,-2.6008,-2.4921,-2.4921,-2.4625,-2.4505,-2.4505,-2.334,-2.2536,-2.2088,-2.1044,-2.0142,-1.9306,-1.8637,-1.79,-1.712,-1.6431,-1.5608,-1.4809,-1.48,-1.3834,-1.2429,-1.208,-1.1907,-1.187,0.0,0.0,0.0,0.0,0.0,0.0,0.0,0.0,0.0,0.0,0.0,0.0,0.0,0.0,0.0,0.0,0.0,0.4353,0.4702,0.477,0.4707,0.4498,0.4477,0.4525,0.4581,0.4257,0.4303,0.4786,0.5707,0.633,0.6666,0.7583,0.8099,0.8172,0.8028,0.7242,0.6038,0.5455,0.3799,0.141,-0.0161,-0.2091,-0.4153,-0.5047,-0.6165,0.0,-0.7279,-0.788,-0.883,-1.0049,-1.0432,-1.0483,-1.0712,-1.0995,-1.1242,-1.1517,-1.1889,-1.2668,-1.4557,-1.5708,-1.7088,-2.0129,-2.163,-2.2784,-2.4577,-2.523,-2.5579,-2.6168,-2.5457,-2.5058,-2.6045,-2.5884,-2.5961,-2.7039,-2.7971,-2.8602,-2.8633,-2.8087,-2.741,-2.6807,-2.6399,0.0,0.0,0.0,0.0,-2.8924,-2.934,-2.925,-2.8586,-2.6946,-2.5952,-2.5779,-2.43,-2.3526,-2.3526,-2.3526,-2.3164,-2.252,-2.173,-2.0924,-2.0166,-1.9357,-1.8564,-1.7769,-1.7165,-1.6277,-1.5226,-1.504,-1.4382,-1.3507,-1.3608,-1.2824,-1.1583,-1.1343,-1.0914,-1.0534,0.0,0.0,0.0,0.0,0.0,0.0,0.0,0.0,0.0,0.0,0.0,0.0,0.0,0.0,0.0,0.0,0.0,0.0,0.6173,0.6307,0.6483,0.6757,0.6767,0.6843,0.7048,0.7012,0.7096,0.725,0.7896,0.8626,0.9446,0.8679,0.8741,0.9461,0.8017,0.746,0.7492,0.5677,0.4559,0.3747,0.0975,-0.0972,-0.2366,-0.4013,-0.499,-0.5589,-0.6298,-0.6558,-0.6912,-0.8961,-0.9643,0.0,-1.0409,-1.1108,-1.1656,-1.1547,-1.2251,-1.333,-1.4574,-1.5432,-1.6543,-1.8896,-1.9849,-2.0702,-2.2706,-2.3281,-2.3518,-2.409,-2.3546,-2.2956,0.0,0.0,-2.2954,-2.4181,-2.4177,-2.4595,-2.6255,-2.5234,-2.4938,0.0,0.0,0.0,0.0,0.0,0.0,-2.5027,0.0,-2.7175,-2.5305,-2.5004,-2.4719,-2.4227,-2.3661,-2.3342,-2.3342,-2.3334,-2.2411,-2.0688,-2.0191,-1.924,-1.7847,-1.66,-1.5812,-1.5364,-1.5002,-1.4145,-1.307,-1.3825,-1.3449,-1.236,-1.2023,-1.1633,-1.1192,-1.0766,-1.0228,-0.978,0.0,0.0,0.0,0.0,0.0,0.0,0.0,0.0,0.0,0.0,0.0,0.0,0.0,0.0,0.0,0.0,0.0,0.0,0.8714,0.8771,0.8849,0.8918,0.8906,0.8947,0.8989,0.8584,0.8669,0.9259,0.9642,0.9923,1.0165,1.0784,1.1091,1.1103,1.1165,1.0392,0.901,0.8085,0.6213,0.3693,0.1701,-0.0324,-0.2312,-0.3275,-0.4428,-0.5511,-0.5728,-0.6145,0.0,0.0,0.0,0.0,0.0,-0.8398,-0.8637,-0.8699,-0.9991,-1.1738,-1.3199,-1.4643,-1.6174,-1.7813,-1.8997,-1.9619,-1.9126,-2.0472,-2.1485,-2.0411,-2.0178,-2.007,0.0,0.0,0.0,-2.2571,-2.4458,0.0,-2.6441,-2.5445,0.0,0.0,0.0,-2.3378,-2.3022,-2.4074,0.0,0.0,-2.4923,-2.5871,-2.5066,-2.4316,-2.3688,-2.3255,-2.2022,-2.1336,-2.1336,-2.0974,-2.0256,-1.9143,-1.8334,-1.7476,-1.6563,-1.5511,-1.4696,-1.4083,-1.3998,-1.3588,-1.3009,-1.3221,-1.2944,-1.2347,-1.1876,-1.1212,-1.0363,-0.8845,-0.8263,-0.8196,0.0,0.0,0.0,0.0,0.0,0.0,0.0,0.0,0.0,0.0,0.0,0.0,0.0,0.0,0.0,0.0,0.0,0.0,0.0,0.9994,1.0051,1.0165,1.0438,1.0589,1.0589,1.0285,1.032,1.0745,1.0947,1.1001,1.1027,1.166,1.1876,1.1744,1.1791,1.1095,0.984,0.8711,0.6667,0.0,0.0,0.0311,-0.176,-0.2174,-0.3058,-0.4051,-0.4051,0.0,0.0,0.0,0.0,-0.7386,-0.7441,-0.7672,-0.7925,-0.817,0.0,-1.079,-1.2338,-1.36,-1.4934,-1.664,-1.7489,-1.7704,-1.6991,-1.783,-1.834,-1.6941,-1.658,0.0,0.0,0.0,0.0,0.0,0.0,0.0,-2.4881,-2.4136,-2.3596,0.0,-2.3334,0.0,-2.2465,-2.3408,-2.3365,0.0,-2.3867,-2.4665,-2.3409,-2.2978,-2.2291,-2.1194,-2.0351,-1.9593,-1.8999,-1.8374,-1.7862,-1.7351,-1.667,-1.6105,-1.5669,-1.4459,-1.3665,-1.3283,0.0,-1.2477,-1.1965,-1.2336,-1.1905,-1.0981,-1.049,-0.9735,-0.8821,-0.752,-0.7128,-0.7155,0.0,0.0,0.0,0.0,0.0,0.0,0.0,0.0,0.0,0.0,0.0,0.0,0.0,0.0,0.0,0.0,0.0,0.0,0.0,0.0,1.1015,1.1307,1.1826,1.2092,1.2092,1.209,1.2092,1.2098,1.2153,1.2184,1.2165,1.2165,1.2141,1.2036,1.1466,1.0892,1.0252,0.85,0.6652,0.4729,0.2915,0.0927,-0.0955,0.0,-0.1567,0.0,0.0,0.0,0.0,0.0,-0.4567,-0.7145,-0.7264,-0.7681,-0.8233,-0.8558,-0.9261,-1.0264,-1.1802,-1.2626,-1.3525,-1.5476,-1.5831,-1.5685,-1.5548,-1.5533,-1.5193,-1.3884,0.0,-1.3437,-1.404,0.0,-1.6169,-1.8462,0.0,-2.0507,-2.2514,-2.2182,-2.2036,-2.2766,-2.2731,-2.2643,-2.2643,-2.2585,-2.2133,-2.1078,-2.2847,-2.3054,-2.0943,-2.1192,-2.0573,-1.8816,-1.8744,-1.8118,-1.6824,-1.6142,-1.5776,-1.5727,-1.5232,-1.4996,-1.4896,-1.3393,-1.2617,-1.2442,0.0,0.0,-1.046,-1.1062,-1.0514,-0.9253,-0.8667,-0.7995,-0.725,-0.6717,-0.6522,-0.6492,0.0,0.0,0.0,0.0,0.0,0.0,0.0,0.0,0.0,0.0,1.1807,0.0,0.0,0.0,0.0,0.0,0.0,0.0,0.0,0.0,0.0,1.4007,1.4118,1.4186,1.4186,1.4181,1.4183,1.419,1.4183,1.4206,1.4192,1.4192,1.3935,1.346,1.3321,1.2325,1.0614,0.9127,0.7295,0.5198,0.3053,0.1248,-0.0248,-0.0862,0.0,0.0,0.0,0.0,0.0,0.0,-0.3778,-0.5189,-0.5211,-0.6053,-0.7062,-0.7354,-0.8345,-0.9768,-1.1369,-1.2535,-1.362,-1.4857,-1.5459,-1.5235,-1.3344,-1.4238,0.0,0.0,0.0,-1.3366,-1.2827,-1.3986,0.0,-1.626,0.0,0.0,0.0,0.0,-2.1101,0.0,0.0,0.0,0.0,0.0,0.0,0.0,0.0,0.0,-1.8922,-1.8743,-1.8319,-1.7634,-1.7395,-1.6963,-1.6327,-1.5972,-1.5607,-1.529,-1.4366,-1.3854,-1.358,-1.2261,-1.1154,-1.0238,-0.9883,0.0,-0.946,-0.8892,-0.8903,-0.9212,-0.811,-0.7603,-0.7358,-0.6455,-0.6035,-0.5868,0.0,0.0,0.0,0.0,0.0,0.0,0.0,0.0,0.0,0.0,1.4576,1.326,0.0,0.0,0.0,0.0,0.0,0.0,0.0,0.0,0.0,0.0,0.0,0.0,1.5176,1.5177,1.5177,1.5176,0.0,1.4696,1.4698,1.4698,1.4376,1.3768,1.344,1.2361,1.0686,0.8877,0.7114,0.5298,0.3076,0.1534,0.0,0.0,0.0,0.0,0.0,0.0,0.0,0.0,-0.2128,-0.3362,-0.4462,-0.5368,-0.617,-0.6889,-0.7705,-0.8768,-1.0276,-1.1171,-1.2005,-1.3592,-1.3899,-1.3369,-1.1703,0.0,0.0,0.0,0.0,-1.1783,-1.1807,0.0,0.0,0.0,0.0,0.0,0.0,0.0,0.0,0.0,0.0,0.0,0.0,0.0,0.0,0.0,0.0,0.0,-1.8143,-1.7295,-1.6654,-1.6267,-1.5406,-1.4799,-1.4417,-1.4126,-1.3616,-1.2896,-1.2398,-1.1814,-1.11,-1.0312,-0.9605,-0.9019,-0.8755,0.0,-0.8581,-0.8161,-0.7989,-0.7872,-0.7179,-0.6666,-0.6139,-0.5135,-0.47,-0.4539,0.0,0.0,0.0,0.0,0.0,0.0,0.0,1.6007,1.6495,1.7594,1.7289,1.6821,1.6447,1.5494,0.0,0.0,0.0,0.0,0.0,0.0,0.0,0.0,0.0,0.0,0.0,0.0,0.0,1.5808,1.5334,0.0,0.0,0.0,0.0,0.0,1.3086,1.2067,1.0645,0.8514,0.6892,0.0,0.0,0.2094,0.0,0.0,0.0,0.0,0.0,0.0,0.0,0.0,-0.0629,-0.1746,-0.3616,-0.4699,-0.5508,-0.6517,-0.713,-0.7898,-0.9374,-0.9909,-1.0439,-1.2191,-1.2212,-1.1466,-1.0276,-1.025,0.0,0.0,-0.9035,-1.0117,-1.0746,0.0,0.0,0.0,0.0,0.0,0.0,0.0,0.0,0.0,0.0,0.0,0.0,0.0,0.0,0.0,0.0,0.0,-1.6729,-1.5398,-1.4503,-1.4277,-1.312,-1.2373,-1.212,-1.1802,-1.1255,-1.0441,-1.0441,-0.9948,-0.9021,-0.8689,-0.8393,-0.8112,-0.7828,0.0,0.0,-0.7298,-0.6841,-0.6343,-0.5813,-0.5194,-0.4484,-0.3694,-0.3396,-0.3246,0.0,0.0,0.0,0.0,0.0,0.0,0.0,1.764,1.8336,1.9432,1.9083,1.8933,1.9357,1.7021,0.0,0.0,0.0,0.0,0.0,0.0,0.0,0.0,0.0,0.0,0.0,0.0,0.0,0.0,0.0,0.0,0.0,0.0,0.0,0.0,0.0,1.2067,1.0645,0.8514,0.0,0.0,0.0,0.0,0.0,0.0,0.0,0.0,0.0,0.0,0.0,0.0,0.0,-0.038,-0.1537,-0.3378,-0.5218,-0.5612,0.0,0.0,-0.9376,-0.9892,-1.025,-1.1191,-1.1111,-1.0398,-0.9088,0.0,0.0,-0.7583,-0.8448,-0.9411,-0.9474,-1.023,0.0,0.0,0.0,-1.3928,0.0,0.0,0.0,0.0,0.0,0.0,0.0,0.0,0.0,0.0,0.0,0.0,0.0,-1.1735,-1.1017,-1.0856,-1.0417,-1.0117,-0.9977,-0.9708,-0.9452,-0.9244,-0.9244,-0.9119,-0.881,-0.8559,-0.7972,-0.7205,-0.6937,0.0,0.0,-0.5034,-0.4803,-0.5259,-0.3661,-0.2998,-0.2898,-0.2825,-0.2716,-0.2592,0.0,0.0,0.0,0.0,0.0,0.0,0.0,1.7581,1.8208,1.9635,1.9347,1.934,2.0236,1.8707,1.7339,0.0,0.0,0.0,0.0,0.0,0.0,0.0,0.0,0.0,0.0,0.0,0.0,0.0,0.0,0.0,0.0,0.0,0.0,0.0,0.0,0.0,1.0003,0.0,0.0,0.0,0.0,0.0,0.0,0.0,0.0,0.0,0.0,0.0,0.0,0.0,0.0,0.0,-0.0362,-0.1729,0.0,0.0,-0.5938,-0.6748,-0.8188,-0.8689,-0.8985,-0.9888,-0.9641,-0.8949,-0.8134,0.0,-0.8048,-0.6875,-0.7633,-0.8528,-0.8527,-0.8815,-0.9098,0.0,0.0,0.0,0.0,0.0,0.0,0.0,0.0,0.0,0.0,0.0,0.0,0.0,0.0,0.0,0.0,-1.0361,-1.0344,-1.0121,-0.9908,-0.9684,-0.9471,-0.9342,-0.8949,-0.8308,-0.8217,-0.7716,-0.6991,-0.6784,-0.6483,-0.6045,-0.5365,0.0,0.0,-0.3979,-0.3742,-0.4406,-0.3176,-0.2709,-0.2643,-0.2075,-0.1829,-0.171,0.0,0.0,0.0,0.0,0.0,0.0,1.7516,1.7652,1.8204,1.9813,1.9449,1.9429,2.0584,1.9685,1.8702,1.7936,0.0,0.0,0.0,0.0,0.0,0.0,0.0,0.0,0.0,0.0,0.0,0.0,0.0,0.0,0.0,0.0,1.4604,0.0,0.0,0.0,0.0,0.0,0.0,0.0,0.0,0.0,0.0,0.0,0.0,0.0,0.0,0.0,0.0,0.0,0.0,0.0,0.0,0.0,0.0,0.0,-0.4969,-0.5895,-0.6862,-0.7482,-0.8021,-0.8598,-0.8221,-0.7582,0.0,0.0,-0.7075,-0.608,-0.6807,-0.7607,-0.7613,-0.7829,-0.8011,-0.7989,-0.7989,-0.8564,0.0,0.0,0.0,0.0,0.0,0.0,0.0,0.0,0.0,0.0,0.0,0.0,0.0,-0.8739,-0.8814,-0.8882,-0.8785,-0.8629,-0.8428,-0.8428,-0.7859,-0.6813,-0.6693,-0.6018,-0.4873,-0.4786,-0.4847,-0.4921,0.0,0.0,0.0,-0.3043,-0.2643,-0.3113,-0.2245,-0.191,-0.181,-0.1175,-0.0906,-0.0837,0.0,0.0,0.0,0.0,0.0,0.0,0.0,1.8194,1.8768,2.04,1.9655,1.9433,2.0578,1.9683,1.8982,1.8978,0.0,0.0,0.0,0.0,0.0,0.0,0.0,0.0,0.0,0.0,0.0,0.0,0.0,0.0,0.0,0.0,0.0,0.0,0.0,0.0,0.0,0.0,0.0,0.0,0.0,0.0,0.0,0.0,0.0,0.0,0.0,0.0,0.0,0.0,0.0,0.0,0.0,0.0,-0.0259,-0.1464,-0.354,-0.5444,-0.5565,-0.6593,-0.7596,-0.7439,-0.6979,-0.6448,0.0,0.0,-0.5353,-0.516,-0.5977,-0.6713,-0.6711,-0.7423,-0.7997,-0.7999,-0.7989,-0.8184,0.0,0.0,0.0,0.0,0.0,0.0,0.0,0.0,0.0,0.0,0.0,0.0,0.0,-0.6333,-0.5428,-0.6511,-0.6551,-0.6482,-0.6338,-0.6338,-0.5714,-0.4517,-0.4517,-0.3885,-0.2722,-0.2722,-0.3196,0.0,0.0,0.0,0.0,-0.2075,-0.1307,-0.124,-0.037,-0.0034,-0.0034,-0.0034,0.0,0.0,0.0,0.0,0.0,0.0,0.0,0.0,0.0,1.7902,1.8338,1.8887,1.8666,1.8603,1.8933,1.8983,1.8857,1.8503,0.0,0.0,0.0,0.0,0.0,0.0,0.0,0.0,0.0,0.0,0.0,0.0,0.0,0.0,0.0,0.0,0.0,0.0,0.0,0.0,0.0,0.0,0.0,0.0,0.0,0.0,0.0,0.0,0.0,0.0,0.0,0.0,0.0,0.0,0.0,0.0,0.0,0.0,0.0,-0.047,-0.1769,-0.325,-0.4133,-0.5199,-0.6034,-0.586,-0.5867,-0.5679,-0.495,-0.4932,-0.4884,-0.4322,-0.5062,-0.5804,-0.5815,-0.6046,-0.6218,-0.621,-0.6313,-0.6702,0.0,0.0,0.0,0.0,0.0,0.0,0.0,0.0,0.0,0.0,0.0,0.0,0.0,-0.4169,-0.4218,-0.5382,-0.4619,-0.4169,-0.4098,-0.4098,-0.393,-0.355,-0.3457,-0.3216,-0.2835,-0.2746,0.0,0.0,0.0,0.0,0.0,-0.115,-0.0747,-0.1205,-0.0339,0.0,0.0069,0.0677,0.0884,0.0964,0.0,0.0,0.0,0.0,0.0,0.0,0.0,1.7903,1.8198,1.8435,1.8125,1.8004,1.8453,1.8607,1.8732,1.8807,0.0,0.0,0.0,0.0,0.0,0.0,0.0,0.0,0.0,0.0,0.0,0.0,0.0,0.0,0.0,0.0,0.0,0.0,0.0,0.0,0.0,0.0,0.0,0.0,0.0,0.0,0.4893,0.0,0.0,0.0,0.0,0.0,0.0,0.0,0.0,0.0,0.0,0.0,0.0,0.0,-0.1098,-0.1941,0.0,-0.3866,-0.4672,-0.4564,-0.4561,0.0,0.0,-0.3889,-0.3887,-0.3476,-0.3914,-0.4384,-0.4384,-0.4384,-0.4384,-0.4384,-0.4455,0.0,0.0,0.0,0.0,0.0,0.0,0.0,0.0,0.0,0.0,0.0,0.0,0.0,0.0,0.0,-0.2874,-0.3635,-0.3306,-0.3083,-0.3083,-0.3083,-0.2891,-0.254,-0.2466,-0.2208,-0.1774,-0.1299,0.0,0.0,0.0,0.0,0.0,0.0516,0.0797,0.0424,0.0941,0.1156,0.1242,0.1775,0.1944,0.1985,0.0,0.0,0.0,0.0,0.0,0.0,0.0,0.0,0.0,0.0,1.7998,1.7752,1.8828,1.8505,1.8607,0.0,0.0,0.0,0.0,0.0,0.0,0.0,0.0,0.0,0.0,0.0,0.0,1.6196,1.5962,1.566,1.5274,0.0,0.0,0.0,0.0,0.0,0.0,0.0,0.0,0.0,0.0,0.0,0.0,0.0,0.0,0.0,0.0,0.0,0.0,0.0,0.0,0.0,0.0,0.0,0.0,0.0,0.0,0.0,0.0,-0.2728,0.0,0.0,0.0,0.0,0.0,-0.2724,0.0,-0.2596,-0.2643,-0.2713,-0.2683,-0.2646,-0.2613,-0.269,-0.2648,0.0,0.0,0.0,0.0,0.0,0.0,0.0,0.0,0.0,0.0,0.0,0.0,0.0,0.0,0.0,-0.1489,-0.1489,-0.2384,-0.2888,-0.2888,-0.2888,-0.2423,-0.1489,-0.1489,-0.0929,0.0152,0.1136,0.0,0.0,0.0,0.0,0.0,0.2535,0.2907,0.3089,0.3089,0.3092,0.3096,0.3161,0.3113,0.3015,0.0,0.0,0.0,0.0,0.0,0.0,0.0,0.0,0.0,0.0,0.0,1.8031,1.8349,1.8295,0.0,0.0,0.0,0.0,0.0,0.0,0.0,0.0,0.0,0.0,0.0,0.0,0.0,1.6352,1.697,1.6607,1.5286,1.4606,0.0,0.0,0.0,0.0,0.0,0.0,0.0,0.0,0.0,0.0,0.0,0.0,0.0,0.0,0.2971,0.1782,0.0,0.0,0.0,0.0,0.0,0.0,0.0,0.0,-0.2368,-0.2397,-0.248,0.0,-0.3756,-0.3063,-0.3238,-0.3263,0.0,-0.212,-0.2332,-0.1765,0.0,0.0,-0.2686,-0.2101,-0.1862,0.0,0.0,0.0,0.0,0.0,0.0,0.0,0.0,0.0,0.0,0.0,0.0,0.0,0.0,0.0,0.0,-0.0523,-0.0392,-0.0392,-0.0588,-0.0745,-0.0745,-0.0745,-0.0627,-0.0392,-0.0392,0.0196,0.1243,0.1476,0.0,0.0,0.0,0.0,0.2605,0.2118,0.2305,0.294,0.3052,0.3088,0.3172,0.3908,0.4167,0.4196,0.0,0.0,0.0,0.0,0.0,0.0,0.0,0.0,0.0,0.0,0.0,0.0,0.0,0.0,0.0,0.0,0.0,0.0,0.0,0.0,0.0,0.0,0.0,0.0,0.0,0.0,0.0,0.0,0.0,1.5819,0.0,0.0,0.0,0.0,0.0,0.0,0.0,0.0,0.0,0.0,0.4745,0.0,0.0,0.0,0.0,0.0,0.2087,0.0858,0.0,-0.0591,-0.1796,-0.3221,0.0,0.0,0.0,0.0,-0.3303,-0.3313,-0.3313,-0.3033,-0.2643,-0.2191,-0.2064,-0.181,-0.0903,0.0,0.0,0.0,0.0,0.0,0.0,0.0,0.0,0.0,0.0,0.0,0.0,0.0,0.0,0.0,0.0,0.0,0.0,0.0,0.0,0.0,0.0,0.0,0.0,0.0483,0.0746,0.0746,0.1175,0.1214,0.0746,0.0746,0.098,0.1409,0.1409,0.1722,0.2309,0.2817,0.3302,0.0,0.0,0.0,0.4428,0.3835,0.3967,0.447,0.455,0.4586,0.4632,0.5133,0.5223,0.517,0.0,0.0,0.0,0.0,0.0,0.0,0.0,0.0,0.0,0.0,0.0,0.0,0.0,0.0,0.0,0.0,0.0,0.0,0.0,0.0,0.0,0.0,0.0,0.0,0.0,0.0,0.0,0.0,0.0,0.0,0.0,0.0,1.1741,0.0,0.0,0.0,0.0,0.0,0.0,0.0,0.4098,0.0,0.0,0.0,0.0,0.0,0.0,0.0,0.0,-0.1307,-0.2409,-0.3699,-0.3087,0.0,0.0,0.0,0.0,0.0,-0.3857,-0.2582,-0.129,-0.1305,-0.0728,-0.0146,-0.0036,0.0,0.0,0.0,0.0,0.0,0.0,0.0,0.0,0.0,0.0,0.0,0.0,0.0,0.0,0.0,0.0,0.0,0.0,0.0,0.0,0.0,0.0,0.0,0.0,0.1324,0.184,0.184,0.2657,0.2774,0.2074,0.1918,0.227,0.3083,0.3083,0.32,0.3355,0.4297,0.4802,0.0,0.0,0.0,0.6213,0.5934,0.5991,0.6265,0.6293,0.63,0.63,0.63,0.6136,0.5888,0.0,0.0,0.0,0.0,0.0,0.0,0.0,0.0,0.0,0.0,0.0,0.0,0.0,0.0,0.0,0.0,0.0,0.0,0.0,0.0,0.0,0.0,0.0,0.0,0.0,0.0,0.0,0.0,0.0,0.0,1.443,1.3525,1.1584,0.8743,0.0,0.0,0.0,0.0,0.0,0.0,0.0,0.0,0.0,0.0,0.0,0.0,0.0,0.0,0.0,-0.1307,-0.2008,-0.3009,-0.3595,0.0,0.0,0.0,0.0,0.0,-0.3115,-0.212,-0.1292,-0.1294,-0.1201,-0.0897,-0.0183,0.0,0.0,0.0,0.0,0.0,0.0,0.0,0.0,0.0,0.0,0.0,0.0,0.0,0.0,0.0,0.0,0.0,0.0,0.0,0.0,0.0,0.0,0.0,0.0,0.0,0.2852,0.2852,0.3005,0.3476,0.4219,0.332,0.293,0.3083,0.3083,0.3593,0.4453,0.4608,0.5196,0.0,0.0,0.532,0.5989,0.5208,0.5358,0.6078,0.6245,0.63,0.63,0.63,0.6272,0.6211,0.0,0.0,0.0,0.0,0.0,0.0,0.0,0.0,0.0,0.0,0.0,0.0,0.0,0.0,0.0,0.0,0.0,0.0,0.0,0.0,0.0,0.0,0.0,0.0,0.0,0.0,0.0,0.0,0.0,1.5928,1.5133,1.2689,1.0303,0.7967,0.0,0.0,0.0,0.0,0.0,0.0,0.0,0.0,0.0,0.0,0.0,0.0,0.0,0.0,0.0,0.0,-0.1908,-0.2776,-0.318,0.0,0.0,0.0,0.0,0.0,-0.2181,-0.164,-0.1206,-0.0726,-0.004,0.058,0.0,0.0,0.0,0.0,0.0,0.0,0.0,0.0,0.0,0.0,0.0,0.0,0.0,0.0,0.0,0.0,0.0,0.0,0.0,0.0,0.0,0.0,0.0,0.0,0.0,0.0,0.4038,0.3986,0.4585,0.514,0.555,0.5079,0.4841,0.4841,0.4841,0.5079,0.555,0.555,0.5828,0.6254,0.0,0.5803,0.6114,0.5727,0.5803,0.6159,0.6272,0.6641,0.7165,0.7631,0.7845,0.7905,0.0,0.0,0.0,0.0,0.0,0.0,0.0,0.0,0.0,0.0,0.0,0.0,0.0,0.0,0.0,0.0,0.0,0.0,0.0,0.0,0.0,0.0,0.0,0.0,0.0,0.0,1.7158,1.8134,1.7309,1.6315,1.5131,1.1514,0.9005,0.0,0.0,0.0,0.0,0.0,0.0,0.0,0.0,0.0,0.0,0.0,0.0,0.0,0.0,0.0,0.0,0.0,0.0,0.0,0.0,0.0,0.0,-0.2363,-0.2388,-0.2164,-0.1233,-0.081,-0.0463,0.0202,0.0,0.0,0.0,0.0,0.0,0.0,0.0,0.0,0.0,0.0,0.0,0.0,0.0,0.0,0.0,0.0,0.0,0.0,0.0,0.0,0.0,0.0,0.0,0.0,0.0,0.0,0.0,0.0,0.5179,0.5085,0.5962,0.6409,0.63,0.63,0.63,0.63,0.63,0.63,0.63,0.63,0.63,0.63,0.63,0.63,0.63,0.63,0.6454,0.6641,0.6641,0.7249,0.8219,0.8914,0.9224,0.9271,0.0,0.0,0.0,0.0,0.0,0.0,0.0,0.0,0.0,0.0,0.0,0.0,0.0,0.0,0.0,0.0,0.0,0.0,0.0,0.0,0.0,0.0,0.0,0.0,0.0,1.7109,1.7298,1.8573,1.6843,1.5138,1.3394,1.0336,0.8259,0.7066,0.0,0.0,0.0,0.0,0.0,0.0,0.0,0.0,0.0,0.0,0.0,0.0,0.0,0.0,0.0,0.0,0.0,0.0,0.0,0.0,-0.1415,-0.1416,-0.1402,-0.1194,-0.0332,0.0652,0.1423,0.1489,0.1572,0.0,0.2079,0.2932,0.0,0.4084,0.0,0.0,0.0,0.0,0.0,0.0,0.0,0.0,0.0,0.0,0.0,0.0,0.0,0.0,0.0,0.0,0.0,0.0,0.0,0.0,0.0,0.0,0.0,0.6183,0.6268,0.6313,0.63,0.63,0.63,0.63,0.63,0.63,0.63,0.63,0.63,0.63,0.63,0.63,0.63,0.63,0.6834,0.771,0.771,0.8313,0.9188,0.9281,0.9281,0.9291,0.0,0.0,0.0,0.0,0.0,0.0,0.0,0.0,0.0,0.0,0.0,0.0,0.0,0.0,0.0,0.0,0.0,0.0,0.0,0.0,0.0,0.0,0.0,1.4645,1.6358,1.6526,1.7105,1.8027,1.6897,1.5756,1.4543,1.1057,0.0,0.0,0.0,0.0,0.0,0.0,0.0,0.0,0.0,0.0,0.0,0.0,0.0,0.0,0.0,0.0,0.0,0.0,0.0,-0.0069,-0.0383,-0.0486,-0.0484,-0.0489,-0.0481,-0.0408,-0.0107,0.0902,0.182,0.1741,0.286,0.0,0.0,0.5366,0.6265,0.6408,0.0,0.0,0.0,0.0,0.0,0.0,0.0,0.0,0.0,0.0,0.0,0.0,0.0,0.0,0.0,0.0,0.0,0.0,0.0,0.0,0.0,0.0,0.0,0.6306,0.6388,0.6702,0.7211,0.7249,0.7557,0.8161,0.6911,0.6641,0.7249,0.7249,0.7595,0.8161,0.8161,0.8161,0.8161,0.8161,0.8389,0.8818,0.9607,1.0024,1.0319,1.1173,1.1351,1.118,0.0,0.0,0.0,0.0,0.0,0.0,0.0,0.0,0.0,0.0,0.0,0.0,0.0,0.0,0.0,0.0,0.0,0.0,0.0,0.0,0.0,0.0,0.0,1.3476,1.4269,1.503,1.6105,1.7549,1.6493,1.56,1.4764,0.0,0.0,0.0,0.0,0.0,0.0,0.0,0.0,0.0,0.0,0.0,0.0,0.0,0.0,0.0,0.0,0.0,0.0,0.0,0.0,0.0,0.0,0.0,0.0,0.0,0.0245,0.0521,0.0571,0.1724,0.2923,0.2941,0.0,0.0,0.639,0.7124,0.7794,0.7984,0.0,0.0,0.0,0.0,0.0,0.0,0.0,0.0,0.0,0.0,0.0,0.0,0.0,0.0,0.0,0.0,0.0,0.0,0.0,0.0,0.0,0.0,0.0,0.0,0.7321,0.7672,0.8275,0.8275,0.8618,0.9301,0.7893,0.7595,0.8275,0.8275,0.8656,0.9301,0.9301,0.9301,0.9301,0.941,0.9673,1.0181,1.137,1.1709,1.1676,1.2582,1.2759,1.2572,0.0,0.0,0.0,0.0,0.0,0.0,0.0,0.0,0.0,0.0,0.0,0.0,0.0,0.0,0.0,0.0,0.0,0.0,0.0,0.0,0.0,0.0,0.0,1.1263,1.1886,1.2535,1.4318,1.7171,1.5479,1.4313,1.3506,1.0159,0.0,0.0,0.0,0.0,0.0,0.0,0.0,0.0,0.0,0.0,0.0,0.0,0.0,0.0,0.0,0.0,0.0,0.0,0.0,0.0,0.0,0.0,0.0,0.0,0.0764,0.1645,0.1762,0.3339,0.4977,0.0,0.0,0.0,0.7853,0.7814,0.7773,0.8357,0.0,0.0,0.0,0.0,0.0,0.0,0.0,0.0,0.0,0.0,0.0,0.0,0.0,0.0,0.0,0.0,0.0,0.0,0.0,0.0,0.0,0.0,0.0,0.0,0.9301,0.9301,0.9301,0.9301,0.9339,0.9339,0.9339,0.9339,0.9301,0.9301,0.9339,0.9339,0.9339,0.9339,0.9359,0.9611,1.052,1.1822,1.2803,1.3213,1.3213,1.3213,1.3213,1.3173,0.0,0.0,0.0,0.0,0.0,0.0,0.0,0.0,0.0,0.0,0.0,0.0,0.0,0.0,0.0,0.0,0.0,0.0,0.0,0.0,0.0,0.0,0.0,0.0,0.0,0.0,1.366,1.5137,1.4312,1.3391,0.0,0.0,0.0,0.3683,0.0,0.0,0.0,0.0,0.0,0.0,0.0,0.0,0.0,0.0,0.0,0.0,0.0,0.0,0.0,0.0,0.0,0.0,0.0,0.0571,0.1209,0.099,0.1744,0.2644,0.2581,0.3701,0.0,0.5295,0.0,0.0,0.0,0.7921,0.0,0.0,0.0,0.0,0.0,0.0,0.0,0.0,0.0,0.0,0.0,0.0,0.0,0.0,0.0,0.0,0.0,0.0,0.0,0.0,0.0,0.0,0.0,0.0,0.0,0.0,0.9301,0.9631,1.0335,1.0372,1.072,1.1403,1.1403,1.1019,1.0372,1.0372,1.0757,1.1416,1.1639,1.1764,1.1789,1.2037,1.2409,1.2777,1.3306,1.3347,1.324,1.34,1.3347,1.32,0.0,0.0,0.0,0.0,0.0,0.0,0.0,0.0,0.0,0.0,1.7748,0.0,0.0,0.0,0.0,0.0,0.0,0.0,0.0,0.0,0.0,0.0,0.0,0.0,0.0,1.1081,1.1385,0.0,0.0,0.0,0.0,0.0,0.0,0.2221,0.0,0.0365,0.0,0.0,0.0,0.0,0.0,0.0,0.0,0.0,0.0,0.0,0.0,0.0,0.0,0.0,0.0,0.0,0.0,0.0724,0.1592,0.1523,0.2507,0.3696,0.3863,0.4779,0.0,0.6183,0.0,0.0,0.0,0.0,0.0,0.0,0.0,0.0,0.0,0.0,0.0,0.0,0.0,0.0,0.0,0.0,0.0,0.0,0.0,0.0,0.0,0.0,0.0,0.0,0.0,0.0,0.0,0.0,0.0,0.0,1.0496,1.0795,1.1391,1.1391,1.17,1.2305,1.2305,1.1996,1.1391,1.1391,1.1788,1.2529,1.2837,1.2971,1.2998,1.3253,1.3454,1.3574,1.3748,1.3707,1.3574,1.3761,1.3707,1.3547,0.0,0.0,0.0,0.0,0.0,0.0,0.0,0.0,0.0,0.0,1.6844,1.5826,0.0,0.0,0.0,0.0,0.0,0.0,0.0,0.0,0.0,0.0,0.0,0.0,0.0,0.0,0.0,0.0,0.0,0.0,0.0,0.0,0.3568,0.0843,0.0,0.0163,0.0,-0.0508,0.0,0.0,0.0,0.0,0.0,0.0,0.0,0.0,0.0,0.0,0.0,0.0,0.0,0.0,0.011,0.0803,0.1646,0.1944,0.3272,0.4779,0.5328,0.0,0.0,0.7482,0.0,0.0,0.0,0.0,0.0,0.0,0.0,0.0,0.0,0.0,0.0,0.0,0.0,0.0,0.0,0.0,0.0,0.0,0.0,0.0,0.0,0.0,0.0,0.0,0.0,0.0,0.0,0.0,0.0,0.0,1.2305,1.2305,1.2305,1.2305,1.2305,0.0,1.2305,1.2305,1.2305,1.2305,1.2516,1.2837,1.3093,1.324,1.3307,1.3533,1.3841,1.4082,1.4082,1.4082,1.4082,1.4082,1.4082,1.4055,0.0,0.0,0.0,0.0,0.0,0.0,0.0,0.0,0.0,0.0,0.0,0.0,0.0,0.0,0.0,0.0,0.0,0.0,0.0,0.0,0.0,0.0,0.0,0.0,0.0,0.0,0.0,0.0,0.0,0.0,0.0,0.0,0.0,0.0161,0.0,-0.1287,-0.1564,-0.0452,0.0,0.0,0.0,0.0,0.0,0.0,0.0,0.0,0.0,0.0,0.0,0.0,0.0,0.0,0.1038,0.2318,0.3799,0.3711,0.4635,0.5758,0.6145,0.6424,0.0,0.0,0.0,0.0,0.0,0.0,0.0,0.0,0.0,0.0,0.0,0.0,0.0,0.0,0.0,0.0,0.0,0.0,0.0,0.0,0.0,0.0,0.0,0.0,0.0,0.0,0.0,0.0,0.0,0.0,0.0,1.2305,1.2305,1.2305,1.2305,1.2305,1.2305,0.0,1.2305,1.2305,1.2305,1.2305,1.2599,1.312,1.3186,1.3467,1.3908,1.3961,1.4028,1.4082,1.4082,1.4082,1.4082,1.4082,1.4082,1.4082,0.0,0.0,0.0,0.0,0.0,0.0,0.0,0.0,0.0,0.0,0.0,0.0,0.0,0.0,0.0,0.0,0.0,0.0,0.0,0.0,0.0,0.0,0.0,0.0,0.0,0.0,0.0,0.0,0.0,0.0,0.0,0.0,0.0,-0.1575,0.0,-0.1512,-0.234,-0.0712,0.0,0.0,0.0,0.0,0.0,0.0,0.0,0.0,0.0,0.0,0.0,0.0,0.0,0.0,0.0,0.0,0.4282,0.4318,0.5086,0.6017,0.6458,0.0,0.0,0.8475,0.0,0.0,0.0,0.0,0.0,0.0,0.0,0.0,0.0,0.0,0.0,0.0,0.0,0.0,0.0,0.0,0.0,0.0,0.0,0.0,0.0,0.0,0.0,0.0,0.0,0.0,0.0,1.2305,1.2238,1.2104,1.2091,1.2024,1.1877,1.2024,1.2091,1.2091,1.2238,1.2305,1.2305,1.2489,1.273,1.2999,1.3293,1.3547,1.3881,1.4028,1.4082,1.4082,1.4082,1.4082,1.4082,1.4082,1.4082,1.4166,0.0,0.0,0.0,0.0,0.0,0.0,0.0,0.0,0.0,0.0,0.0,0.0,0.0,0.0,0.0,0.0,0.0,0.0,0.0,0.0,0.0,0.0,0.0,0.0,0.0,0.0,0.0,0.0,0.0,0.0,0.0,0.0,0.0,-0.2672,0.0,-0.1256,-0.2672,-0.0783,0.0,0.0,0.0,0.0073,0.0211,0.0215,0.0,0.0471,0.0474,0.048,0.0593,0.1297,0.0,0.0,0.0,0.0,0.4314,0.4608,0.52,0.5928,0.6505,0.0,0.7996,0.9919,0.0,0.0,0.0,0.0,0.0,0.0,0.0,0.0,0.0,0.0,0.0,0.0,0.0,0.0,0.0,0.0,0.0,0.0,0.0,0.0,0.0,0.0,0.0,0.0,0.0,0.0,1.2305,1.2305,1.2171,1.1913,1.1899,1.173,1.1389,1.1677,1.193,1.2148,1.2594,1.2806,1.282,1.3107,1.3147,1.3078,1.3505,1.383,1.4047,1.431,1.4421,1.4421,1.4518,1.4532,1.4546,1.4643,1.4657,1.4783,0.0,0.0,0.0,0.0,0.0,0.0,0.0,0.0,0.0,0.0,0.8165,0.0,0.0,0.0,0.0,0.0,0.0,0.0,0.0,0.0,0.0,0.0,0.0,0.0,0.0,0.0,0.0,0.0,0.0,0.0,0.0,0.0,0.0,-0.0487,0.0,0.0,-0.0452,-0.0141,0.0,0.0,0.0,0.0459,0.1119,0.0,0.0,0.0,0.0,0.233,0.2341,0.2488,0.3019,0.0,0.0,0.0,0.5252,0.5397,0.5634,0.5901,0.0,0.0,0.9511,0.0,0.0,0.0,0.0,0.0,0.0,0.0,0.0,0.0,0.0,0.0,0.0,0.0,0.0,0.0,0.0,0.0,0.0,0.0,0.0,0.0,0.0,0.0,0.0,0.0,0.0,0.0,1.2305,1.2305,1.2171,1.1913,1.1899,1.173,1.1389,1.1429,1.2026,1.312,1.4249,1.4799,1.4816,1.4848,1.4548,1.4021,1.4071,1.4706,1.5697,1.5745,1.5761,1.5793,1.6173,1.6341,1.6413,1.6734,1.6846,1.6887,0.0,0.0,0.0,0.0,0.0,0.0,0.0,0.0,0.0,0.0,0.0,0.4559,0.0,0.0,0.0,0.0,0.0,0.0,0.0,0.0,0.0,0.0,0.0,0.0,0.0,0.0,0.0,0.0,0.0,0.0,0.0,-0.2715,-0.2184,0.0,0.0,0.0,0.0,0.0,0.0744,0.0788,0.1286,0.1731,0.0,0.0,0.0,0.0,0.0,0.0,0.0,0.0,0.4089,0.409,0.4619,0.0,0.0,0.0,0.594,0.6694,0.7959,0.9117,1.0436,0.0,0.0,0.0,0.0,0.0,0.0,0.0,0.0,0.0,0.0,0.0,0.0,0.0,0.0,0.0,0.0,0.0,0.0,0.0,0.0,0.0,0.0,0.0,0.0,0.0,0.0,1.2305,1.2305,1.2305,1.2091,1.1637,1.1623,1.1396,1.0942,1.1801,1.2952,1.4379,1.4947,1.519,1.519,1.519,1.5101,1.4961,1.4961,1.5375,1.6,1.6,1.6,1.6032,1.6507,1.6694,1.6743,1.7162,1.7293,1.7374,0.0,0.0,0.0,0.0,0.0,0.0,0.0,0.0,0.0,0.0,0.0,0.0,0.0,0.0,0.0,0.0,0.0,0.0,0.0,0.0,0.0,0.0,0.0,0.0,0.0,0.0,0.0,0.0,0.0,0.0,-0.2643,-0.2452,-0.1935,0.0,-0.0358,0.0,0.0,0.0,0.0,0.0,0.0,0.0,0.0,0.0,0.0,0.0,0.0,0.0,0.0,0.0,0.0,0.0,0.0,0.0,0.0,0.0,0.0,0.0,0.0,0.0,1.1198,1.3117,0.0,0.0,0.0,0.0,0.0,0.0,0.0,0.0,0.0,0.0,0.0,0.0,0.0,0.0,0.0,0.0,0.0,0.0,0.0,0.0,0.0,0.0,0.0,0.0,0.0,1.2305,1.2305,1.2238,1.2065,1.1744,1.1648,1.1492,1.1202,1.2764,1.4127,1.5273,1.5704,1.5913,1.5913,1.5913,1.6033,1.622,1.595,1.6119,1.6522,1.6522,1.6522,1.6556,1.7149,1.7377,1.7428,1.7968,1.8141,1.8261,0.0,0.0,0.0,0.0,0.0,0.0,0.0,0.0,0.0,0.0,0.0,0.0,0.0,0.0,0.0,0.1082,0.0,0.0,0.0,0.0,0.0,0.0,0.0,0.0,0.0,0.0,0.0,0.0,0.0,0.0,-0.1396,-0.1396,-0.0926,-0.0089,-0.0042,-0.004,-0.0038,0.0,0.0,0.0,0.0,0.0,0.0,0.0,0.0,0.0,0.0,0.0,0.0,0.0,0.0,0.0,0.0,0.0,0.0,0.0,0.0,0.0,0.0,1.1179,0.0,1.3652,0.0,0.0,0.0,0.0,0.0,0.0,0.0,0.0,0.0,0.0,0.0,0.0,0.0,0.0,0.0,0.0,0.0,0.0,0.0,0.0,0.0,0.0,0.0,0.0,0.0,1.2305,1.2305,1.2037,1.213,1.2627,1.2321,1.2395,1.2856,1.4516,1.5404,1.549,1.7097,1.7872,1.7872,1.7872,1.7837,1.7823,1.6925,1.7047,1.7895,1.7895,1.7895,1.7973,1.8841,1.917,1.9267,2.0139,2.045,2.045,0.0,0.0,0.0,0.0,0.0,0.0,0.0,0.0,0.0,0.0,0.0,0.0,0.0,-0.2347,-0.2103,-0.1111,-0.0584,0.0,0.0,0.0,0.0,0.0,0.0,0.0,0.0,0.0,0.0,0.0,0.0,-0.1421,-0.1623,-0.14,-0.1257,-0.1128,-0.0354,0.0,0.0116,0.1671,0.0,0.0,0.0,0.0,0.0,0.0,0.0,0.0,0.0,0.0,0.0,0.0,0.0,0.0,0.0,0.0,0.0,0.0,0.0,0.0,0.0,0.0,0.0,1.3293,0.0,0.0,0.0,0.0,0.0,0.0,0.0,0.0,0.0,0.0,0.0,0.0,0.0,0.0,0.0,0.0,0.0,0.0,0.0,0.0,0.0,0.0,0.0,0.0,0.0,0.0,1.4135,1.3776,1.3576,1.3602,1.3458,1.3933,1.4977,1.5335,1.6048,1.7106,1.7716,1.8008,1.8008,1.8008,1.8008,1.7974,1.7647,1.7681,1.8008,1.8008,1.8008,1.8105,1.8945,1.9297,1.9394,2.0292,2.0605,2.0605,0.0,0.0,0.0,0.0,0.0,0.0,0.0,0.0,0.0,0.0,0.0,0.0,0.0,0.0,-0.4012,-0.303,-0.1813,-0.0893,-0.039,0.0084,0.0,0.0,0.0,0.0,0.0,0.0,0.0,0.0,0.0,0.0,0.0,-0.097,-0.0993,-0.1146,-0.0373,0.0,0.0,0.0,0.0,0.296,0.0,0.0,0.6941,0.0,0.0,0.0,0.0,0.0,0.0,0.0,0.0,0.0,0.0,0.0,0.0,0.0,0.0,0.0,0.0,0.0,0.0,0.0,0.0,0.0,0.0,0.0,0.0,0.0,0.0,0.0,0.0,0.0,0.0,0.0,0.0,0.0,0.0,0.0,0.0,0.0,0.0,0.0,0.0,0.0,0.0,0.0,0.0,0.0,1.5171,1.4658,1.438,1.4371,1.4644,1.5256,1.6276,1.6197,1.6717,1.7793,1.7949,1.8008,1.8008,1.8008,1.8008,1.8008,1.8008,1.8008,1.8008,1.8008,1.8086,1.8247,1.9004,1.9375,1.959,2.0351,2.0605,2.0605,0.0,0.0,0.0,0.0,0.0,0.0,0.0,0.0,0.0,0.0,0.0,0.0,0.0,0.0,0.0,-0.4566,-0.2417,-0.1146,-0.1146,0.0251,0.0,0.0,0.0,0.0,0.0,0.0,0.0,0.0,0.0,0.0,0.0,0.0,0.0,0.0,0.0,0.0,0.0073,0.0,0.1931,0.3107,0.0,0.6857,0.7628,0.0,0.0,0.0,1.0893,1.0839,0.0,0.0,0.0,0.0,0.0,0.0,0.0,0.0,0.0,0.0,0.0,0.0,0.0,0.0,0.0,0.0,0.0,0.0,0.0,0.0,0.0,0.0,0.0,0.0,0.0,0.0,0.0,0.0,0.0,0.0,0.0,0.0,0.0,0.0,0.0,0.0,0.0,0.0,0.0,1.5261,1.5261,1.4596,1.4437,1.4956,1.5708,1.6339,1.6726,1.7168,1.7416,1.7402,1.7812,1.8008,1.8008,1.8008,1.8008,1.8008,1.8008,1.8008,1.8027,1.8027,1.8227,1.8656,1.9141,1.9551,1.9961,2.0449,2.0605,2.0605,0.0,0.0,0.0,0.0,0.0,0.0,0.0,0.0,0.0,0.0,0.0,0.0,0.0,0.0,0.0,-0.523,-0.3693,-0.2508,-0.1924,-0.0502,0.0446,0.0783,0.0978,0.0,0.0,0.0,0.0,0.0,0.0,0.0,0.0,0.0,0.0,0.0,0.0,0.0,0.0069,0.1096,0.0,0.0,0.452,0.6289,0.0,0.0,0.0,0.0,0.0,1.0476,0.0,0.0,1.0988,1.1389,0.0,0.0,0.0,0.0,0.0,0.0,1.0693,0.0,0.0,0.0,0.0,0.0,1.2705,1.3026,0.0,0.0,0.0,0.0,0.0,0.0,0.0,0.0,0.0,0.0,0.0,0.0,0.0,0.0,0.0,0.0,0.0,0.0,0.0,0.0,1.607,1.6507,1.7182,1.6764,1.6576,1.6689,1.6573,1.6914,1.7623,1.748,1.7539,1.7832,1.7949,1.8008,1.8008,1.8008,1.8008,1.8008,1.8008,1.8184,1.8422,1.8422,1.85,1.8676,1.9453,1.9805,1.9961,2.0449,2.0605,2.0605,0.0,0.0,0.0,0.0,0.0,0.0,0.0,0.0,0.0,0.0,0.0,0.0,0.0,0.0,0.0,-0.5964,-0.4388,-0.3067,-0.2258,-0.0528,0.064,0.109,0.1388,0.1411,0.0,0.0,0.0,0.0,0.0,0.0,0.0,0.0,0.0,0.0,0.0,0.0,0.0,0.0,0.0,0.0,0.4383,0.0,0.0,0.8688,0.9652,0.0,0.0,0.0,1.1498,1.1238,1.1396,0.0,0.0,0.0,0.0,0.0,0.0,0.0,0.0,0.0,0.0,0.0,0.0,0.0,1.2238,1.2438,1.2665,0.0,0.0,0.0,0.0,0.0,0.0,0.0,0.0,0.0,0.0,0.0,0.0,0.0,0.0,0.0,0.0,0.0,0.0,1.6576,1.6957,1.7347,1.772,1.7519,1.7383,1.7383,1.7129,1.7324,1.8008,1.7773,1.7773,1.8008,1.8008,1.8008,1.8008,1.8008,1.8008,1.8008,1.8008,1.8144,1.8344,1.852,1.8715,1.8965,1.9453,1.9766,1.9961,2.0449,2.0605,2.0605,0.0,0.0,0.0,0.0,0.0,0.0,0.0,0.0,0.0,0.0,0.0,0.0,0.0,0.0,0.0,0.0,-0.4732,-0.3151,-0.2258,-0.0277,0.0,0.0,0.173,0.1763,0.1122,0.0365,0.0,0.0,0.0,0.0,0.0,0.0,0.0,0.0,0.0,0.0,0.0,0.0,0.0,0.3351,0.4659,0.6838,0.0,0.0,1.1403,0.0,1.2385,1.2478,1.261,1.1784,1.1442,0.0,0.0,0.0,0.0,0.0,1.1022,0.0,0.0,0.0,0.0,0.0,0.0,0.0,1.2435,1.2417,1.2357,0.0,0.0,0.0,0.0,0.0,0.0,0.0,0.0,0.0,0.0,0.0,0.0,0.0,0.0,0.0,0.0,1.681,1.7187,1.6768,1.7545,1.7852,1.748,1.7494,1.7494,1.7494,1.7494,1.7637,1.8008,1.8008,1.8008,1.8008,1.8008,1.8008,1.8008,1.8008,1.8008,1.8008,1.8008,1.8047,1.8105,1.8403,1.8848,1.9297,1.9336,1.9609,2.0039,2.0468,2.0605,2.0605,0.0,0.0,0.0,0.0,0.0,0.0,0.0,0.0,0.0,0.0,0.0,0.0,0.0,0.0,0.0,0.0,0.0,-0.3677,-0.2286,0.0,-0.0139,0.1062,0.124,0.1249,0.1098,0.0369,0.0,0.0,0.0,0.0,0.0,0.0,0.0,0.0,0.0,0.0,0.0,0.0,0.0,0.4012,0.4474,0.0,0.9168,0.9429,1.0592,1.21,1.2238,1.2345,1.2358,0.0,1.181,1.1429,0.0,0.0,0.0,0.0,0.0,0.0,0.0,0.0,0.0,0.0,0.0,0.0,1.3575,1.3267,1.2794,0.0,0.0,0.0,0.0,0.0,0.0,0.0,0.0,0.0,0.0,0.0,0.0,0.0,0.0,0.0,0.0,1.7799,1.8177,1.7754,1.7906,1.7969,1.7891,1.7891,1.7891,1.7891,1.7891,1.793,1.8008,1.8008,1.8008,1.8008,1.8008,1.8008,1.8008,1.8008,1.8008,1.8008,1.8008,1.8169,1.8461,1.8208,1.8594,1.9316,1.9668,2.0059,2.0488,2.0566,2.0605,2.0605,0.0,0.0,0.0,0.0,0.0,0.0,0.0,0.0,0.0,0.0,0.0,0.0,0.0,0.0,0.0,0.0,0.0,0.0,0.0,0.0,0.0,0.1062,0.1114,0.109,0.1107,0.0381,0.0,0.0,0.0,0.0,0.0,0.0,0.0,0.0,0.0,0.0,0.0,0.0,0.4962,0.5117,0.5147,0.0,0.83,0.8384,0.9638,1.1351,1.1489,1.1885,1.2305,1.2305,1.2104,0.0,0.0,1.177,1.165,0.0,1.1543,1.1497,0.0,0.0,0.0,1.3145,0.0,0.0,0.0,1.3751,1.3292,1.3794,0.0,0.0,0.0,0.0,0.0,0.0,0.0,0.0,0.0,0.0,0.0,0.0,0.0,0.0,0.0,1.8673,1.9065,1.8672,1.8437,1.8286,1.8286,1.8125,1.8008,1.8008,1.8008,1.8008,1.8008,1.8008,1.8105,1.8286,1.8105,1.8125,1.8286,1.8105,1.8008,1.8008,1.8008,1.8091,1.8266,1.8086,1.8516,1.9316,1.9512,1.9863,2.0273,2.0527,2.0605,2.0644,0.0,0.0,0.0,0.0,0.0,0.0,0.0,0.0,0.0,0.0,0.0,0.0,0.0,0.0,0.0,0.0,0.0,0.0,0.0,0.0,0.0,0.0,0.09,0.0896,0.0901,0.0295,0.0,0.0,0.0168,0.0236,0.0269,0.0,0.0,0.0,0.0,0.0,0.0,0.0,0.0,0.6235,0.0,0.6867,0.7847,0.7847,0.9204,1.1081,1.1081,1.1613,1.2305,1.2305,0.0,1.2265,1.206,1.2078,0.0,0.0,0.0,0.0,0.0,0.0,0.0,0.0,0.0,1.5068,0.0,0.0,0.0,1.4715,0.0,0.0,0.0,0.0,0.0,0.0,0.0,0.0,0.0,0.0,0.0,0.0,0.0,0.0,0.0,1.9221,1.957,1.9297,1.8773,1.852,1.8598,1.8208,1.8008,1.8008,1.8008,1.8008,1.8008,1.8008,1.8188,1.8598,1.8169,1.8188,1.8578,1.8169,1.8008,1.8008,1.8008,1.8008,1.8008,1.8086,1.8594,1.9297,1.9297,1.959,2.0078,2.0468,2.0605,2.0664,-0.5473,-0.6589,0.0,0.0,0.0,0.0,0.0,0.0,0.0,0.0,0.0,0.0,0.0,0.0,0.0,0.0,0.0,0.0,-0.2846,0.0,0.0,0.0,0.0,0.0,0.0128,0.0033,0.0,0.0,0.0772,0.114,0.1173,0.0,0.0,0.0,0.3908,0.0,0.0,0.0,0.633,0.0,0.7443,0.8183,0.0,0.911,1.0361,1.212,1.212,1.2194,1.2305,0.0,1.2305,1.2291,0.0,1.2104,0.0,0.0,0.0,0.0,0.0,0.0,0.0,0.0,1.6599,0.0,0.0,0.0,1.5731,1.5461,0.0,0.0,0.0,0.0,0.0,0.0,0.0,0.0,0.0,0.0,0.0,0.0,0.0,0.0,0.0,0.0,1.889,1.9258,1.8535,1.8208,1.8578,1.8208,1.8008,1.8008,1.8008,1.8008,1.8008,1.8008,1.8188,1.8598,1.8169,1.8188,1.8578,1.8169,1.8008,1.8008,1.8008,1.8008,1.8047,1.8383,1.8848,1.9297,1.9297,1.9822,2.0546,2.0586,2.0605,2.0664,0.0,-0.708,0.0,0.0,0.0,0.0,0.0,0.0,0.0,0.0,0.0,0.0,0.0,0.0,0.0,0.0,0.0,-0.3123,0.0,0.0,0.0,0.0,0.0,0.0,0.0,0.1067,0.1007,0.1577,0.1944,0.2108,0.2142,0.0,0.0,0.0,0.455,0.0,0.6585,0.0,0.0,0.0,0.0,0.0,0.0,0.9518,1.0196,1.1502,1.207,1.2305,1.2305,0.0,1.2305,0.0,0.0,0.0,0.0,0.0,0.0,0.0,0.0,0.0,0.0,0.0,0.0,0.0,0.0,0.0,1.6533,0.0,0.0,0.0,0.0,0.0,0.0,0.0,0.0,0.0,0.0,0.0,0.0,0.0,0.0,0.0,0.0,0.0,0.0,0.0,0.0,1.8422,1.8598,1.8208,1.8008,1.8008,1.8008,1.8091,1.8344,1.8344,1.8676,1.9338,1.8945,1.8965,1.9319,1.8945,1.8613,1.8344,1.8633,1.8613,1.8364,1.8828,1.9258,1.9648,1.9648,2.0019,2.0605,2.0605,2.0742,2.1016,0.0,0.0,0.0,0.0,0.0,0.0,0.0,0.0,0.0,0.0,0.0,0.0,-0.9622,-0.8691,0.0,0.0,0.0,-0.2926,0.0,0.0,0.0478,0.0,0.0,0.0,0.0,0.0,0.0,0.2709,0.2943,0.3043,0.308,0.3979,0.0,0.0,0.0,0.5996,0.6965,0.0,0.0,0.9339,0.9593,1.0308,1.113,1.0383,1.0571,1.1316,1.2033,1.2305,1.2305,1.2305,1.2489,0.0,1.3499,0.0,0.0,0.0,0.0,0.0,1.5579,0.0,0.0,0.0,0.0,0.0,0.0,0.0,0.0,0.0,0.0,0.0,0.0,0.0,0.0,0.0,0.0,0.0,0.0,0.0,0.0,0.0,0.0,0.0,0.0,0.0,0.0,1.9434,1.8848,1.8481,1.8598,1.8208,1.8066,1.8149,1.8149,1.8344,1.8773,1.8773,1.9143,1.9902,1.9492,1.9512,1.9902,1.9473,1.9121,1.8792,1.916,1.9102,1.8812,1.9277,1.9648,1.9941,2.0138,2.0469,2.0742,2.0742,2.1035,2.1484,-0.7195,-0.7479,0.0,0.0,0.0,0.0,0.0,0.0,0.0,0.0,0.0,0.0,0.0,0.0,0.0,0.0,0.0,-0.3063,-0.1894,0.0,0.0496,0.0,0.0,0.0,0.0,0.0,0.0,0.0,0.0,0.3946,0.3979,0.4921,0.0,0.0,0.0,0.5745,0.6098,0.7085,0.8189,0.9367,1.0372,1.1354,1.2268,0.0,1.2231,1.2268,1.2305,0.0,0.0,1.2305,1.2915,0.0,0.0,0.0,0.0,0.0,0.0,0.0,0.0,0.0,0.0,1.8188,0.0,0.0,0.0,0.0,1.8442,0.0,0.0,0.0,0.0,0.0,0.0,0.0,0.0,0.0,0.0,0.0,0.0,0.0,0.0,0.0,0.0,0.0,0.0,1.9824,1.873,1.8169,1.8578,1.8208,1.8169,1.8559,1.8578,1.8828,1.9258,1.9258,1.9492,1.9902,1.9492,1.9512,1.9902,1.9473,1.9277,1.9277,1.9277,1.9277,1.9297,1.9727,1.9902,1.9962,2.082,2.1171,2.1171,2.1171,2.1484,2.1934,0.0,0.0,0.0,0.0,0.0,0.0,0.0,-0.69,0.0,0.0,0.0,0.0,0.0,0.0,-0.6485,0.0,0.0,-0.2181,-0.1703,-0.0605,0.0,0.0,0.0,0.2797,0.0,0.0,0.0,0.0,0.0,0.0,0.5183,0.5346,0.0,0.0,0.0,0.6551,0.0,0.0,0.0,0.0,0.0,1.2114,1.261,0.0,0.0,1.2305,1.2305,1.2305,0.0,1.3025,1.3462,1.3918,1.5226,1.586,1.6245,1.6872,1.727,0.0,0.0,0.0,1.8437,1.8383,0.0,0.0,0.0,0.0,0.0,0.0,0.0,0.0,0.0,0.0,0.0,0.0,0.0,0.0,0.0,0.0,0.0,0.0,0.0,0.0,0.0,0.0,0.0,1.8613,1.7988,1.7773,1.8169,1.8325,1.8461,1.8598,1.8906,1.9277,1.9687,1.9707,1.9922,2.037,2.0233,2.0253,2.037,2.0233,1.998,1.9727,2.0038,1.9961,1.9746,2.0156,2.0527,2.0781,2.1073,2.1541,2.2051,2.1777,2.1934,2.2363,-0.7089,0.0,0.0,0.0,0.0,0.0,0.0,0.0,0.0,0.0,-0.735,0.0,-0.7014,0.0,-0.5293,0.0,-0.2731,-0.1619,-0.1078,-0.0388,0.0,0.3228,0.2706,0.0,0.0,0.0,0.0,0.0,0.0,0.5711,0.5793,0.5834,0.0,0.0,0.0,0.0,0.0,0.0,1.0495,0.0,0.0,1.2412,0.0,0.0,1.2371,1.2452,0.0,1.2512,1.2879,1.3499,1.4171,1.4942,1.621,1.6819,1.7217,1.7837,1.8008,1.8008,1.8008,1.8091,0.0,1.8344,1.8286,0.0,1.8344,0.0,0.0,0.0,0.0,0.0,0.0,0.0,0.0,0.0,0.0,0.0,0.0,0.0,0.0,0.0,0.0,0.0,0.0,0.0,1.7773,1.8169,1.7852,1.7734,0.0,0.0,1.8676,1.8831,1.9277,1.9727,2.0137,2.0137,2.0371,2.0801,2.0801,2.0801,2.0801,2.0801,2.0566,2.0156,2.0488,2.0488,2.041,2.0684,2.1074,2.1444,2.16,2.2031,2.248,2.2207,2.2383,2.273,0.0,0.0,0.0,0.0,-0.5725,0.0,0.0,0.0,-0.4816,0.0,-0.389,-0.3275,-0.3413,-0.3486,-0.3063,-0.1897,-0.1879,0.0,-0.009,0.0,0.0,0.0,0.3399,0.4345,0.6315,0.0,0.0,0.0,0.0,0.0,0.5878,0.6503,0.0,0.0,0.8176,0.0,0.8968,1.027,1.082,1.0969,1.1922,1.2305,1.2318,1.2305,1.2529,1.282,1.2486,1.2952,1.3702,1.381,1.5084,1.6593,1.6627,1.7285,1.8008,1.8008,1.8008,1.8008,1.8008,1.8266,1.8481,1.8144,0.0,0.0,0.0,0.0,1.8481,0.0,0.0,0.0,0.0,0.0,0.0,0.0,0.0,0.0,0.0,0.0,0.0,0.0,0.0,0.0,0.0,1.8477,1.8144,1.8539,1.8223,1.7988,0.0,0.0,1.8831,1.9277,1.9707,2.0156,2.0625,2.0625,2.0801,2.1229,2.121,2.121,2.1229,2.1229,2.1035,2.0664,2.0664,2.0879,2.1229,2.1229,2.1523,2.1953,2.2363,2.2519,2.2539,2.2539,2.275,2.3101,-0.6482,-0.6177,-0.6122,0.0,-0.6023,-0.577,0.0,0.0,0.0,0.0,-0.4518,-0.4695,-0.3915,-0.2991,-0.2298,-0.1991,-0.1068,0.0,0.0,0.0,0.0,0.3588,0.3701,0.4718,0.6833,0.6844,0.0,0.634,0.0,0.0,0.6932,0.7432,0.7909,0.0,0.0,0.0,1.0319,1.0648,1.1242,1.1922,1.2194,1.2438,0.0,0.0,1.2926,1.3789,1.3469,1.3499,1.3918,1.5367,1.6175,1.6715,1.7423,1.7784,1.8008,1.8008,1.8008,1.8008,1.8008,1.8086,1.8188,1.8383,1.8286,1.8223,0.0,0.0,0.0,0.0,0.0,0.0,0.0,0.0,0.0,0.0,0.0,0.0,0.0,0.0,0.0,0.0,0.0,0.0,0.0,1.7852,1.7715,1.811,1.7773,1.7676,0.0,0.0,0.0,1.9277,2.0019,2.0605,2.1055,2.0742,2.0997,2.1719,2.1387,2.1366,2.1719,2.1719,2.166,2.1584,2.1584,2.1621,2.1719,2.1719,2.1973,2.2363,2.248,2.2695,2.2945,2.2945,2.3003,2.3101,-0.6592,0.0,0.0,-0.6552,0.0,0.0,-0.4927,0.0,0.0,-0.2973,-0.3016,0.0,-0.2316,-0.1596,-0.1102,-0.1126,0.0046,0.0,0.0,0.0,0.0,0.46,0.46,0.5332,0.6967,0.724,0.0,0.6848,0.0,0.0,0.7789,0.8422,0.0,0.0,0.0,1.0492,0.0,1.1415,1.1774,1.2305,1.2305,0.0,0.0,1.2838,1.3359,1.4065,1.4737,1.4977,1.5119,1.6245,1.6888,1.7285,1.7837,1.8008,1.8008,1.8008,1.8008,1.8008,1.8008,1.8008,1.8066,1.8266,1.8184,1.8066,1.8266,1.8325,1.8266,0.0,0.0,0.0,0.0,0.0,0.0,0.0,0.0,0.0,0.0,0.0,0.0,0.0,0.0,0.0,0.0,1.8028,1.7921,1.8509,1.8569,1.8569,0.0,0.0,0.0,1.9333,2.0312,2.0977,2.119,2.1172,2.1484,2.2168,2.1914,2.1914,2.2168,2.2168,2.2051,2.1894,2.1894,2.1992,2.2168,2.2168,2.2402,2.275,2.275,2.2886,2.3101,2.3101,2.3101,2.3101,0.0,0.0,0.0,0.0,0.0,0.0,0.0,-0.3158,0.0,-0.1621,0.0,-0.0191,0.0,0.0,0.0047,0.0236,0.0,0.1902,0.2177,0.3225,0.4415,0.5758,0.5711,0.6115,0.7123,0.7704,0.0,0.0,0.0,0.0,0.8604,0.9457,0.0,0.0,0.0,0.0,0.0,1.2198,1.2305,0.0,1.2305,1.2378,1.2549,1.339,1.3846,1.4314,1.6,1.6593,1.6627,1.6749,1.732,1.8008,1.8008,1.8008,1.8008,1.8008,1.8008,1.8008,1.8008,1.8008,1.8027,1.8086,1.8047,1.8027,1.8086,1.8047,1.8008,1.8008,1.8008,1.8008,0.0,0.0,0.0,0.0,0.0,0.0,0.0,0.0,0.0,0.0,0.0,0.0,0.0,0.0,1.859,1.9408,1.9901,0.0,0.0,0.0,0.0,1.9515,2.0741,0.0,2.1366,0.0,2.2148,2.2676,2.2559,2.2539,2.2598,2.2598,2.2402,2.2051,2.2051,2.2266,2.2598,2.2598,2.2769,2.3101,2.3101,2.3101,2.3101,2.3101,2.3101,2.3101,0.0,0.0,0.0,0.0,0.0,-0.2401,-0.2394,-0.2875,-0.2571,-0.0584,-0.1072,0.0,-0.0143,0.0,0.0415,0.1405,0.1669,0.0,0.0,0.0,0.0,0.5726,0.5779,0.6655,0.8499,0.8201,0.8354,0.0,0.0,0.0,0.0,0.0,0.0,0.0,0.0,0.0,1.2225,1.2278,0.0,1.2305,1.2305,1.2769,1.3462,1.3644,1.4692,1.614,1.6489,1.6593,1.6715,1.751,1.7872,1.8008,1.8008,1.8008,1.8008,1.8008,1.8008,1.8008,1.8008,1.8008,1.8086,1.8403,1.8227,1.8105,1.8422,1.8227,1.8008,1.8008,1.8008,1.8008,1.8008,0.0,0.0,0.0,0.0,0.0,0.0,0.0,0.0,0.0,0.0,0.0,0.0,0.0,0.0,0.0,0.0,0.0,0.0,0.0,0.0,0.0,2.1714,0.0,0.0,0.0,2.2441,2.3555,2.2852,2.2652,2.2984,2.2984,2.2945,2.2867,2.2867,2.2925,2.2984,2.2984,2.3023,2.3101,2.3101,2.3101,2.3101,2.3101,2.3101,2.3101,0.0,0.0,0.0,0.0,0.0,0.0,0.0,-0.1753,0.0,-0.0147,-0.0583,-0.0722,-0.0048,0.0,0.0506,0.1685,0.2383,0.3291,0.4555,0.5296,0.5988,0.6685,0.7227,0.0,0.8896,0.9192,0.9622,1.0171,0.0,0.0,0.0,0.0,0.0,0.0,0.0,1.2171,0.0,0.0,0.0,1.2342,1.2842,1.3317,1.381,1.4835,1.579,1.6698,1.7372,1.7489,1.7389,1.7872,1.8008,1.8008,1.8008,1.8008,1.8008,1.8008,1.8008,1.8066,1.8247,1.8305,1.8542,1.952,1.9019,1.8483,1.9202,1.868,1.8008,1.8008,1.8008,1.8086,1.8266,1.8516,0.0,0.0,0.0,0.0,0.0,0.0,0.0,0.0,0.0,0.0,0.0,0.0,0.0,0.0,0.0,0.0,0.0,0.0,0.0,0.0,0.0,0.0,0.0,0.0,0.0,2.4321,2.3288,2.2906,2.3101,2.3101,2.3101,2.3101,2.3101,2.3101,2.3101,2.3101,2.3101,2.3101,2.3101,2.3101,2.3101,2.3101,2.3656,2.4317,0.0,-0.5181,0.0,0.0,-0.2318,0.0,-0.1421,-0.0598,0.0,0.0,0.0,0.0,0.0,0.0,0.0506,0.1707,0.2894,0.4137,0.5486,0.6709,0.7428,0.7543,0.8558,0.9099,0.9139,1.0163,1.0781,0.0,0.0,0.0,0.0,0.0,0.0,0.0,0.0,0.0,0.0,0.0,1.2305,1.2378,1.3317,1.381,1.4207,1.6017,1.6788,1.7065,1.8293,1.8461,1.813,1.8242,1.8223,1.813,1.8242,1.8281,1.8281,1.8281,1.8281,1.8394,1.8918,1.9088,1.9344,2.0484,1.9848,1.9069,1.9658,1.8851,1.8008,1.8008,1.8086,1.8247,1.8656,1.9062,0.0,0.0,0.0,0.0,0.0,0.0,0.0,0.0,0.0,0.0,0.0,0.0,0.0,0.0,0.0,0.0,0.0,0.0,0.0,0.0,0.0,2.4105,2.3629,0.0,2.4594,0.0,2.3687,2.3101,2.3101,2.3101,2.3101,2.3101,2.3101,2.3101,2.3144,2.3343,2.3299,2.3144,2.3387,2.3359,2.3237,2.3237,2.4135,2.5207,0.0,0.0,0.0,0.0,0.0,0.0,0.0,-0.005,0.0,0.0,0.0,0.0,0.0,0.0,0.0499,0.1705,0.2894,0.4109,0.5329,0.6653,0.7426,0.7439,0.8495,0.9341,0.9869,1.0596,1.1252,0.0,0.0,0.0,0.0,0.0,0.0,0.0,0.0,0.0,0.0,1.2305,1.2305,1.2378,1.3317,1.4243,1.5204,1.6616,1.7448,1.7968,1.889,1.8945,1.8598,1.9043,1.8906,1.8617,1.9043,1.916,1.916,1.916,1.916,1.9397,2.0327,2.0596,2.0631,2.0779,2.0372,1.9761,1.8949,1.837,1.8008,1.8008,1.8286,1.8676,1.9141,1.9258,1.9414,0.0,0.0,0.0,0.0,0.0,0.0,0.0,0.0,0.0,0.0,0.0,0.0,0.0,0.0,0.0,0.0,0.0,0.0,2.184,0.0,2.457,2.4135,2.3559,2.3958,2.5351,2.3827,2.3101,2.3101,2.3101,2.3101,2.3101,2.3101,2.3101,2.3169,2.4211,2.4039,2.3212,2.4253,2.426,2.373,2.373,2.4075,2.4552,0.0,0.0,0.0,0.0,0.0,0.0,0.0,0.0,0.0251,0.0994,0.0441,0.0,0.0,0.0,0.0775,0.2716,0.332,0.4417,0.6296,0.693,0.7231,0.7231,0.8987,1.0091,1.0356,1.1483,1.2286,0.0,0.0,0.0,0.0,0.0,0.0,0.0,0.0,1.2622,1.3135,1.3135,1.3135,1.328,1.4816,1.5702,1.6158,1.7265,1.7801,1.8125,1.8984,1.9004,1.8754,1.9727,1.959,1.9004,1.8926,1.9082,1.9383,1.9692,1.9991,2.0472,2.1724,2.2059,2.2059,2.2059,2.1266,2.0338,1.9651,1.8714,1.8008,1.8008,1.8555,1.916,1.959,1.9883,2.0155,0.0,0.0,0.0,0.0,0.0,0.0,0.0,0.0,0.0,0.0,0.0,0.0,0.0,0.0,0.0,0.0,0.0,0.0,2.1518,0.0,2.4237,2.3777,2.4011,2.4421,2.5038,2.3727,2.3101,2.3101,2.3101,2.3101,2.3101,2.3101,2.3101,2.3164,2.3883,2.3958,2.3599,2.4282,2.4391,2.4251,2.5047,2.5538,2.6059,-0.2163,0.0,-0.1091,0.0,0.0,0.0,0.0,0.03,0.0845,0.1706,0.1354,0.1056,0.1048,0.1069,0.173,0.3471,0.3965,0.4893,0.6473,0.6961,0.7146,0.7098,0.9357,0.0,1.0472,1.2058,1.2906,1.2946,1.2305,0.0,0.0,0.0,0.0,0.0,1.3448,1.352,1.4135,1.4135,1.4135,1.4279,1.5948,1.6611,1.6715,1.7781,1.8091,1.8125,1.8984,1.9004,1.8773,1.998,2.0018,1.9434,1.9258,1.9414,1.9811,2.0481,2.0892,2.1517,2.3099,2.3532,2.337,2.2828,2.1932,2.0912,1.9768,1.8717,1.8086,1.834,1.8867,1.9453,2.0,2.039,2.0644,2.0781,0.0,0.0,0.0,0.0,0.0,0.0,0.0,1.9899,2.0369,0.0,0.0,0.0,0.0,0.0,0.0,0.0,0.0,0.0,0.0,0.0,0.0,2.4597,2.4957,2.5294,2.38,2.3101,2.3101,2.3101,2.3101,2.3101,2.3237,2.332,2.3359,2.4148,2.4281,2.4049,2.4663,2.4769,2.4702,2.563,2.6192,2.6698,-0.2012,-0.0958,0.0,0.0,0.0,0.0,0.0,0.103,0.1802,0.1813,0.2803,0.3575,0.355,0.3569,0.3557,0.3582,0.4835,0.5526,0.5408,0.6647,0.7299,0.0,0.0,1.0472,1.0208,1.2168,1.2906,1.2318,0.0,0.0,1.2931,0.0,1.4843,1.5171,1.5155,1.5155,1.5171,1.5171,1.5171,1.5261,1.621,1.6593,1.6751,1.8088,1.8344,1.8125,1.8984,1.9004,1.8734,1.9592,1.9922,1.998,2.0449,2.0586,2.0779,2.1714,2.1979,2.243,2.4433,2.4957,2.4543,2.2662,2.2207,2.1459,1.8662,1.8008,1.8242,1.9102,1.9277,1.9551,2.0449,2.0605,2.0742,2.1112,0.0,0.0,0.0,0.0,0.0,0.0,1.9531,1.9461,1.9885,0.0,0.0,0.0,0.0,0.0,0.0,0.0,0.0,2.1941,2.3892,0.0,2.5761,2.5142,2.5378,2.6442,2.4188,2.3101,2.3101,2.3101,2.3101,2.312,2.3594,2.3789,2.3898,2.5443,2.5401,2.4506,2.5628,2.5666,2.5106,2.5106,2.5399,2.5781,-0.0656,-0.0303,0.0,0.0,0.0,0.0297,0.108,0.1551,0.2383,0.4057,0.4577,0.5141,0.5918,0.454,0.3939,0.0,0.5299,0.5928,0.0,0.7158,0.7702,0.8446,0.9814,1.0919,1.1612,1.2848,1.3373,1.3174,0.0,0.0,0.0,1.487,1.5425,1.614,1.5473,1.5544,1.614,1.614,1.614,1.6245,1.7182,1.7697,1.798,1.8123,1.8266,1.8442,1.8715,1.8715,1.8734,1.9629,1.9922,1.998,2.0468,2.0605,2.074,2.142,2.2268,2.3305,2.4636,2.521,2.4886,2.2742,2.1936,2.1007,1.8568,1.8188,1.8637,1.9531,1.9707,1.998,2.0859,2.1016,2.1172,2.1602,2.1309,0.0,0.0,0.0,0.0,0.0,1.9259,1.9768,0.0,2.1237,0.0,0.0,0.0,0.0,0.0,0.0,0.0,0.0,2.4119,0.0,2.4732,2.4766,2.4595,2.4188,2.343,2.3101,2.3101,2.3437,2.3574,2.3613,2.4043,2.4219,2.4258,2.5086,2.5172,2.493,2.5575,2.5678,2.5643,2.6769,2.6749,2.6379,0.0,0.0,0.0,0.0,0.0,0.0445,0.1667,0.2214,0.3208,0.5221,0.581,0.6296,0.7017,0.5841,0.0,0.6098,0.6265,0.6663,0.7409,0.7862,0.8421,0.9066,1.0465,1.1552,1.2279,0.0,0.0,1.4238,1.4981,1.5445,1.572,1.6088,1.6541,1.7113,1.6507,1.6576,1.7148,1.7148,1.7148,1.7182,1.775,1.8227,1.8578,1.8305,1.8481,1.8851,1.8851,1.8851,1.8948,1.9687,1.9922,1.998,2.0468,2.0605,2.074,2.1404,2.2511,2.3708,2.4743,2.5064,2.4642,2.2697,2.1553,2.0439,1.8645,1.8574,1.9082,1.9766,2.0039,2.0371,2.1054,2.1327,2.1621,2.2051,2.158,2.0995,2.045,0.0,0.0,0.0,0.0,0.0,0.0,2.1272,0.0,0.0,0.0,0.0,0.0,0.0,0.0,2.4259,2.505,0.0,2.5072,2.5311,2.4935,2.3974,2.3713,2.3569,2.3588,2.3906,2.4023,2.4043,2.4473,2.4668,2.4687,2.5137,2.5312,2.5371,2.5801,2.5977,2.6133,2.7319,2.7282,2.678,0.0,0.0,0.0,0.0,0.0101,0.0,0.1909,0.3026,0.4238,0.5542,0.6526,0.7125,0.7125,0.7299,0.7439,0.7446,0.0,0.0,0.0,0.8699,0.9296,0.9362,1.125,1.2322,1.2419,1.3208,1.4211,1.5332,1.6587,1.7008,1.6715,1.7579,1.8008,1.8008,1.8008,1.8008,1.8008,1.8047,1.8047,1.8047,1.8086,1.8305,1.8695,1.8656,1.8945,1.9336,1.9297,1.9297,1.9355,1.9766,1.9922,1.998,2.0468,2.0605,2.0779,2.1659,2.2616,2.3576,2.4481,2.4436,2.3789,2.2434,2.1063,1.9803,1.8887,1.9043,1.9453,1.9922,2.0332,2.0762,2.119,2.166,2.2051,2.2441,2.1775,2.121,2.1151,0.0,0.0,0.0,0.0,0.0,0.0,2.0703,2.1292,0.0,0.0,0.0,0.0,0.0,2.4354,2.4525,2.6348,2.7102,2.6524,2.6467,2.6104,2.5344,2.47,2.4414,2.4414,2.4453,2.4473,2.4492,2.4922,2.5165,2.5184,2.5566,2.5713,2.5771,2.623,2.6406,2.6484,2.6894,2.707,2.7129,0.0,0.0,0.0,0.0,0.0847,0.1909,0.3068,0.4375,0.5696,0.6838,0.7257,0.7489,0.7489,0.7522,0.759,0.7699,0.7645,0.8063,0.9219,0.92,1.0031,1.201,1.222,1.2717,1.3646,1.3889,1.4595,1.5822,1.6635,1.7275,1.7681,1.7906,1.8008,1.8008,1.8008,1.8008,1.8027,1.8325,1.8461,1.8481,1.8848,1.9238,1.957,1.9258,1.9394,1.9727,1.9394,1.9297,1.9355,1.9766,1.9922,1.998,2.0468,2.0605,2.0644,2.0857,2.1603,2.2328,2.2258,2.2408,2.2319,2.1363,2.0292,1.9489,1.9568,1.9687,1.998,2.0722,2.0956,2.1309,2.2029,2.2285,2.2402,2.25,2.207,2.1504,2.086,2.0488,0.0,0.0,2.0469,2.0878,2.0878,2.1073,2.165,0.0,0.0,0.0,0.0,2.4307,2.5316,2.771,2.6584,2.6101,2.6483,2.6282,2.5654,2.4623,2.4493,2.4414,2.4434,2.4766,2.4922,2.4941,2.5391,2.5586,2.5586,2.5635,2.5937,2.625,2.6348,2.6582,2.6914,2.7363,2.7519,2.7715,0.0,0.0504,0.0907,0.0907,0.2045,0.3303,0.4538,0.5317,0.6222,0.7443,0.759,0.7597,0.7597,0.7658,0.7965,0.866,0.864,0.8989,0.9833,1.051,1.1504,1.2916,1.3095,1.3421,1.4082,1.4573,1.5579,1.7068,1.7496,1.7899,1.8266,1.8105,1.8008,1.8008,1.8008,1.8091,1.8286,1.85,1.8715,1.8965,1.9199,1.9531,1.9883,1.9668,1.9844,2.0176,1.9961,1.9863,1.994,2.0137,2.0215,2.0254,2.0527,2.0605,2.0605,2.0605,2.126,2.1937,2.1723,2.1688,2.146,2.038,1.9853,1.9629,1.9863,2.0196,2.0625,2.1093,2.1502,2.1912,2.2422,2.2676,2.2676,2.2285,2.2031,2.1504,2.041,2.0468,0.0,2.0234,2.0996,2.1523,2.1523,2.1834,2.2426,2.3302,0.0,0.0,2.4772,2.5265,2.6063,2.725,2.6572,2.6195,2.6303,2.5882,2.5358,2.4727,2.5117,2.5312,2.5332,2.5566,2.5664,2.5684,2.5723,2.5693,2.5693,2.5693,2.5996,2.6406,2.6602,2.6934,2.7467,2.8485,2.8906,2.9082,0.0252,0.121,0.2063,0.2264,0.3416,0.4664,0.5807,0.6082,0.6511,0.7669,0.7726,0.7665,0.7665,0.7966,0.8609,0.9709,1.0179,1.0434,1.0529,1.2081,1.3062,1.329,1.3814,1.4108,1.4148,1.5282,1.6645,1.8285,1.8558,1.8695,1.8695,1.8379,1.8164,1.8105,1.8105,1.8266,1.8598,1.8676,1.8984,1.9394,1.9453,1.9687,2.0019,2.0019,2.0234,2.0605,2.0605,2.0605,2.0605,2.0605,2.0605,2.0605,2.0605,2.0722,2.0799,2.0722,2.132,2.1941,2.1728,2.1437,2.0843,1.949,1.9634,2.0041,1.9869,2.0624,2.1307,2.1366,2.197,2.2539,2.2598,2.2847,2.2847,2.2109,2.1973,2.1543,2.0293,0.0,2.0879,2.0801,2.1543,2.2109,2.2168,2.2695,2.3265,2.3885,2.5385,2.6225,0.0,2.6674,2.6563,2.5667,2.6389,2.6539,2.6061,2.5418,2.5184,2.5321,2.6035,2.6426,2.6484,2.6484,2.6484,2.6465,2.6094,2.5888,2.5888,2.5888,2.6191,2.6621,2.6973,2.7383,2.8003,2.9683,3.0307,3.0535,0.146,0.1861,0.2364,0.3516,0.4822,0.5743,0.5801,0.6891,0.771,0.7779,0.7902,0.7921,0.7921,0.8962,0.9755,0.9951,1.1986,1.316,1.2897,1.2836,1.3375,1.4623,1.4316,1.4202,1.4442,1.5807,1.7114,1.8285,1.8898,1.918,1.918,1.9121,1.8887,1.85,1.85,1.8539,1.8617,1.9023,1.9434,1.9844,2.0253,2.0449,2.0507,2.0507,2.0546,2.0605,2.0605,2.0605,2.0605,2.0605,2.0605,2.0605,2.0605,2.1145,2.1703,2.1253,2.1524,2.1728,2.0552,2.0187,1.9845,1.8748,1.9751,2.0777,1.9857,2.0778,2.1894,2.2246,2.2422,2.2617,2.2925,2.3042,2.2945,2.25,2.2422,2.209,2.1112,0.0,2.207,2.1719,2.2422,2.3086,2.3457,2.2949,2.3487,2.5713,2.5445,2.5955,2.7644,2.6911,2.6525,2.6655,2.5849,2.553,2.5768,2.531,2.5497,2.6191,2.6328,2.6582,2.6914,2.6914,2.6914,2.6914,2.6855,2.6816,2.6816,2.6816,2.707,2.7532,2.7591,2.7832,2.8363,2.9786,3.0307,3.0733,0.2964,0.3466,0.4117,0.4922,0.6176,0.7062,0.7002,0.7545,0.7968,0.7894,0.7948,0.8287,0.9023,0.9608,1.0583,1.1989,1.3199,1.4052,1.4465,1.4292,1.4424,1.4963,1.4549,1.4851,1.5977,1.6453,1.7618,1.9542,1.9387,1.9297,1.9297,1.9297,1.9062,1.8617,1.8851,1.9121,1.9299,1.9531,1.9883,2.0273,2.0527,2.0605,2.0605,2.0605,2.0605,2.0605,2.0605,2.0605,2.0605,2.0605,2.0605,2.0683,2.1183,2.1883,2.2419,2.2103,2.1806,2.1271,1.9811,1.9517,1.935,1.8313,1.8813,1.9441,1.8962,2.0081,2.1296,2.1483,2.2246,2.2867,2.3062,2.3101,2.2886,2.2285,2.2363,0.0,0.0,2.2126,2.2793,2.2598,2.332,2.3906,2.4102,2.4375,2.5282,2.7041,2.7428,2.7702,2.8004,2.7701,2.7065,2.5979,2.5579,2.5527,2.5693,2.5527,2.5742,2.6387,2.6621,2.6953,2.7363,2.7363,2.7363,2.7344,2.7109,2.7012,2.7012,2.7012,2.7266,2.7728,2.7728,2.793,2.8441,2.9807,3.0475,3.0989,0.4418,0.5022,0.5722,0.6381,0.7335,0.7988,0.7988,0.7988,0.7988,0.7988,0.8287,0.8874,0.9903,1.0534,1.1697,1.3728,1.4172,1.4659,1.5418,1.5498,1.5364,1.5115,1.5096,1.5863,1.7401,1.7386,1.8447,2.0605,1.994,1.959,1.959,1.959,1.9355,1.8909,1.9277,1.9609,1.9922,1.9922,2.0176,2.0605,2.0605,2.0605,2.0605,2.0605,2.0664,2.0742,2.0644,2.0664,2.0742,2.0644,2.0858,2.1287,2.1977,2.2943,2.3715,2.3495,2.2709,2.1527,1.9699,1.9362,1.9206,1.7884,1.7932,1.8278,1.8017,1.9477,2.0851,2.0851,2.212,2.3257,2.3257,2.3335,2.3184,2.2441,0.0,0.0,0.0,2.2652,2.3398,2.332,2.3965,2.4453,2.4551,2.5351,2.6391,2.7722,2.8601,2.8861,2.8253,2.8321,2.7583,2.5924,2.575,2.5879,2.6298,2.6346,2.6625,2.7162,2.75,2.7693,2.7812,2.7812,2.7812,2.7845,2.7461,2.7305,2.7305,2.7305,2.7519,2.7812,2.7812,2.8066,2.8598,2.9972,3.0769,3.1349,0.5627,0.5927,0.6381,0.764,0.7939,0.7988,0.7988,0.7988,0.7988,0.7988,0.9072,0.9903,1.0002,1.2183,1.368,1.3872,1.4997,1.5676,1.5758,1.5744,1.5671,1.5378,1.6392,1.7228,1.7737,1.8848,1.9783,2.0605,2.0546,2.0507,2.0507,2.0507,2.0234,1.9824,1.9844,1.9883,1.9922,1.9922,2.0176,2.0605,2.0605,2.0605,2.0605,2.0605,2.082,2.1093,2.0723,2.084,2.1093,2.0742,2.1543,2.2727,2.2805,2.4457,2.6221,2.5712,2.4827,2.3412,2.0676,1.9931,1.9424,1.7249,1.7718,1.8503,1.7476,1.9346,2.1248,2.1248,2.2598,2.375,2.375,2.4062,2.418,2.373,0.0,0.0,2.3081,2.3769,2.418,2.3789,2.4141,2.457,2.5028,2.4741,2.5378,2.7458,2.7306,2.7748,2.9238,2.8244,2.782,2.8166,2.658,2.6483,2.8181,2.8181,2.8621,2.945,2.9492,2.9075,2.8242,2.8242,2.8242,2.8242,2.8203,2.8203,2.8203,2.8203,2.8223,2.8242,2.8242,2.8496,2.9031,3.0446,3.1198,3.1801,0.7135,0.7235,0.7385,0.7889,0.7988,0.7988,0.7988,0.8726,0.9213,0.9213,1.0386,1.1502,1.2328,1.3295,1.422,1.4997,1.5534,1.5784,1.5784,1.5784,1.5698,1.5404,1.6122,1.6919,1.777,1.8731,1.9678,2.0605,2.0605,2.0468,2.0176,2.0468,2.0332,1.9922,2.0195,2.0312,2.0312,2.0312,2.0449,2.0605,2.0605,2.0605,2.0605,2.0605,2.0703,2.084,2.0937,2.1094,2.121,2.1348,2.225,2.3387,2.4015,2.5554,2.7055,2.6421,2.4954,2.2942,2.0404,1.9492,1.8754,1.6458,1.6384,1.6843,1.6425,1.8348,2.0229,2.0514,2.2308,2.3867,2.4141,2.4316,2.4355,2.4199,0.0,2.4297,2.3939,2.4641,2.5128,2.5019,2.5605,2.6094,2.625,2.6781,2.7359,2.795,2.8473,2.8976,2.9372,2.9291,2.9072,2.8768,2.8891,2.9327,3.0031,3.0031,2.9943,2.9686,2.9884,2.9373,2.8301,2.8301,2.89,2.9911,2.8794,2.8741,2.946,2.8654,2.8301,2.832,2.8574,2.8769,2.9,2.9804,3.0404,3.0842,0.7988,0.7988,0.7988,0.7988,0.8329,0.8627,0.8627,0.9756,1.0583,1.0583,1.1697,1.2861,1.3776,1.4268,1.4854,1.5737,1.5784,1.5784,1.5784,1.615,1.6289,1.6142,1.7158,1.8067,1.8693,1.9619,2.0413,2.1016,2.084,2.0625,2.0294,2.0488,2.0449,2.0137,2.0468,2.0605,2.0605,2.0605,2.0605,2.0625,2.0723,2.0781,2.0781,2.0957,2.1016,2.1036,2.1132,2.1288,2.1505,2.2008,2.3101,2.4396,2.5464,2.6667,2.7475,2.633,2.4851,2.3042,2.0251,1.9315,1.8505,1.6114,1.5953,1.6414,1.6558,1.852,2.0423,2.0781,2.2668,2.4316,2.4746,2.4824,2.4883,2.5019,2.5039,2.5039,2.5039,2.5664,2.6083,2.6083,2.666,2.7012,2.7012,2.7733,2.8143,2.7836,2.8994,2.973,2.9889,3.0384,3.0426,2.9876,3.1304,3.2073,3.2073,3.1913,3.154,3.0939,3.1158,3.0194,2.8301,2.8301,2.9006,3.0068,2.8847,2.8794,2.9618,2.8708,2.8379,2.8516,2.8809,2.9082,2.9355,2.9648,3.0039,3.041,0.7988,0.7988,0.7988,0.7988,0.9114,1.0002,1.0002,1.1121,1.1901,1.1901,1.3054,1.392,1.392,1.5045,1.5784,1.5784,1.5784,1.5784,1.5832,1.6998,1.7731,1.7731,2.0025,2.1103,2.0725,2.1883,2.2305,2.1894,2.1405,2.119,2.119,2.0781,2.0605,2.0605,2.0605,2.0605,2.0605,2.0605,2.0605,2.0664,2.1015,2.121,2.1249,2.1719,2.1894,2.1836,2.1366,2.1523,2.2022,2.2683,2.4194,2.5984,2.7128,2.7758,2.7643,2.5441,2.4787,2.4041,2.0459,1.9497,1.8902,1.6419,1.6763,1.7821,1.8231,2.0229,2.2134,2.2532,2.3947,2.5215,2.5615,2.5693,2.5849,2.6328,2.6387,2.6387,2.6387,2.6758,2.7031,2.7031,2.7031,2.7031,2.7031,2.7031,2.7031,2.7031,2.8266,2.9584,3.0923,3.1443,3.1712,3.1735,3.3466,3.4434,3.4385,3.3958,3.3694,3.3677,3.3677,3.1774,2.8301,2.8301,2.8281,2.8301,2.8301,2.8301,2.8281,2.8301,2.8535,2.8926,2.8926,2.9453,3.0195,3.0195,3.0488,3.0898,0.7988,0.7988,0.8287,0.9213,0.9756,1.0288,1.1219,1.2474,1.3295,1.3295,1.4411,1.5248,1.5248,1.5581,1.5784,1.5784,1.5784,1.6197,1.7077,1.8272,1.936,2.0178,2.0634,2.0833,2.0706,2.1598,2.2012,2.1894,2.1758,2.1543,2.119,2.1094,2.0859,2.0605,2.0605,2.0781,2.1035,2.1035,2.1211,2.1504,2.1641,2.1699,2.1699,2.1836,2.1894,2.1914,2.207,2.2207,2.2386,2.2881,2.3969,2.5288,2.6441,2.6349,2.565,2.4999,2.4211,2.3193,2.1302,2.0747,2.0161,1.7716,1.7404,1.8039,1.9303,2.0835,2.216,2.2876,2.4334,2.5664,2.6113,2.6426,2.668,2.6816,2.6836,2.6836,2.6836,2.7207,2.748,2.748,2.7734,2.791,2.791,2.791,2.7793,2.75,2.9231,3.0692,3.1416,3.3291,3.415,3.3637,3.5041,3.5379,3.4434,3.4268,3.3707,3.2733,3.2079,3.0566,2.8301,2.8301,2.9006,3.012,2.8847,2.8847,2.9618,2.8708,2.8535,2.8945,2.9258,2.9707,3.0234,3.0566,3.0762,3.0898,0.8676,0.8775,0.9213,1.0534,1.1209,1.1794,1.2571,1.3836,1.4651,1.4651,1.5343,1.5784,1.5784,1.5784,1.5784,1.5784,1.6244,1.6904,1.7638,1.9268,2.0522,2.1257,2.1526,2.1677,2.1677,2.2159,2.2383,2.2383,2.2227,2.1992,2.1697,2.1562,2.1348,2.1134,2.1134,2.123,2.1504,2.1504,2.1641,2.1894,2.207,2.2129,2.2148,2.2324,2.2285,2.2168,2.2422,2.2519,2.2582,2.3288,2.4407,2.5504,2.5755,2.5336,2.4702,2.4253,2.3627,2.2818,2.1614,2.1302,2.0979,1.9724,1.9404,1.9687,2.0832,2.2229,2.3439,2.4309,2.5293,2.6172,2.6777,2.6953,2.7129,2.7461,2.7383,2.7324,2.75,2.7754,2.791,2.791,2.8144,2.8301,2.8301,2.8794,2.9443,3.0287,3.1538,3.2688,3.3524,3.4533,3.4607,3.3601,3.4921,3.4969,3.3552,3.3552,3.2955,3.1774,3.1265,3.0068,2.8301,2.8301,2.89,2.9859,2.8794,2.8741,2.946,2.8654,2.8652,2.9199,2.9473,2.9941,3.0508,3.0781,3.0898,3.0898,0.9756,1.01,1.0583,1.1853,1.3102,1.392,1.4064,1.5045,1.5784,1.5784,1.5784,1.5784,1.5784,1.5784,1.5784,1.5784,1.6983,1.7824,1.801,2.007,2.1346,2.148,2.2492,2.3101,2.3101,2.3101,2.3101,2.3101,2.2711,2.2539,2.25,2.2129,2.1914,2.1894,2.1894,2.1914,2.1934,2.1934,2.1973,2.2031,2.2422,2.2559,2.2617,2.2945,2.2847,2.2559,2.2559,2.2559,2.2729,2.3742,2.5035,2.6005,2.4957,2.466,2.4447,2.3387,2.3101,2.2862,2.1802,2.1535,2.1626,2.2108,2.2254,2.2363,2.2727,2.4032,2.5419,2.6211,2.6445,2.6738,2.7571,2.7383,2.7383,2.8164,2.7969,2.7851,2.8242,2.8301,2.8301,2.8301,2.8301,2.8301,2.8301,2.9513,3.144,3.419,3.4385,3.4921,3.6168,3.5066,3.3773,3.2331,3.3674,3.3723,3.2331,3.228,3.1876,3.1111,3.0876,2.9911,2.8301,2.8301,2.832,2.834,2.832,2.834,2.8398,2.8359,2.8848,2.9629,2.9629,3.0137,3.0898,3.0898,3.0898,3.0898,0.9953,1.0779,1.1901,1.3247,1.3728,1.422,1.5248,1.5629,1.5784,1.5784,1.5784,1.5784,1.5784,1.5784,1.5784,1.5784,1.7264,1.881,2.0432,2.1033,2.1702,2.2668,2.295,2.3101,2.3101,2.3101,2.3101,2.3101,2.3003,2.2789,2.2519,2.2422,2.2207,2.1894,2.1894,2.207,2.2383,2.2383,2.2559,2.2828,2.2925,2.2964,2.2964,2.3062,2.3042,2.2964,2.2964,2.2964,2.3008,2.3248,2.3567,2.38,2.356,2.3474,2.343,2.3169,2.3101,2.3115,2.3223,2.3275,2.3371,2.3794,2.4159,2.4476,2.4525,2.5082,2.5742,2.6269,2.6914,2.7493,2.7689,2.7851,2.8086,2.8262,2.8223,2.8184,2.8281,2.8301,2.8301,2.8301,2.8301,2.8301,2.8301,2.9513,3.144,3.419,3.4385,3.4532,3.4824,3.4581,3.3773,3.2331,3.3674,3.3723,3.2331,3.228,3.218,3.1977,2.9911,2.8708,2.8301,2.8301,2.8476,2.8769,2.8437,2.8672,2.9277,2.8926,2.9277,3.0059,3.0059,3.041,3.0898,3.0898,3.0898,3.0898,1.1745,1.2425,1.3247,1.4555,1.4806,1.5045,1.5689,1.5784,1.5784,1.5784,1.5784,1.5784,1.5784,1.5784,1.6449,1.8055,1.8955,2.0065,2.1545,2.1965,2.2448,2.3057,2.3101,2.3101,2.3101,2.3101,2.3101,2.3101,2.3101,2.2984,2.2812,2.2812,2.2652,2.248,2.248,2.2598,2.2812,2.2812,2.2906,2.3101,2.3101,2.3101,2.3101,2.3101,2.3101,2.3101,2.3101,2.3101,2.3101,2.3101,2.3101,2.3101,2.3101,2.3101,2.3101,2.3101,2.3101,2.3198,2.3672,2.3789,2.3945,2.457,2.5059,2.5391,2.5391,2.5723,2.623,2.6855,2.7395,2.7787,2.793,2.8144,2.8301,2.8301,2.8301,2.8301,2.8301,2.8301,2.8301,2.8301,2.8847,2.9775,3.1081,3.1847,3.2855,3.4288,3.4385,3.4141,3.3403,3.2805,3.2101,3.1367,3.2705,3.3055,3.228,3.228,3.228,3.228,2.9565,2.8301,2.8301,2.8301,2.8516,2.8906,2.8476,2.8769,2.9531,2.9101,2.9414,3.0195,3.0195,3.0488,3.0898,3.0898,3.0898,3.0898,1.368,1.4064,1.4555,1.5629,1.5784,1.5798,1.5899,1.5912,1.5925,1.5965,1.5904,1.5878,1.5878,1.5824,1.7194,2.0714,2.1206,2.1626,2.2282,2.2783,2.3101,2.3101,2.3101,2.3101,2.3101,2.3101,2.3101,2.3101,2.3101,2.3101,2.3101,2.3101,2.3101,2.3101,2.3101,2.3101,2.3101,2.3101,2.3101,2.3101,2.3101,2.3101,2.3101,2.3101,2.3101,2.3101,2.3101,2.3101,2.3101,2.3101,2.3101,2.3101,2.3101,2.3101,2.3101,2.3179,2.3198,2.3315,2.3867,2.4004,2.4219,2.5078,2.5566,2.583,2.5986,2.6348,2.6816,2.7571,2.7767,2.7871,2.8223,2.8301,2.8301,2.8301,2.8301,2.8301,2.8301,2.8301,2.8301,2.8301,2.9303,3.0927,3.3476,3.3723,3.3773,3.4019,3.4019,3.3403,3.2028,3.0927,3.0307,3.0307,3.1571,3.2431,3.2632,3.2632,3.2532,3.228,2.9807,2.8548,2.8301,2.8301,2.8555,2.9004,2.8496,2.8828,2.9648,2.9199,2.9492,3.0195,3.0293,3.0547,3.0898,3.0898,3.0898,3.0898,1.3872,1.4806,1.5581,1.5784,1.5784,1.5912,1.6179,1.6219,1.6299,1.6553,1.6433,1.6339,1.6339,1.6032,1.749,2.1624,2.3158,2.3782,2.3583,2.329,2.3101,2.3101,2.3101,2.3101,2.3101,2.3101,2.3101,2.3101,2.3101,2.3101,2.3101,2.3101,2.3101,2.3101,2.3101,2.3101,2.3101,2.3101,2.3101,2.3101,2.3101,2.3101,2.3101,2.3101,2.3101,2.3101,2.3101,2.3101,2.3101,2.3101,2.3101,2.3101,2.3101,2.3101,2.3179,2.3594,2.3711,2.3867,2.4668,2.4949,2.5145,2.5996,2.625,2.6504,2.7226,2.7493,2.7571,2.7689,2.7949,2.8223,2.8281,2.8301,2.8301,2.8301,2.8301,2.8301,2.8301,2.8301,2.8301,2.8301,2.8441,2.9144,3.0721,3.0876,3.1338,3.2482,3.2582,3.1977,3.0618,3.0411,3.0307,3.0307,3.1571,3.2905,3.4068,3.4117,3.3502,3.228,3.0773,2.9408,2.8301,2.8301,2.873,2.9434,2.8633,2.8984,3.0078,2.9648,2.9766,3.0234,3.0644,3.084,3.0898,3.0898,3.0898,3.0898,1.4949,1.5569,1.6072,1.6072,1.6206,1.6366,1.65,1.6513,1.6567,1.6687,1.6727,1.674,1.674,1.8137,2.0475,2.3858,2.4497,2.4629,2.4512,2.4102,2.375,2.3516,2.3496,2.3379,2.3101,2.3101,2.3101,2.3101,2.3101,2.3101,2.3101,2.3101,2.3101,2.3101,2.3101,2.3101,2.3101,2.3101,2.3101,2.3101,2.3101,2.3101,2.3101,2.3101,2.3101,2.3101,2.3101,2.3101,2.3101,2.3101,2.3257,2.3496,2.3496,2.3672,2.3887,2.4082,2.4141,2.4277,2.4902,2.5106,2.5321,2.6172,2.6562,2.6894,2.7519,2.7851,2.8008,2.8008,2.8164,2.8301,2.8301,2.8301,2.8301,2.8301,2.8301,2.8301,2.8301,2.8301,2.8601,2.9303,2.9408,2.9964,3.1286,3.1418,3.1367,3.1162,3.1421,3.0968,2.9561,2.9749,3.0302,3.1084,3.2118,3.3366,3.4839,3.3741,3.2905,3.228,3.0423,2.9086,2.8301,2.8301,2.8633,2.918,2.8555,2.8887,2.9824,2.9648,2.9824,3.0234,3.0703,3.0898,3.0898,3.0898,3.0898,3.0898]},{"header":{"parameterUnit":"m.s-1","parameterCategory":1,"la1":30.6,"la2":28.766,"lo1":-90.7593,"lo2":-88.6598,"dy":0.0162,"dx":0.0183,"nx":116,"ny":114,"refTime":"2023-11-04T18:00:00:Z","depth":0,"parameterNumber":3,"parameterNumberName":"V-component_of_WINDS"},"data":[0.0,0.0,0.0,0.0,0.0,0.0,0.0,0.0,0.0,0.0,0.0,0.0,0.0,0.0,0.0,0.0,0.0,0.0,0.0,0.0,0.0,0.0,0.0,0.0,0.0,0.0,0.0,0.0,0.0,0.0,0.0,0.0,0.0,0.0,0.0,0.0,0.0,0.0,0.0,0.0,0.0,0.0,0.0,0.0,0.0,0.0,0.0,0.0,0.0,0.0,0.0,0.0,0.0,0.0,0.0,0.0,0.0,0.0,0.0,0.0,0.0,0.0,0.0,0.0,0.0,0.0,0.0,0.0,0.0,0.0,0.0,0.0,0.0,0.0,0.0,0.0,0.0,0.0,0.0,0.0,0.0,0.0,0.0,0.0,0.0,0.0,0.0,0.0,0.0,0.0,0.0,0.0,0.0,0.0,0.0,0.0,0.0,0.0,0.0,0.0,0.0,0.0,0.0,0.0,0.0,0.0,0.0,0.0,0.0,0.0,0.0,0.0,0.0,0.0,0.0,0.0,0.0,0.0,0.0,0.0,0.0,0.0,0.0,0.0,0.0,0.0,0.0,0.0,0.0,0.0,0.0,0.0,0.0,0.0,0.0,0.0,0.0,0.0,0.0,0.0,0.0,0.0,0.0,0.0,0.0,0.0,0.0,0.0,0.0,0.0,0.0,0.0,0.0,0.0,0.0,0.0,0.0,0.0,0.0,0.0,0.0,0.0,0.0,0.0,0.0,0.0,0.0,0.0,0.0,0.0,0.0,0.0,0.0,0.0,0.0,0.0,0.0,0.0,0.0,0.0,0.0,0.0,0.0,0.0,0.0,0.0,0.0,0.0,0.0,0.0,0.0,0.0,0.0,0.0,0.0,0.0,0.0,0.0,0.0,0.0,0.0,0.0,0.0,0.0,0.0,0.0,0.0,0.0,0.0,0.0,0.0,0.0,0.0,0.0,0.0,0.0,0.0,0.0,0.0,0.0,0.0,0.0,0.0,0.0,0.0,0.0,0.0,0.0,0.0,0.0,0.0,0.0,0.0,0.0,0.0,0.0,0.0,0.0,0.0,0.0,0.0,0.0,0.0,0.0,0.0,0.0,0.0,0.0,0.0,0.0,0.0,0.0,0.0,0.0,0.0,0.0,0.0,0.0,0.0,0.0,0.0,0.0,0.0,0.0,0.0,0.0,0.0,0.0,0.0,0.0,0.0,0.0,0.0,0.0,0.0,0.0,0.0,0.0,0.0,0.0,0.0,0.0,0.0,0.0,0.0,0.0,0.0,0.0,0.0,0.0,0.0,0.0,0.0,0.0,0.0,0.0,0.0,0.0,0.0,0.0,0.0,0.0,0.0,0.0,0.0,0.0,0.0,0.0,0.0,0.0,0.0,0.0,0.0,0.0,0.0,0.0,0.0,0.0,0.0,0.0,0.0,0.0,0.0,0.0,0.0,0.0,0.0,0.0,0.0,0.0,0.0,0.0,0.0,0.0,0.0,0.0,0.0,0.0,0.0,0.0,0.0,0.0,0.0,0.0,0.0,0.0,0.0,0.0,0.0,0.0,0.0,0.0,0.0,0.0,0.0,0.0,0.0,0.0,0.0,0.0,0.0,0.0,0.0,0.0,0.0,0.0,0.0,0.0,0.0,0.0,0.0,0.0,0.0,0.0,0.0,0.0,0.0,0.0,0.0,0.0,0.0,0.0,0.0,0.0,0.0,0.0,0.0,0.0,0.0,0.0,0.0,0.0,0.0,0.0,0.0,0.0,0.0,0.0,0.0,0.0,0.0,0.0,0.0,0.0,0.0,0.0,0.0,0.0,0.0,0.0,0.0,0.0,0.0,0.0,0.0,0.0,0.0,0.0,0.0,0.0,0.0,0.0,0.0,0.0,0.0,0.0,0.0,0.0,0.0,0.0,0.0,0.0,0.0,0.0,0.0,0.0,0.0,0.0,0.0,0.0,0.0,0.0,0.0,0.0,0.0,0.0,0.0,0.0,0.0,0.0,0.0,0.0,0.0,0.0,0.0,0.0,0.0,0.0,0.0,0.0,0.0,0.0,0.0,0.0,0.0,0.0,0.0,0.0,0.0,0.0,0.0,0.0,0.0,0.0,0.0,0.0,0.0,0.0,0.0,0.0,0.0,0.0,0.0,0.0,0.0,0.0,0.0,0.0,0.0,0.0,0.0,0.0,0.0,0.0,0.0,0.0,0.0,0.0,0.0,0.0,0.0,0.0,0.0,0.0,0.0,0.0,0.0,0.0,0.0,0.0,0.0,0.0,0.0,0.0,0.0,0.0,0.0,0.0,0.0,0.0,0.0,0.0,0.0,0.0,0.0,0.0,0.0,0.0,0.0,0.0,0.0,0.0,0.0,0.0,0.0,0.0,0.0,0.0,0.0,0.0,0.0,0.0,0.0,0.0,0.0,0.0,0.0,0.0,0.0,0.0,0.0,0.0,0.0,0.0,0.0,0.0,0.0,0.0,0.0,0.0,0.0,0.0,0.0,0.0,0.0,0.0,0.0,0.0,0.0,0.0,0.0,0.0,0.0,0.0,0.0,0.0,0.0,0.0,0.0,0.0,0.0,0.0,0.0,0.0,0.0,0.0,0.0,0.0,0.0,0.0,0.0,0.0,0.0,0.0,0.0,0.0,0.0,0.0,0.0,0.0,0.0,0.0,0.0,0.0,0.0,0.0,0.0,0.0,0.0,0.0,0.0,0.0,0.0,0.0,0.0,0.0,0.0,0.0,0.0,0.0,0.0,0.0,0.0,0.0,0.0,0.0,0.0,0.0,0.0,0.0,0.0,0.0,0.0,0.0,0.0,0.0,0.0,0.0,0.0,0.0,0.0,0.0,0.0,0.0,0.0,0.0,0.0,0.0,0.0,0.0,0.0,0.0,0.0,0.0,0.0,0.0,0.0,0.0,0.0,0.0,0.0,0.0,0.0,0.0,0.0,0.0,0.0,0.0,0.0,0.0,0.0,0.0,0.0,0.0,0.0,0.0,0.0,0.0,0.0,0.0,0.0,0.0,0.0,0.0,0.0,0.0,0.0,0.0,0.0,0.0,0.0,0.0,0.0,0.0,0.0,0.0,0.0,0.0,0.0,0.0,0.0,0.0,0.0,0.0,0.0,0.0,0.0,0.0,0.0,0.0,0.0,0.0,0.0,0.0,0.0,0.0,0.0,0.0,0.0,0.0,0.0,0.0,0.0,0.0,0.0,0.0,0.0,0.0,0.0,0.0,0.0,0.0,0.0,0.0,0.0,0.0,0.0,0.0,0.0,0.0,0.0,0.0,0.0,0.0,0.0,0.0,0.0,0.0,0.0,0.0,0.0,0.0,0.0,0.0,0.0,0.0,0.0,0.0,0.0,0.0,0.0,0.0,0.0,0.0,0.0,0.0,0.0,0.0,0.0,0.0,0.0,0.0,0.0,0.0,0.0,0.0,0.0,0.0,0.0,0.0,0.0,0.0,0.0,0.0,0.0,0.0,0.0,0.0,0.0,0.0,0.0,0.0,0.0,0.0,0.0,0.0,0.0,0.0,0.0,0.0,0.0,0.0,0.0,0.0,0.0,0.0,0.0,0.0,0.0,0.0,0.0,0.0,0.0,0.0,0.0,0.0,0.0,0.0,0.0,0.0,0.0,0.0,0.0,0.0,0.0,0.0,0.0,0.0,0.0,0.0,0.0,0.0,0.0,0.0,0.0,0.0,0.0,0.0,0.0,0.0,0.0,0.0,0.0,0.0,0.0,0.0,0.0,0.0,0.0,0.0,0.0,0.0,0.0,0.0,0.0,0.0,0.0,0.0,0.0,0.0,0.0,0.0,0.0,0.0,0.0,0.0,0.0,0.0,0.0,0.0,0.0,0.0,0.0,0.0,0.0,0.0,0.0,0.0,0.0,0.0,0.0,0.0,0.0,0.0,0.0,0.0,0.0,0.0,0.0,0.0,0.0,0.0,0.0,0.0,0.0,0.0,0.0,0.0,0.0,0.0,0.0,0.0,0.0,0.0,0.0,0.0,0.0,0.0,0.0,0.0,0.0,0.0,0.0,0.0,0.0,0.0,0.0,0.0,0.0,0.0,0.0,0.0,0.0,0.0,0.0,0.0,0.0,0.0,0.0,0.0,0.0,0.0,0.0,0.0,0.0,0.0,0.0,0.0,0.0,0.0,0.0,0.0,0.0,0.0,0.0,0.0,0.0,0.0,0.0,0.0,0.0,0.0,0.0,0.0,0.0,0.0,0.0,0.0,0.0,0.0,0.0,0.0,0.0,0.0,0.0,0.0,0.0,0.0,0.0,0.0,0.0,0.0,0.0,0.0,0.0,0.0,0.0,0.0,0.0,0.0,0.0,0.0,0.0,0.0,0.0,0.0,0.0,0.0,0.0,0.0,0.0,0.0,0.0,0.0,0.0,0.0,0.0,0.0,0.0,0.0,0.0,0.0,0.0,0.0,0.0,0.0,0.0,0.0,0.0,0.0,0.0,0.0,0.0,0.0,0.0,0.0,0.0,0.0,0.0,0.0,0.0,0.0,0.0,0.0,0.0,0.0,0.0,0.0,0.0,0.0,0.0,0.0,0.0,0.0,0.0,0.0,0.0,0.0,0.0,0.0,0.0,0.0,0.0,0.0,0.0,0.0,0.0,0.0,0.0,0.0,0.0,0.0,0.0,0.0,0.0,0.0,0.0,0.0,0.0,0.0,0.0,0.0,0.0,0.0,0.0,0.0,0.0,0.0,0.0,0.0,0.0,0.0,0.0,0.0,0.0,0.0,0.0,0.0,0.0,0.0,0.0,0.0,0.0,0.0,0.0,0.0,0.0,0.0,0.0,0.0,0.0,0.0,0.0,0.0,0.0,0.0,0.0,0.0,0.0,0.0,0.0,0.0,0.0,0.0,0.0,0.0,0.0,0.0,0.0,0.0,0.0,0.0,0.0,0.0,0.0,0.0,0.0,0.0,0.0,0.0,0.0,0.0,0.0,0.0,0.0,0.0,0.0,0.0,0.0,0.0,0.0,0.0,0.0,0.0,0.0,0.0,0.0,0.0,0.0,0.0,0.0,0.0,0.0,0.0,0.0,0.0,0.0,0.0,0.0,0.0,0.0,0.0,0.0,0.0,0.0,0.0,0.0,0.0,0.0,0.0,0.0,0.0,0.0,0.0,0.0,0.0,0.0,0.0,0.0,0.0,0.0,0.0,0.0,0.0,0.0,0.0,0.0,0.0,0.0,0.0,0.0,0.0,0.0,0.0,0.0,0.0,0.0,0.0,0.0,0.0,0.0,0.0,0.0,0.0,0.0,0.0,0.0,0.0,0.0,0.0,0.0,0.0,0.0,0.0,0.0,0.0,0.0,0.0,0.0,0.0,0.0,0.0,0.0,0.0,0.0,0.0,0.0,0.0,0.0,0.0,0.0,0.0,0.0,0.0,0.0,0.0,0.0,0.0,0.0,0.0,0.0,0.0,0.0,0.0,0.0,0.0,0.0,0.0,0.0,0.0,0.0,0.0,0.0,0.0,0.0,0.0,0.0,0.0,0.0,0.0,0.0,0.0,0.0,0.0,0.0,0.0,0.0,0.0,0.0,0.0,0.0,0.0,0.0,0.0,0.0,0.0,0.0,0.0,0.0,0.0,0.0,0.0,0.0,0.0,0.0,0.0,0.0,0.0,0.0,0.0,0.0,0.0,0.0,0.0,0.0,0.0,0.0,0.0,0.0,0.0,0.0,0.0,0.0,0.0,0.0,0.0,0.0,0.0,0.0,0.0,0.0,0.0,0.0,0.0,0.0,0.0,0.0,0.0,0.0,0.0,0.0,0.0,0.0,0.0,0.0,0.0,0.0,0.0,0.0,0.0,0.0,0.0,0.0,0.0,0.0,0.0,0.0,0.0,0.0,0.0,0.0,0.0,0.0,0.0,0.0,0.0,0.0,0.0,0.0,0.0,0.0,0.0,0.0,0.0,0.0,0.0,0.0,0.0,0.0,0.0,0.0,0.0,0.0,0.0,0.0,0.0,0.0,0.0,0.0,0.0,0.0,0.0,0.0,0.0,0.0,0.0,0.0,0.0,0.0,0.0,0.0,0.0,0.0,0.0,0.0,0.0,0.0,0.0,0.0,0.0,0.4328,0.0,0.0,0.0,0.0,0.0,0.0,0.0,0.0,0.0,0.0,0.0,0.0,0.0,0.0,0.0,0.0,0.0,0.0,0.0,0.0,0.0,0.0,0.0,0.0,0.0,0.0,0.0,0.0,0.0,0.0,0.0,0.0,0.0,0.0,0.0,0.0,0.0,0.0,0.0,0.1352,0.0786,0.0626,0.1015,0.0957,0.0519,0.0,0.0,0.0,0.0,0.0,0.0,0.0,0.0,0.0,0.0,0.0,0.0,0.0,0.0,0.0,0.0,0.0,0.0,0.0,0.0,0.0,0.0,0.0,0.0,0.0,0.0,0.0,0.0,0.0,0.0,0.0,0.0,0.0,0.0,0.0,0.0,0.0,0.0,0.0,0.0,0.0,0.0,0.0,0.0,0.0,0.0,0.0,0.0,0.0,0.0,0.0,0.0,0.0,0.0,0.0,0.0,0.0,0.0,0.0,0.0,0.0,0.0,0.0,0.0,0.0,0.0,0.0,0.0,0.0,0.0,0.0,0.6811,0.0,0.0,0.0,0.0,0.0,0.0,0.0,0.0,0.0,0.0,0.0,0.0,0.0,0.0,0.0,0.0,0.0,0.0,0.0,0.0,0.0,0.0,0.0,0.0,0.6379,0.4922,0.4216,0.3865,0.0,0.0,0.0,0.0,0.0,0.0,0.0,0.4034,0.3636,0.2899,0.223,0.1808,0.1598,0.2235,0.232,0.1919,0.1648,0.0,0.0,0.0,0.0,0.0,0.0,0.0,0.0,0.0,0.0,0.0,0.0,0.0,0.0,0.0,0.0,0.0,0.0,0.0,0.0,0.0,0.0,0.0,0.0,0.0,0.0,0.0,0.0,0.0,0.0,0.0,0.0,0.0,0.0,0.0,0.0,0.0,0.0,0.0,0.0,0.0,0.0,0.0,0.0,0.0,0.0,0.0,0.0,0.0,0.0,0.0,0.0,0.0,0.0,0.0,0.0,0.0,0.0,0.0,0.0,0.0,0.0,0.0,1.0662,1.1048,1.1337,1.1404,1.1382,1.1209,1.0684,1.0274,0.9904,0.0,0.0,0.0,0.0,0.0,0.0,0.0,0.0,0.0,0.0,0.0,0.0,0.0,0.0,0.0,0.0,0.0,0.0,0.0,0.0,0.0,0.0,0.8528,0.7868,0.6443,0.6226,0.6172,0.0,0.0,0.0,0.0,0.0,0.0,0.4628,0.4216,0.3636,0.2894,0.256,0.2512,0.2681,0.2672,0.3565,0.5119,0.3784,0.3515,0.4072,0.0,0.0,0.0,0.0,0.0,0.0,0.0,0.0,0.0,0.0,0.0,0.0,0.0,0.0,0.0,0.0,0.0,0.0,0.0,0.0,0.0,0.0,0.0,0.0,0.0,0.0,0.0,0.0,0.0,0.0,0.0,0.0,0.0,0.0,0.0,0.0,0.0,0.0,0.0,0.0,0.0,1.0843,1.0331,0.0,0.0,0.0,0.0,0.0,0.0,0.0,0.0,0.0,0.0,0.0,0.0,0.0,0.0,1.0083,1.1255,1.1781,1.1651,1.2472,1.2736,1.258,1.3114,1.3476,1.3777,1.4764,0.0,1.1049,1.0908,0.0,0.0,0.0,0.0,0.0,0.0,0.0,0.0,0.0,0.0,0.0,0.0,0.0,0.0,0.0,0.0,0.0,0.0,0.0,0.0,0.0,1.0181,0.9643,0.8803,0.8997,0.8731,0.7615,0.8161,0.0,0.0,0.0,0.6192,0.5672,0.489,0.404,0.3117,0.3532,0.3677,0.3549,0.4399,0.5395,0.6572,0.7231,0.7027,0.6089,0.5364,0.0,0.0,0.0,0.0,0.0,0.0,0.0,0.0,0.0,0.0,0.0,0.0,0.0,0.0,0.0,0.0,0.0,0.0,0.0,0.0,0.0,0.0,0.0,0.0,0.0,0.0,0.0,0.0,0.0,0.0,0.0,0.0,0.0,0.0,0.0,0.0,0.0,0.0,0.0,0.9298,1.093,1.0684,1.1324,1.1563,0.0,0.0,0.0,0.0,0.0,0.0,0.0,0.0,0.0,1.2671,1.2238,1.2054,1.2209,1.3535,1.4159,1.4069,1.5028,1.5376,1.5103,1.5106,1.5104,1.5152,1.6018,1.5294,1.3571,1.3784,1.3636,1.3041,0.0,0.0,0.0,0.0,0.8448,0.7952,0.0,0.0,0.0,0.0,0.0,0.0,0.0,0.0,0.0,0.0,0.0,0.0,1.2744,1.2343,1.1885,1.1383,1.1738,1.1177,0.9233,0.9864,0.0,0.0,0.0,0.7056,0.6461,0.5689,0.4932,0.4219,0.4933,0.515,0.4977,0.6352,0.7403,0.8225,1.0187,1.0171,0.8587,0.7879,0.7415,0.6987,0.0,0.0,0.0,0.0,0.0,0.0,0.0,0.0,0.0,0.0,0.0,0.0,0.0,0.0,0.0,0.0,0.0,0.0,0.0,0.0,0.0,0.0,0.0,0.0,0.0,0.0,0.0,0.0,0.0,0.0,0.0,0.0,0.0,0.0,0.0,0.0,0.0,0.9779,1.163,1.1393,1.296,1.3686,0.0,0.0,0.0,0.0,0.0,0.0,1.6222,1.5157,1.4898,1.5863,1.5028,1.4677,1.4864,1.5839,1.6273,1.6288,1.6976,1.7136,1.6834,1.6661,1.6421,1.6158,1.6703,1.6591,1.6016,1.6081,1.5282,1.395,1.2938,1.2042,1.1323,1.1135,1.0604,1.0128,0.0,0.0,0.0,0.0,0.0,0.0,0.0,0.0,0.0,0.0,0.0,1.473,1.5088,1.5088,1.473,1.3895,1.4011,1.3336,1.1454,1.1146,1.0366,0.8848,0.788,0.7144,0.6601,0.6422,0.6448,0.6719,0.6757,0.7032,0.7516,0.8245,0.94,1.0942,1.1684,1.1921,1.1722,1.1061,1.1076,1.1329,0.8446,0.0,0.0,0.0,0.0,0.0,0.0,0.0,0.0,0.0,0.0,0.0,0.0,0.0,0.0,0.0,0.0,0.0,0.0,0.0,0.0,0.0,0.0,0.0,0.0,0.0,0.0,0.0,0.0,0.0,0.0,0.0,0.0,0.0,0.0,0.0,0.0,0.0,0.0,1.3056,1.5924,0.0,0.0,0.0,0.0,1.6068,1.5977,1.681,1.8996,1.781,1.7812,1.9308,1.8701,1.8308,1.8324,1.8053,1.7904,1.7887,1.7499,1.7096,1.6717,1.7342,1.7384,1.6973,1.7647,1.792,1.7784,1.6582,1.5566,1.4718,1.4189,1.3961,1.3903,1.3887,1.323,1.2351,0.0,0.0,0.0,0.0,0.0,0.0,0.0,0.0,1.6849,1.6443,1.6041,1.5868,1.5989,1.6824,1.7093,1.6501,1.6941,1.6294,1.4044,1.3041,1.2006,1.0764,0.912,0.7863,0.706,0.8024,0.8198,0.7544,0.7979,0.8343,0.8609,0.9414,1.0427,1.1613,1.3016,1.4159,1.4944,1.3565,1.2695,1.2096,1.0656,0.9573,0.0,0.0,0.0,0.0,0.0,0.0,0.0,0.0,0.0,0.0,0.0,0.0,0.0,0.0,0.0,0.0,0.0,0.0,0.0,0.0,0.0,0.0,0.0,0.0,0.0,0.0,0.0,0.0,0.0,0.0,0.0,0.0,0.0,0.0,0.0,0.0,0.0,1.4509,1.6882,0.0,0.0,1.7237,1.775,1.8567,1.8823,1.9678,2.1268,2.0177,1.9858,2.0652,1.97,1.919,1.919,1.9256,1.9284,1.9267,1.9385,1.9171,1.8765,1.8751,1.8771,1.8869,1.886,1.8516,1.7943,1.7534,1.6809,1.5957,1.5206,1.4785,1.4543,1.4568,1.3773,1.2753,0.0,0.0,0.0,0.0,0.0,0.0,0.0,0.0,1.7918,1.7531,1.7372,1.7458,1.7824,1.8896,1.9344,1.877,1.9227,1.833,1.5436,1.4579,1.3429,1.1714,1.011,0.8901,0.8127,0.9386,0.9681,0.887,0.9526,0.9938,1.0189,1.1208,1.2117,1.2877,1.4538,1.5825,1.6678,1.5959,1.507,1.409,1.3195,1.2222,1.1032,0.0,0.0,0.0,0.0,0.0,0.0,0.0,0.0,0.0,0.0,0.0,0.0,0.0,0.0,0.0,0.0,0.0,0.0,0.0,0.0,0.0,0.0,0.0,0.0,0.0,0.0,0.0,0.0,0.0,0.0,0.0,0.0,0.0,0.0,0.0,1.61,1.6034,1.835,1.961,1.8737,1.9397,2.0138,2.0742,2.1191,2.1816,2.2676,2.1944,2.162,2.188,2.1123,2.0719,2.0719,2.0655,2.0652,2.0634,2.06,2.0445,2.0112,1.9869,1.9883,2.0133,1.9844,1.9297,1.8566,1.8446,1.7932,1.7114,1.5891,1.5165,1.4813,1.4562,1.3595,1.2448,0.0,0.0,0.0,0.0,0.0,0.0,0.0,2.0217,1.9606,1.9576,1.9324,1.9579,2.0739,2.1375,2.1421,2.0639,2.0661,1.9216,1.5622,1.5616,1.4475,1.1656,1.0905,1.0302,0.9796,1.0523,1.0914,1.0939,1.1513,1.1991,1.2345,1.3741,1.4562,1.4955,1.6246,1.6857,1.6978,1.8234,1.8363,1.7562,1.6144,1.4373,1.247,0.0,0.0,0.0,0.0,0.0,0.0,0.0,0.0,0.0,0.0,0.0,0.0,0.0,0.0,0.0,0.0,0.0,0.0,0.0,0.0,0.0,0.0,0.0,0.0,0.0,0.0,0.0,0.0,0.0,0.0,0.0,0.0,0.0,1.4741,1.7117,1.8619,1.7678,2.0499,2.1875,2.0214,2.1543,2.2519,2.2582,2.291,2.3101,2.3101,2.3101,2.3101,2.3101,2.3081,2.3081,2.3081,2.2327,2.1897,2.1897,2.1056,2.0627,2.0638,2.0603,2.0617,2.0655,2.0655,2.0299,1.97,1.9313,1.8798,1.8105,1.6168,1.524,1.4873,1.4115,1.2877,1.1634,0.0,0.0,0.0,0.0,0.0,0.0,0.0,2.0432,1.9848,1.9293,2.0102,2.0988,2.1733,2.2036,2.2117,2.1904,2.0329,1.8795,1.7492,1.5591,1.3736,1.2087,1.2962,1.3013,1.1898,1.302,1.359,1.3486,1.4153,1.4699,1.5174,1.5579,1.6175,1.6982,1.7345,1.8173,1.9284,1.9644,1.9733,1.9448,1.7672,1.6685,1.615,0.0,0.0,0.0,0.0,0.0,0.0,0.0,0.0,0.0,0.0,0.0,0.0,0.0,0.0,0.0,0.0,0.0,0.0,0.0,0.0,0.0,0.0,0.0,0.0,0.0,0.0,0.0,0.0,0.0,0.0,0.0,0.0,1.7108,1.7224,1.9165,2.0697,2.1063,2.2175,2.3054,2.3412,2.3125,2.3295,2.4111,2.3481,2.3101,2.3101,2.3101,2.3101,2.3101,2.2808,2.2633,2.2633,2.2534,2.2467,2.2467,2.1909,2.1629,2.1598,2.0921,2.0936,2.1534,2.1534,2.1049,2.0205,2.0094,1.9399,1.8243,1.6923,1.6364,1.6176,1.5235,1.444,1.3826,0.0,0.0,0.0,0.0,0.0,0.0,0.0,2.0834,2.0621,2.0116,2.105,2.1908,2.2257,2.2515,2.2413,2.1824,2.0784,1.9478,1.7843,1.6045,1.4824,1.4321,1.5148,1.5094,1.3939,1.505,1.5582,1.5507,1.6338,1.692,1.7217,1.749,1.8009,1.8673,1.892,1.9592,2.0581,2.0691,2.0931,2.1126,1.9898,1.9501,1.9629,1.9167,1.9188,1.9296,1.8069,1.7665,1.7442,1.5786,0.0,0.0,0.0,0.0,0.0,0.0,0.0,0.0,0.0,0.0,0.0,0.0,0.0,0.0,0.0,0.0,0.0,0.0,0.0,0.0,0.0,0.0,0.0,0.0,1.8652,2.02,2.1275,2.1551,2.1942,2.265,2.2955,2.3355,2.4033,2.4344,2.4681,2.504,2.445,2.4214,2.451,2.451,2.4317,2.3844,2.378,2.3431,2.2782,2.291,2.3289,2.3848,2.301,2.2592,2.2559,2.157,2.1574,0.0,2.2402,2.1898,2.1039,2.0737,1.9995,0.0,0.0,0.0,0.0,0.0,1.4612,1.4395,0.0,0.0,0.0,0.0,0.0,0.0,0.0,2.1288,2.1637,2.1441,2.2146,2.2651,2.2654,2.2932,2.2599,2.1263,2.1568,2.0528,1.7518,1.7069,1.7072,1.7395,1.7315,1.6817,1.5918,1.6665,1.7069,1.704,1.8114,1.8683,1.8761,1.9376,1.9885,2.0239,2.0718,2.107,2.1358,2.1572,2.1963,2.2357,2.2273,2.2397,2.2678,2.3009,2.347,2.388,2.3326,2.3114,2.2839,2.1177,0.0,0.0,0.0,0.0,0.0,0.0,0.0,0.0,0.0,0.0,0.0,0.0,0.0,0.0,0.0,0.0,0.0,0.0,0.0,0.0,0.0,0.0,0.0,0.0,2.1949,2.3798,2.5636,2.417,2.3021,2.3424,2.3576,2.3598,2.3659,2.5406,2.627,2.576,2.5596,2.5785,2.6356,0.0,0.0,0.0,0.0,2.4697,2.3392,2.3462,2.413,2.533,2.4209,2.3616,2.3513,2.2518,2.2438,2.3125,2.3039,2.2592,2.1871,2.1154,2.0445,1.961,1.7817,1.7539,1.78,1.5354,1.4403,1.4362,0.0,0.0,0.0,0.0,0.0,0.0,0.0,2.1606,2.2097,2.1461,2.3154,2.4347,2.4206,2.395,2.3522,2.2813,2.1551,2.0141,1.8639,1.9243,1.9358,1.8759,1.9108,1.8825,1.78,1.794,1.8034,1.8036,1.8936,1.9699,2.0275,2.1063,2.1649,2.2071,2.2173,2.2432,2.2818,2.284,2.2612,2.2238,2.3328,2.3974,2.4433,2.5905,2.6061,2.5478,2.5638,2.5682,2.5443,2.3809,2.3342,2.3189,2.1825,2.0425,0.0,0.0,0.0,0.0,0.0,0.0,0.0,0.0,0.0,0.0,0.0,0.0,0.0,0.0,0.0,0.0,0.0,0.0,0.0,2.2778,2.4018,2.5127,2.6192,2.6495,2.6368,2.5895,2.6359,2.6853,2.7111,2.6762,2.6789,2.7532,2.6762,2.6102,2.5617,2.5617,0.0,2.6183,2.4469,2.4033,2.4957,2.4508,2.4539,2.5087,0.0,0.0,2.4516,2.3484,2.3063,2.307,2.2657,2.2131,2.1549,2.097,2.0373,1.9734,1.8902,1.8132,1.7481,1.7344,1.7016,1.6643,0.0,0.0,0.0,0.0,0.0,0.0,0.0,2.163,2.2432,2.1997,2.3535,2.4465,2.3906,2.3412,2.2704,2.1651,2.0672,2.0288,2.0567,2.1028,2.1171,2.1015,2.1178,2.0907,2.0128,2.0438,2.0563,2.0436,2.1302,2.1845,2.2118,2.2424,2.2814,2.3234,2.3009,2.329,2.3905,2.3902,2.3555,2.313,2.402,2.4681,2.5208,2.6348,2.6449,2.6094,2.6989,2.7743,2.8119,2.7111,2.6441,2.5888,2.4703,2.3479,2.2069,0.0,0.0,0.0,0.0,0.0,0.0,0.0,0.0,0.0,0.0,0.0,0.0,0.0,0.0,2.0026,0.0,0.0,2.3326,2.5015,2.6039,2.7002,2.802,2.8481,2.8569,2.8208,2.849,2.8778,2.891,2.845,2.8371,2.891,2.845,2.8004,2.7622,2.7622,2.7378,2.6916,2.6062,2.555,2.5424,2.5493,2.5603,2.5721,2.5158,2.5211,2.5766,2.4786,2.4305,2.4253,2.3947,2.3362,2.2511,2.1272,2.0404,1.9816,1.9467,1.9017,1.8504,1.8405,1.8183,1.7928,0.0,0.0,0.0,0.0,0.0,0.0,0.0,2.1581,2.2708,2.2601,2.3753,2.4265,2.3373,2.2896,2.1972,2.0372,2.0353,2.0985,2.238,2.2574,2.2782,2.3184,2.305,2.2706,2.2081,2.2598,2.2767,2.2481,2.3313,2.3658,2.3529,2.3573,2.3766,2.4079,2.3753,2.398,2.4616,2.4624,2.4584,2.4534,2.4861,2.5278,2.5756,2.6368,2.6542,2.6647,2.8083,2.9049,2.9649,2.9642,2.874,2.7565,2.7231,2.6257,2.477,2.2534,2.1165,0.0,0.0,0.0,0.0,0.0,0.0,0.0,0.0,0.0,1.9349,2.0851,2.2059,2.274,2.2514,2.4282,2.6115,2.7124,2.802,2.8889,2.9688,2.9804,2.9788,2.9811,2.9824,2.9804,2.9804,2.9804,2.9804,2.9804,2.9804,2.9804,2.9804,2.9679,2.8944,2.7488,2.7977,2.7537,2.5925,2.671,2.7079,2.696,2.6029,2.6033,2.6843,2.6072,2.561,2.5412,2.5156,2.4459,2.3363,2.1828,2.0734,2.0075,2.0168,2.005,1.9759,1.9075,1.8825,1.8777,0.0,0.0,0.0,0.0,0.0,0.0,0.0,0.0,2.2851,2.2846,2.4319,2.4985,2.3995,2.3794,2.3112,2.1612,2.221,2.276,2.2996,2.3925,2.4467,2.4315,2.4295,2.3797,2.2733,2.2773,2.2593,2.2147,2.2972,2.3467,2.3692,2.4257,2.4617,2.4802,2.4907,2.4878,2.4697,2.473,2.5377,2.6321,2.6432,2.6434,2.6488,2.7567,2.8052,2.8254,2.9198,2.8915,2.8351,2.9699,2.9198,2.8142,2.8853,2.8126,2.6519,2.3944,0.0,2.1903,2.143,2.0355,2.0567,2.5654,2.5363,2.4066,0.0,0.0,2.3478,2.4165,2.5219,2.5986,2.5937,2.7741,2.9261,2.9435,2.9934,3.0213,2.9854,2.9804,2.9804,2.9816,2.9829,2.9804,2.9804,2.9804,2.9804,2.9804,2.9804,2.9804,2.9804,2.9176,2.8575,2.8014,2.8585,2.8547,2.7807,2.8855,2.9191,2.8716,2.8575,2.8036,2.7145,2.7033,2.6402,2.5329,2.4277,2.3419,2.2804,2.2573,2.1749,2.0723,2.1652,2.1289,2.0168,1.9726,1.9533,1.9474,0.0,0.0,0.0,0.0,0.0,0.0,0.0,0.0,0.0,2.2219,2.3708,2.4271,2.2812,2.212,2.1466,2.0788,2.1954,2.2756,2.2868,2.4124,2.4878,2.4922,2.4812,2.4493,2.4041,2.4132,2.4055,2.3732,2.4254,2.4536,2.4513,2.4944,2.5184,2.5244,2.5258,2.5833,2.6768,2.6354,2.6584,2.7198,2.6898,2.7015,2.7316,2.6263,2.6631,2.777,2.8167,2.762,0.0,2.7883,2.8184,2.8063,2.7528,2.641,2.5049,2.3855,2.3513,0.0,2.3708,2.1761,0.0,0.0,2.7218,2.8152,2.7968,2.5767,2.4697,2.8017,2.8531,2.8395,2.8405,2.9182,3.0355,0.0,3.1109,3.0062,2.9836,3.0272,3.0551,3.0299,3.021,3.0047,2.9831,2.9804,2.9804,2.9804,3.033,3.062,3.062,3.0467,3.0148,2.9688,2.9538,2.9203,2.8638,2.9109,2.9208,2.9002,2.8675,2.8309,2.7852,2.7513,2.6911,2.6071,2.5458,2.4858,2.4245,2.3772,2.2985,2.2094,2.2164,2.1567,2.0698,2.0515,2.0448,2.0417,0.0,0.0,0.0,0.0,0.0,0.0,0.0,0.0,0.0,0.0,2.2984,2.3357,2.1834,2.0799,2.0182,2.0081,2.1623,2.2627,2.2738,2.4208,2.5105,2.5286,2.5131,2.5174,2.5389,2.552,2.5642,2.5754,2.5991,2.6013,2.5816,2.5935,2.5912,2.587,2.6149,2.6982,2.8234,2.7928,2.8069,2.8462,2.8014,2.8001,2.8055,2.6125,2.5842,2.6512,2.662,2.616,2.5575,2.6351,2.6925,2.7182,2.6376,2.5281,2.4265,2.4065,2.4016,2.428,2.5342,0.0,0.0,2.6901,3.033,3.2332,3.1416,2.8963,2.7961,3.1787,3.196,3.1377,3.1368,3.1235,0.0,3.4259,3.2461,3.0708,3.0379,3.0912,3.1128,3.0662,3.0583,3.0296,2.9743,2.9872,3.0113,3.0533,3.1193,3.1609,3.1609,3.1455,3.1206,3.0825,3.0248,2.9764,2.9348,2.9566,2.969,2.969,2.928,2.903,2.8899,2.8287,2.7665,2.7062,2.6767,2.6258,2.5561,2.4792,2.3921,2.3071,2.2697,2.1973,2.1181,2.1291,2.126,2.1166,0.0,0.0,0.0,0.0,0.0,0.0,0.0,0.0,0.0,0.0,0.0,0.0,0.0,2.0804,2.0305,2.0273,2.1836,2.2812,2.2872,2.4473,2.5438,2.5507,2.5507,2.5841,2.6616,2.6655,2.7081,2.7893,2.7929,2.7834,2.7593,2.7298,2.7013,2.6829,2.812,2.8474,2.8171,2.8972,2.9805,3.0506,3.0416,2.9719,2.8679,2.8457,2.6834,2.4709,2.4979,2.4747,2.4523,2.5709,2.5641,2.5267,2.6334,2.6151,0.0,2.5079,2.4089,2.3635,0.0,0.0,2.668,3.3568,3.5316,3.5377,3.5315,3.5216,3.5181,3.5347,3.5346,3.5321,3.5331,3.4909,3.4756,3.5361,3.4237,3.2891,3.1801,3.1685,3.1408,3.0681,3.0771,3.0494,0.0,2.9996,3.0949,3.2423,3.2522,3.2558,3.2558,3.1488,3.0825,3.0798,3.0463,3.0297,3.0269,3.1014,3.1424,3.1423,3.1345,3.1019,3.0418,2.9682,2.8933,2.82,2.7572,2.6869,2.6126,2.547,2.4369,2.3138,2.3504,2.2816,2.1627,2.2075,2.1974,2.1582,0.0,0.0,0.0,0.0,0.0,0.0,0.0,0.0,0.0,0.0,0.0,0.0,0.0,0.0,0.0,0.0,2.1145,2.2003,2.2614,2.3673,2.4584,2.526,2.5299,2.5428,2.5685,2.6386,2.685,2.6997,2.7501,2.7691,2.7642,2.8326,2.8342,2.7767,2.8862,2.9327,2.9279,2.9033,3.0105,3.1797,3.0162,2.9232,2.8637,2.6828,2.5792,2.5282,0.0,2.4355,2.392,2.4128,2.4015,2.3861,2.4256,2.423,2.4098,2.4448,2.464,2.5203,2.7192,0.0,2.9984,3.3303,3.6364,3.8531,3.8529,3.8544,3.7979,3.5922,3.3395,3.0767,2.8102,3.1779,3.4451,3.1989,3.232,3.319,3.41,3.3111,3.2021,3.1266,3.2242,0.0,0.0,0.0,0.0,3.1234,3.2308,3.2936,3.2936,3.3155,3.3244,3.3244,3.2769,3.2478,3.2478,3.2752,3.2891,3.2891,3.1905,3.109,3.0401,2.9708,2.8766,2.7635,2.7762,2.7173,2.605,2.6168,2.5345,2.4048,2.4511,2.3722,2.2364,2.2599,2.2691,2.2622,0.0,0.0,0.0,0.0,0.0,0.0,0.0,0.0,0.0,0.0,0.0,0.0,0.0,0.0,0.0,0.0,0.0,2.1517,2.2362,2.3186,2.4075,2.5029,2.5072,2.5182,2.549,2.614,2.6607,2.6802,2.7141,2.7283,2.7243,2.8056,2.848,2.85,2.8703,2.8911,2.9187,2.8904,2.9601,3.0749,2.9609,2.8556,2.758,2.6118,2.5556,0.0,2.4773,2.4342,2.4014,2.353,2.3362,2.334,2.3236,2.3578,2.4109,2.4628,2.579,2.7323,2.9276,3.0664,3.197,3.375,3.6357,3.8488,3.8486,3.8482,3.7922,3.5935,3.2656,2.8889,2.4932,2.9516,3.3005,3.0162,3.1477,3.3415,3.4968,3.4607,3.3848,3.303,3.4249,0.0,0.0,0.0,0.0,3.2407,3.3603,3.4248,3.3992,3.4566,3.4833,3.4523,3.3911,3.3598,3.3598,3.3598,3.3469,3.3153,3.1989,3.1167,3.0685,3.0093,2.9209,2.8094,2.8148,2.7633,2.6707,2.6856,2.6283,2.5335,2.5326,2.4503,2.3295,2.3065,2.3141,2.3317,0.0,0.0,0.0,0.0,0.0,0.0,0.0,0.0,0.0,0.0,0.0,0.0,0.0,0.0,0.0,0.0,0.0,0.0,2.2164,2.2938,2.378,2.4678,2.4715,2.5099,2.5853,2.5944,2.6367,2.7175,2.6872,2.6646,2.6491,2.6711,2.7512,2.8798,2.7731,2.7482,2.7838,2.8542,2.8386,2.7756,2.8812,2.7835,2.5751,2.6455,2.6129,2.5208,2.4799,2.4691,2.4716,2.4049,2.3868,0.0,2.3586,2.4515,2.5725,2.5859,2.7598,2.994,3.2165,3.2628,3.3,3.5167,3.5625,3.5588,3.5556,3.5509,3.5447,3.5297,3.301,2.985,0.0,0.0,3.088,3.0129,3.1866,3.3698,3.4605,3.6121,3.6799,0.0,0.0,0.0,0.0,0.0,0.0,3.5742,0.0,3.6308,3.5641,3.571,3.5385,3.468,3.4028,3.3726,3.3726,3.3636,3.3226,3.2395,3.1693,3.132,3.1147,3.0813,3.0214,2.9435,2.8742,2.8216,2.7869,2.7502,2.7122,2.6734,2.5857,2.509,2.4348,2.3555,2.3453,2.3685,0.0,0.0,0.0,0.0,0.0,0.0,0.0,0.0,0.0,0.0,0.0,0.0,0.0,0.0,0.0,0.0,0.0,0.0,2.1167,2.1439,2.225,2.3773,2.3819,2.3929,2.4122,2.4931,2.5356,2.5438,2.5962,2.6191,2.614,2.6609,2.6694,2.6477,2.679,2.6722,2.6354,2.6652,2.6909,2.7133,2.733,2.7029,2.6422,2.5966,2.5438,2.4985,2.4936,2.4877,0.0,0.0,0.0,0.0,0.0,2.7904,2.8811,2.9486,3.1213,3.3263,3.4724,3.5792,3.6541,3.7032,3.6395,3.5484,3.5042,3.441,3.3322,3.1132,3.0631,2.9339,0.0,0.0,0.0,3.1209,3.2828,0.0,3.5248,3.7635,0.0,0.0,0.0,3.8907,3.7661,3.788,0.0,0.0,3.695,3.6437,3.5715,3.6135,3.613,3.5386,3.5157,3.5075,3.5075,3.4564,3.3628,3.2337,3.2488,3.1937,3.0744,3.1026,3.0382,2.9117,2.8941,2.8488,2.7897,2.7797,2.7367,2.6783,2.644,2.5708,2.4712,2.4383,2.4256,2.432,0.0,0.0,0.0,0.0,0.0,0.0,0.0,0.0,0.0,0.0,0.0,0.0,0.0,0.0,0.0,0.0,0.0,0.0,0.0,2.1372,2.1992,2.3309,2.3445,2.3506,2.3506,2.3939,2.4094,2.3993,2.4373,2.4563,2.4551,2.4863,2.476,2.4347,2.493,2.529,2.5386,2.53,2.5551,0.0,0.0,2.5936,2.5564,2.5493,2.5363,2.5224,2.5224,0.0,0.0,0.0,0.0,3.0043,3.0552,3.1059,3.164,3.2464,0.0,3.6281,3.7145,3.8405,3.9289,3.8384,3.7186,3.5607,3.3167,3.25,3.1765,2.9416,2.9082,0.0,0.0,0.0,0.0,0.0,0.0,0.0,3.6033,3.7887,3.9368,0.0,4.0113,0.0,3.9306,3.9345,3.937,0.0,3.8288,3.7264,3.6219,3.6862,3.6826,3.598,3.597,3.59,3.5732,3.4648,3.3682,3.2891,3.2804,3.2301,3.1428,3.1186,3.0603,2.9747,0.0,2.8609,2.836,2.8201,2.8047,2.7876,2.7061,2.6387,2.5799,2.4987,2.4654,2.4647,0.0,0.0,0.0,0.0,0.0,0.0,0.0,0.0,0.0,0.0,0.0,0.0,0.0,0.0,0.0,0.0,0.0,0.0,0.0,0.0,2.2094,2.2865,2.3085,2.3167,2.3167,2.2859,2.2681,2.2634,2.256,2.2499,2.2464,2.2464,2.2478,2.2578,2.2873,2.3626,2.4674,2.434,2.4504,2.4907,2.5341,2.4983,2.4317,0.0,2.5616,0.0,0.0,0.0,0.0,0.0,2.9887,3.2065,3.3279,3.3946,3.446,3.5306,3.7144,3.8984,3.9526,4.0663,4.1319,3.954,3.8218,3.6073,3.127,3.0403,3.0224,2.8866,0.0,2.778,2.7261,0.0,2.9936,3.065,0.0,3.5341,3.7102,3.7846,3.8652,4.0034,4.0279,4.0328,4.0328,4.0226,4.0343,4.0816,3.9673,3.8464,3.7206,3.7648,3.7501,3.6533,3.6394,3.6142,3.5773,3.4323,3.3546,3.344,3.2851,3.253,3.2404,3.1361,3.0839,3.0699,0.0,0.0,2.9033,2.8725,2.8888,2.9235,2.7699,2.7209,2.7175,2.574,2.5104,2.4991,0.0,0.0,0.0,0.0,0.0,0.0,0.0,0.0,0.0,0.0,2.1191,0.0,0.0,0.0,0.0,0.0,0.0,0.0,0.0,0.0,0.0,2.1364,2.1432,2.1433,2.1433,2.1578,2.153,2.1337,2.153,2.1514,2.1289,2.1289,2.1458,2.1805,2.1845,2.2466,2.3495,2.3777,2.4238,2.4853,2.5324,2.5399,2.5272,2.5493,0.0,0.0,0.0,0.0,0.0,0.0,3.1335,3.2993,3.461,3.6414,3.8101,3.9199,4.0118,4.1081,4.2247,4.2486,4.2233,4.1523,3.9882,3.7238,3.2821,2.9519,0.0,0.0,0.0,2.842,2.712,2.9077,0.0,3.2791,0.0,0.0,0.0,0.0,3.979,0.0,0.0,0.0,0.0,0.0,0.0,0.0,0.0,0.0,3.9012,3.8535,3.7873,3.7075,3.6366,3.5664,3.5013,3.4058,3.328,3.2695,3.2941,3.2736,3.2089,3.1528,3.1066,3.0598,2.9646,0.0,2.9332,2.9428,2.9465,2.9329,2.8518,2.8253,2.8196,2.7414,2.6669,2.6066,0.0,0.0,0.0,0.0,0.0,0.0,0.0,0.0,0.0,0.0,2.2392,2.1745,0.0,0.0,0.0,0.0,0.0,0.0,0.0,0.0,0.0,0.0,0.0,0.0,2.0793,2.0937,2.0937,2.0793,0.0,2.1135,2.0991,2.0991,2.1213,2.1612,2.1772,2.2357,2.3247,2.3663,2.4211,2.4792,2.5282,2.554,0.0,0.0,0.0,0.0,0.0,0.0,0.0,0.0,3.2469,3.4917,3.7352,3.881,3.9798,4.0354,4.1319,4.2384,4.3008,4.339,4.3288,4.1832,4.008,3.7492,3.282,0.0,0.0,0.0,0.0,2.7929,2.7154,0.0,0.0,0.0,0.0,0.0,0.0,0.0,0.0,0.0,0.0,0.0,0.0,0.0,0.0,0.0,0.0,0.0,3.8907,3.8394,3.7738,3.697,3.6405,3.5728,3.4914,3.4104,3.3596,3.3377,3.3606,3.3361,3.2699,3.2095,3.1416,3.0694,2.9917,0.0,2.9561,2.968,2.9686,2.9636,2.8927,2.8729,2.8726,2.8049,2.7531,2.7123,0.0,0.0,0.0,0.0,0.0,0.0,0.0,2.1831,2.2393,2.3669,2.3312,2.2784,2.238,2.1672,0.0,0.0,0.0,0.0,0.0,0.0,0.0,0.0,0.0,0.0,0.0,0.0,0.0,2.0416,2.0628,0.0,0.0,0.0,0.0,0.0,2.1941,2.2517,2.3223,2.3713,2.4234,0.0,0.0,2.5539,0.0,0.0,0.0,0.0,0.0,0.0,0.0,0.0,3.2025,3.4761,3.7129,3.8621,3.9501,3.9743,4.1224,4.2872,4.3174,4.4015,4.4334,4.2342,4.0259,3.7505,3.2967,3.0635,0.0,0.0,2.7499,2.7703,2.7633,0.0,0.0,0.0,0.0,0.0,0.0,0.0,0.0,0.0,0.0,0.0,0.0,0.0,0.0,0.0,0.0,0.0,3.8473,3.8352,3.7906,3.7072,3.6669,3.6061,3.5198,3.4399,3.4006,3.402,3.402,3.3719,3.3089,3.2289,3.16,3.0947,3.0133,0.0,0.0,2.9823,2.9931,3.0001,2.9392,2.9269,2.9347,2.8787,2.8431,2.8212,0.0,0.0,0.0,0.0,0.0,0.0,0.0,2.1351,2.2194,2.3468,2.3098,2.2917,2.3378,2.2537,0.0,0.0,0.0,0.0,0.0,0.0,0.0,0.0,0.0,0.0,0.0,0.0,0.0,0.0,0.0,0.0,0.0,0.0,0.0,0.0,0.0,2.2517,2.3223,2.3713,0.0,0.0,0.0,0.0,0.0,0.0,0.0,0.0,0.0,0.0,0.0,0.0,0.0,2.906,2.9335,3.2481,3.6267,3.7275,0.0,0.0,4.3413,4.462,4.53,4.4473,4.1467,3.7815,3.4365,0.0,0.0,2.6556,2.7848,2.8856,2.8835,2.899,0.0,0.0,0.0,3.2322,0.0,0.0,0.0,0.0,0.0,0.0,0.0,0.0,0.0,0.0,0.0,0.0,0.0,3.9301,3.9062,3.8174,3.7405,3.6636,3.5824,3.5007,3.4227,3.3474,3.3474,3.3022,3.2175,3.1393,3.1104,3.121,3.035,0.0,0.0,3.0287,3.0325,3.021,3.0366,3.0439,3.0448,3.0377,2.9916,2.926,0.0,0.0,0.0,0.0,0.0,0.0,0.0,2.1045,2.1844,2.34,2.3891,2.4097,2.417,2.3153,2.1995,0.0,0.0,0.0,0.0,0.0,0.0,0.0,0.0,0.0,0.0,0.0,0.0,0.0,0.0,0.0,0.0,0.0,0.0,0.0,0.0,0.0,2.3422,0.0,0.0,0.0,0.0,0.0,0.0,0.0,0.0,0.0,0.0,0.0,0.0,0.0,0.0,0.0,2.7654,2.9872,0.0,0.0,4.0031,4.291,4.4447,4.5227,4.517,4.3259,3.9585,3.5893,3.3881,0.0,2.7723,2.707,2.8487,2.9739,2.9373,2.9288,2.9528,0.0,0.0,0.0,0.0,0.0,0.0,0.0,0.0,0.0,0.0,0.0,0.0,0.0,0.0,0.0,0.0,3.8837,3.8437,3.7607,3.6815,3.5985,3.5193,3.4864,3.4604,3.4442,3.3901,3.3257,3.2539,3.1744,3.1169,3.0739,3.0429,0.0,0.0,3.0483,3.0474,3.0385,3.0538,3.0583,3.0589,3.0633,3.0453,3.0108,0.0,0.0,0.0,0.0,0.0,0.0,2.0691,2.1036,2.1695,2.3044,2.3858,2.4426,2.4695,2.3511,2.2092,2.0588,0.0,0.0,0.0,0.0,0.0,0.0,0.0,0.0,0.0,0.0,0.0,0.0,0.0,0.0,0.0,0.0,2.2328,0.0,0.0,0.0,0.0,0.0,0.0,0.0,0.0,0.0,0.0,0.0,0.0,0.0,0.0,0.0,0.0,0.0,0.0,0.0,0.0,0.0,0.0,0.0,3.8391,4.1616,4.3327,4.4413,4.4636,4.2737,3.8267,3.3849,0.0,0.0,2.8913,2.83,2.9338,3.0229,2.9704,2.9607,2.9639,2.9686,2.9686,3.0622,0.0,0.0,0.0,0.0,0.0,0.0,0.0,0.0,0.0,0.0,0.0,0.0,0.0,3.8233,3.7614,3.6996,3.6416,3.5771,3.4935,3.4935,3.4907,3.4848,3.4235,3.3487,3.2607,3.2027,3.1267,3.0425,0.0,0.0,0.0,3.0552,3.0589,3.0584,3.066,3.0683,3.0689,3.0759,3.0768,3.0692,0.0,0.0,0.0,0.0,0.0,0.0,0.0,2.1396,2.183,2.2262,2.2561,2.3314,2.4852,2.3614,2.2572,2.2319,0.0,0.0,0.0,0.0,0.0,0.0,0.0,0.0,0.0,0.0,0.0,0.0,0.0,0.0,0.0,0.0,0.0,0.0,0.0,0.0,0.0,0.0,0.0,0.0,0.0,0.0,0.0,0.0,0.0,0.0,0.0,0.0,0.0,0.0,0.0,0.0,0.0,2.5742,2.6405,2.9808,3.3682,3.7261,3.898,4.1629,4.3918,4.3866,3.8355,3.2053,0.0,0.0,2.8366,3.0029,3.0394,3.028,2.9961,2.9913,2.9846,2.9724,2.9686,3.0281,0.0,0.0,0.0,0.0,0.0,0.0,0.0,0.0,0.0,0.0,0.0,0.0,0.0,3.7595,3.6868,3.6692,3.6685,3.6301,3.5493,3.5493,3.5085,3.4313,3.4313,3.3447,3.1915,3.1915,3.14,0.0,0.0,0.0,0.0,3.0633,3.0714,3.0717,3.0857,3.0898,3.0898,3.0898,3.0898,3.0898,0.0,0.0,0.0,0.0,0.0,0.0,0.0,1.9198,1.9324,2.0522,2.0776,2.1353,2.2613,2.2724,2.2473,2.1953,0.0,0.0,0.0,0.0,0.0,0.0,0.0,0.0,0.0,0.0,0.0,0.0,0.0,0.0,0.0,0.0,0.0,0.0,0.0,0.0,0.0,0.0,0.0,0.0,0.0,0.0,0.0,0.0,0.0,0.0,0.0,0.0,0.0,0.0,0.0,0.0,0.0,0.0,0.0,2.8746,3.1161,3.4142,3.6996,3.8833,3.9779,3.9213,3.5534,3.1802,3.0816,2.9473,2.861,2.9134,2.9847,3.0388,3.0267,3.0221,3.0226,3.0188,3.0685,3.1362,0.0,0.0,0.0,0.0,0.0,0.0,0.0,0.0,0.0,0.0,0.0,0.0,0.0,3.6953,3.6318,3.6835,3.6309,3.5891,3.5624,3.5624,3.5525,3.5251,3.4711,3.4185,3.367,3.305,0.0,0.0,0.0,0.0,0.0,3.0994,3.1124,3.1539,3.1092,3.125,3.1719,3.1008,3.1159,3.1548,0.0,0.0,0.0,0.0,0.0,0.0,0.0,1.806,1.8317,1.9769,1.9737,2.0216,2.1894,2.2224,2.2373,2.2413,0.0,0.0,0.0,0.0,0.0,0.0,0.0,0.0,0.0,0.0,0.0,0.0,0.0,0.0,0.0,0.0,0.0,0.0,0.0,0.0,0.0,0.0,0.0,0.0,0.0,0.0,2.7061,0.0,0.0,0.0,0.0,0.0,0.0,0.0,0.0,0.0,0.0,0.0,0.0,0.0,2.9589,3.1737,0.0,3.6397,3.705,3.6513,3.4071,0.0,0.0,3.0574,2.9038,2.9365,2.998,3.0467,3.0467,3.0467,3.0467,3.0467,3.1207,0.0,0.0,0.0,0.0,0.0,0.0,0.0,0.0,0.0,0.0,0.0,0.0,0.0,0.0,0.0,3.6018,3.6499,3.5981,3.5687,3.5687,3.5687,3.5743,3.5769,3.5265,3.4852,3.4564,3.3999,0.0,0.0,0.0,0.0,0.0,3.1558,3.1748,3.2419,3.1939,3.2088,3.2515,3.1865,3.1776,3.1891,0.0,0.0,0.0,0.0,0.0,0.0,0.0,0.0,0.0,0.0,1.9216,1.9759,2.2241,2.2054,2.2224,0.0,0.0,0.0,0.0,0.0,0.0,0.0,0.0,0.0,0.0,0.0,0.0,2.3184,2.452,2.568,2.6724,0.0,0.0,0.0,0.0,0.0,0.0,0.0,0.0,0.0,0.0,0.0,0.0,0.0,0.0,0.0,0.0,0.0,0.0,0.0,0.0,0.0,0.0,0.0,0.0,0.0,0.0,0.0,0.0,3.4188,0.0,0.0,0.0,0.0,0.0,3.1131,0.0,3.0436,3.0589,3.0622,3.0664,3.0628,3.0631,3.0742,3.1451,0.0,0.0,0.0,0.0,0.0,0.0,0.0,0.0,0.0,0.0,0.0,0.0,0.0,0.0,0.0,3.5907,3.5907,3.578,3.5704,3.5704,3.5704,3.5777,3.5907,3.5907,3.5496,3.4765,3.4708,0.0,0.0,0.0,0.0,0.0,3.2205,3.2409,3.3216,3.3216,3.3255,3.3294,3.3209,3.2704,3.2046,0.0,0.0,0.0,0.0,0.0,0.0,0.0,0.0,0.0,0.0,0.0,1.859,2.0378,2.1515,0.0,0.0,0.0,0.0,0.0,0.0,0.0,0.0,0.0,0.0,0.0,0.0,0.0,2.4073,2.5821,2.7435,2.8902,2.9295,0.0,0.0,0.0,0.0,0.0,0.0,0.0,0.0,0.0,0.0,0.0,0.0,0.0,0.0,2.9185,2.9673,0.0,0.0,0.0,0.0,0.0,0.0,0.0,0.0,2.9671,3.0453,3.1073,0.0,3.1732,3.1806,3.0807,3.0097,0.0,3.0317,2.9635,3.0496,0.0,0.0,3.1487,3.1023,3.0999,0.0,0.0,0.0,0.0,0.0,0.0,0.0,0.0,0.0,0.0,0.0,0.0,0.0,0.0,0.0,0.0,3.691,3.5974,3.5974,3.5933,3.593,3.593,3.593,3.5932,3.5974,3.5974,3.5859,3.5603,3.5594,0.0,0.0,0.0,0.0,3.3101,3.2313,3.2457,3.319,3.3219,3.3608,3.4111,3.3326,3.3334,3.3567,0.0,0.0,0.0,0.0,0.0,0.0,0.0,0.0,0.0,0.0,0.0,0.0,0.0,0.0,0.0,0.0,0.0,0.0,0.0,0.0,0.0,0.0,0.0,0.0,0.0,0.0,0.0,0.0,0.0,2.8032,0.0,0.0,0.0,0.0,0.0,0.0,0.0,0.0,0.0,0.0,2.9543,0.0,0.0,0.0,0.0,0.0,2.9849,3.0261,0.0,3.0111,2.9907,2.9709,0.0,0.0,0.0,0.0,2.9857,3.0563,3.0563,3.1142,3.1804,3.1839,3.1495,3.1276,3.1823,0.0,0.0,0.0,0.0,0.0,0.0,0.0,0.0,0.0,0.0,0.0,0.0,0.0,0.0,0.0,0.0,0.0,0.0,0.0,0.0,0.0,0.0,0.0,0.0,3.6911,3.5969,3.5969,3.5879,3.5878,3.5969,3.5969,3.5924,3.5871,3.5871,3.5857,3.5824,3.5788,3.5511,0.0,0.0,0.0,3.4207,3.3335,3.3516,3.4241,3.427,3.4541,3.4889,3.4345,3.3936,3.3589,0.0,0.0,0.0,0.0,0.0,0.0,0.0,0.0,0.0,0.0,0.0,0.0,0.0,0.0,0.0,0.0,0.0,0.0,0.0,0.0,0.0,0.0,0.0,0.0,0.0,0.0,0.0,0.0,0.0,0.0,0.0,0.0,3.0095,0.0,0.0,0.0,0.0,0.0,0.0,0.0,3.0113,0.0,0.0,0.0,0.0,0.0,0.0,0.0,0.0,3.0714,3.0608,3.0401,2.9684,0.0,0.0,0.0,0.0,0.0,3.0854,3.2358,3.3764,3.3216,3.3351,3.3554,3.3437,0.0,0.0,0.0,0.0,0.0,0.0,0.0,0.0,0.0,0.0,0.0,0.0,0.0,0.0,0.0,0.0,0.0,0.0,0.0,0.0,0.0,0.0,0.0,0.0,3.6773,3.5851,3.5851,3.5761,3.5752,3.5838,3.5847,3.5827,3.5687,3.5687,3.5677,3.5663,3.564,3.5576,0.0,0.0,0.0,3.5238,3.4533,3.4642,3.5308,3.5462,3.55,3.55,3.55,3.4577,3.3391,0.0,0.0,0.0,0.0,0.0,0.0,0.0,0.0,0.0,0.0,0.0,0.0,0.0,0.0,0.0,0.0,0.0,0.0,0.0,0.0,0.0,0.0,0.0,0.0,0.0,0.0,0.0,0.0,0.0,0.0,3.0596,3.0921,3.0574,2.9636,0.0,0.0,0.0,0.0,0.0,0.0,0.0,0.0,0.0,0.0,0.0,0.0,0.0,0.0,0.0,3.0714,3.0637,3.0555,3.0374,0.0,0.0,0.0,0.0,0.0,3.235,3.4662,3.5875,3.2943,3.3338,3.4246,3.3554,0.0,0.0,0.0,0.0,0.0,0.0,0.0,0.0,0.0,0.0,0.0,0.0,0.0,0.0,0.0,0.0,0.0,0.0,0.0,0.0,0.0,0.0,0.0,0.0,0.0,3.5746,3.5746,3.5694,3.569,3.565,3.5705,3.5739,3.5687,3.5687,3.5679,3.5621,3.5601,3.556,0.0,0.0,3.4317,3.4404,3.4334,3.4311,3.4468,3.5192,3.55,3.55,3.55,3.5346,3.5,0.0,0.0,0.0,0.0,0.0,0.0,0.0,0.0,0.0,0.0,0.0,0.0,0.0,0.0,0.0,0.0,0.0,0.0,0.0,0.0,0.0,0.0,0.0,0.0,0.0,0.0,0.0,0.0,0.0,3.1516,3.2639,3.1905,3.0906,2.9732,0.0,0.0,0.0,0.0,0.0,0.0,0.0,0.0,0.0,0.0,0.0,0.0,0.0,0.0,0.0,0.0,3.0644,3.0577,3.0577,0.0,0.0,0.0,0.0,0.0,3.2192,3.414,3.5644,3.5031,3.6484,3.7964,0.0,0.0,0.0,0.0,0.0,0.0,0.0,0.0,0.0,0.0,0.0,0.0,0.0,0.0,0.0,0.0,0.0,0.0,0.0,0.0,0.0,0.0,0.0,0.0,0.0,0.0,3.6142,3.5676,3.6038,3.6002,3.5546,3.5577,3.557,3.557,3.557,3.5577,3.5546,3.5546,3.5541,3.5468,0.0,3.4912,3.4898,3.4924,3.4912,3.493,3.5346,3.5398,3.5216,3.4598,3.467,3.4937,0.0,0.0,0.0,0.0,0.0,0.0,0.0,0.0,0.0,0.0,0.0,0.0,0.0,0.0,0.0,0.0,0.0,0.0,0.0,0.0,0.0,0.0,0.0,0.0,0.0,0.0,3.0326,3.1568,3.1227,3.202,3.3885,3.2514,3.1146,0.0,0.0,0.0,0.0,0.0,0.0,0.0,0.0,0.0,0.0,0.0,0.0,0.0,0.0,0.0,0.0,0.0,0.0,0.0,0.0,0.0,0.0,3.0886,3.0767,3.094,3.2281,3.374,3.5348,3.7109,0.0,0.0,0.0,0.0,0.0,0.0,0.0,0.0,0.0,0.0,0.0,0.0,0.0,0.0,0.0,0.0,0.0,0.0,0.0,0.0,0.0,0.0,0.0,0.0,0.0,0.0,0.0,0.0,3.6273,3.5615,3.6113,3.6115,3.55,3.55,3.55,3.55,3.55,3.55,3.55,3.55,3.55,3.55,3.55,3.55,3.55,3.55,3.5472,3.5398,3.5398,3.5239,3.4905,3.4007,3.4127,3.46,0.0,0.0,0.0,0.0,0.0,0.0,0.0,0.0,0.0,0.0,0.0,0.0,0.0,0.0,0.0,0.0,0.0,0.0,0.0,0.0,0.0,0.0,0.0,0.0,0.0,2.9634,3.0651,3.2578,3.1347,3.1297,3.2336,3.2169,3.1231,2.9718,0.0,0.0,0.0,0.0,0.0,0.0,0.0,0.0,0.0,0.0,0.0,0.0,0.0,0.0,0.0,0.0,0.0,0.0,0.0,0.0,3.0866,3.1648,3.1336,3.1266,3.3826,3.515,3.6222,3.79,3.7897,0.0,4.1393,3.9461,0.0,4.1008,0.0,0.0,0.0,0.0,0.0,0.0,0.0,0.0,0.0,0.0,0.0,0.0,0.0,0.0,0.0,0.0,0.0,0.0,0.0,0.0,0.0,0.0,0.0,3.552,3.5545,3.5577,3.55,3.55,3.55,3.55,3.55,3.55,3.55,3.55,3.55,3.55,3.55,3.55,3.55,3.55,3.5361,3.5141,3.5141,3.4963,3.4743,3.4637,3.4637,3.4675,0.0,0.0,0.0,0.0,0.0,0.0,0.0,0.0,0.0,0.0,0.0,0.0,0.0,0.0,0.0,0.0,0.0,0.0,0.0,0.0,0.0,0.0,0.0,3.0277,3.1339,3.1163,3.1916,3.3638,3.2115,3.2126,3.3546,3.2342,0.0,0.0,0.0,0.0,0.0,0.0,0.0,0.0,0.0,0.0,0.0,0.0,0.0,0.0,0.0,0.0,0.0,0.0,3.125,3.1758,3.1912,3.1793,3.1715,3.2027,3.152,3.1169,3.2734,3.4441,3.6243,3.7968,3.8488,0.0,0.0,4.2553,4.1917,4.3199,0.0,0.0,0.0,0.0,0.0,0.0,0.0,0.0,0.0,0.0,0.0,0.0,0.0,0.0,0.0,0.0,0.0,0.0,0.0,0.0,0.0,0.0,0.0,3.5538,3.6,3.5943,3.5246,3.5239,3.5174,3.4999,3.5346,3.5398,3.5239,3.5239,3.5166,3.4999,3.4999,3.4999,3.4999,3.4999,3.4944,3.4879,3.5237,3.4958,3.4424,3.4773,3.455,3.4154,0.0,0.0,0.0,0.0,0.0,0.0,0.0,0.0,0.0,0.0,0.0,0.0,0.0,0.0,0.0,0.0,0.0,0.0,0.0,0.0,0.0,0.0,0.0,3.09,3.2429,3.1868,3.2301,3.3802,3.2369,3.1984,3.2679,0.0,0.0,0.0,0.0,0.0,0.0,0.0,0.0,0.0,3.2344,3.2383,0.0,0.0,0.0,0.0,0.0,0.0,0.0,0.0,3.1289,3.1875,3.2422,3.2422,3.2266,3.25,3.2147,3.1832,3.2729,3.4332,3.6132,3.7894,0.0,0.0,4.407,4.4353,4.4201,4.5278,0.0,0.0,0.0,0.0,0.0,0.0,0.0,0.0,0.0,0.0,0.0,0.0,0.0,0.0,0.0,0.0,0.0,0.0,0.0,0.0,0.0,0.0,0.0,0.0,3.5782,3.5709,3.4972,3.4972,3.4889,3.4713,3.506,3.5166,3.4972,3.4972,3.4879,3.4713,3.4713,3.4713,3.4713,3.4967,3.5179,3.536,3.5653,3.5378,3.4895,3.5285,3.5055,3.4541,0.0,0.0,0.0,0.0,0.0,0.0,0.0,0.0,0.0,0.0,0.0,0.0,0.0,0.0,0.0,0.0,0.0,0.0,0.0,0.0,0.0,0.0,0.0,3.0944,3.2546,3.142,3.1509,3.2986,3.1826,3.0521,2.913,3.2717,0.0,0.0,0.0,0.0,0.0,0.0,0.0,0.0,3.4062,3.4453,0.0,0.0,0.0,0.0,0.0,0.0,0.0,0.0,3.0937,3.1133,3.2266,3.2461,3.2383,3.3164,3.3351,3.3475,3.433,3.5076,3.5985,0.0,0.0,0.0,4.4825,4.4316,4.4085,4.7394,0.0,0.0,0.0,0.0,0.0,0.0,0.0,0.0,0.0,0.0,0.0,0.0,0.0,0.0,0.0,0.0,0.0,0.0,0.0,0.0,0.0,0.0,0.0,0.0,3.4713,3.4713,3.4713,3.4713,3.4703,3.4703,3.4703,3.4703,3.4713,3.4713,3.4703,3.4703,3.4703,3.4703,3.4778,3.556,3.6238,3.6656,3.6408,3.6303,3.6303,3.6303,3.6303,3.6193,0.0,0.0,0.0,0.0,0.0,0.0,0.0,0.0,0.0,0.0,0.0,0.0,0.0,0.0,0.0,0.0,0.0,0.0,0.0,0.0,0.0,0.0,0.0,0.0,0.0,0.0,3.0862,3.095,3.009,3.0255,0.0,0.0,0.0,3.5041,0.0,0.0,0.0,0.0,0.0,3.5156,3.4101,3.4062,3.4531,0.0,0.0,0.0,0.0,0.0,0.0,0.0,0.0,0.0,3.4492,3.4917,3.4627,3.3618,3.3275,3.3137,3.2789,3.4136,0.0,3.7677,0.0,0.0,0.0,4.521,0.0,0.0,0.0,0.0,0.0,0.0,0.0,0.0,0.0,0.0,0.0,0.0,0.0,0.0,0.0,0.0,0.0,0.0,0.0,0.0,0.0,0.0,0.0,0.0,0.0,0.0,3.4713,3.4582,3.4338,3.4327,3.426,3.408,3.408,3.4165,3.4327,3.4327,3.4249,3.4117,3.466,3.4907,3.4981,3.5845,3.6297,3.6459,3.6934,3.6795,3.6376,3.6942,3.6795,3.6266,0.0,0.0,0.0,0.0,0.0,0.0,0.0,0.0,0.0,0.0,1.9075,0.0,0.0,0.0,0.0,0.0,0.0,0.0,0.0,0.0,0.0,0.0,0.0,0.0,0.0,3.0137,3.0149,0.0,0.0,0.0,0.0,0.0,0.0,3.5673,0.0,3.7186,0.0,0.0,3.5117,3.5273,3.4687,3.4531,3.457,0.0,0.0,0.0,0.0,0.0,0.0,0.0,0.0,0.0,3.4726,3.4914,3.4729,3.4028,3.3735,3.3743,3.4236,3.5697,0.0,3.9598,0.0,0.0,0.0,0.0,0.0,0.0,0.0,0.0,0.0,0.0,0.0,0.0,0.0,0.0,0.0,0.0,0.0,0.0,0.0,0.0,0.0,0.0,0.0,0.0,0.0,0.0,0.0,0.0,0.0,0.0,3.433,3.4237,3.4043,3.4043,3.3979,3.3807,3.3807,3.3876,3.4043,3.4043,3.4114,3.4307,3.5151,3.5518,3.5591,3.6413,3.6964,3.7294,3.7771,3.7661,3.7294,3.7808,3.7661,3.7221,0.0,0.0,0.0,0.0,0.0,0.0,0.0,0.0,0.0,0.0,1.9207,2.0302,0.0,0.0,0.0,0.0,0.0,0.0,0.0,0.0,0.0,0.0,0.0,0.0,0.0,0.0,0.0,0.0,0.0,0.0,0.0,0.0,3.5053,3.6787,0.0,3.7421,0.0,3.5817,3.5195,3.4414,3.5469,3.5391,3.4648,3.4336,0.0,0.0,0.0,0.0,0.0,0.0,0.0,0.0,3.3633,3.3467,3.3514,3.4242,3.4376,3.483,3.7317,0.0,0.0,4.2431,0.0,0.0,0.0,0.0,0.0,0.0,0.0,0.0,0.0,0.0,0.0,0.0,0.0,0.0,0.0,0.0,0.0,0.0,0.0,0.0,0.0,0.0,0.0,0.0,0.0,0.0,0.0,0.0,0.0,0.0,3.3807,3.3807,3.3807,3.3807,3.3807,0.0,3.3807,3.3807,3.3807,3.3807,3.427,3.5151,3.5973,3.6376,3.656,3.7309,3.8028,3.8689,3.8689,3.8689,3.8689,3.8689,3.8689,3.8615,0.0,0.0,0.0,0.0,0.0,0.0,0.0,0.0,0.0,0.0,0.0,0.0,0.0,0.0,0.0,0.0,0.0,0.0,0.0,0.0,0.0,0.0,0.0,0.0,0.0,0.0,0.0,0.0,0.0,0.0,0.0,0.0,0.0,3.6953,0.0,3.6852,3.5825,3.4528,3.4219,3.4648,3.4883,3.4883,3.4609,3.3867,3.3047,0.0,0.0,0.0,0.0,0.0,0.0,0.0,3.3968,3.4218,3.4007,3.3545,3.3785,3.4642,3.6478,3.7144,0.0,0.0,0.0,0.0,0.0,0.0,0.0,0.0,0.0,0.0,0.0,0.0,0.0,0.0,0.0,0.0,0.0,0.0,0.0,0.0,0.0,0.0,0.0,0.0,0.0,0.0,0.0,0.0,0.0,0.0,0.0,3.3807,3.3807,3.3807,3.3807,3.3807,3.3807,0.0,3.3807,3.3807,3.3807,3.3807,3.4614,3.6046,3.6229,3.7,3.8212,3.8358,3.8542,3.8689,3.8689,3.8689,3.8689,3.8689,3.8689,3.8689,0.0,0.0,0.0,0.0,0.0,0.0,0.0,0.0,0.0,0.0,0.0,0.0,0.0,0.0,0.0,0.0,0.0,0.0,0.0,0.0,0.0,0.0,0.0,0.0,0.0,0.0,0.0,0.0,0.0,0.0,0.0,0.0,0.0,3.6998,0.0,3.6453,3.5117,3.4368,3.3828,3.3555,3.4375,3.4219,3.3516,3.3437,3.2656,3.1562,3.1562,0.0,0.0,0.0,0.0,0.0,0.0,0.0,3.3083,3.3079,3.3285,3.4122,3.6622,0.0,0.0,4.3598,0.0,0.0,0.0,0.0,0.0,0.0,0.0,0.0,0.0,0.0,0.0,0.0,0.0,0.0,0.0,0.0,0.0,0.0,0.0,0.0,0.0,0.0,0.0,0.0,0.0,0.0,0.0,3.3807,3.3623,3.3256,3.322,3.3036,3.2632,3.3036,3.322,3.322,3.3623,3.3807,3.3807,3.4197,3.4857,3.5716,3.6523,3.7345,3.8138,3.8542,3.8689,3.8689,3.8689,3.8689,3.8689,3.8689,3.8689,3.8658,0.0,0.0,0.0,0.0,0.0,0.0,0.0,0.0,0.0,0.0,0.0,0.0,0.0,0.0,0.0,0.0,0.0,0.0,0.0,0.0,0.0,0.0,0.0,0.0,0.0,0.0,0.0,0.0,0.0,0.0,0.0,0.0,0.0,3.7052,0.0,3.5955,3.4428,3.4171,3.332,3.2305,3.3711,3.3437,3.2226,3.289,0.0,3.0856,3.1012,3.1442,3.1948,3.2122,0.0,0.0,0.0,0.0,3.17,3.2527,3.2833,3.3622,3.6892,0.0,4.1622,4.4974,0.0,0.0,0.0,0.0,0.0,0.0,0.0,0.0,0.0,0.0,0.0,0.0,0.0,0.0,0.0,0.0,0.0,0.0,0.0,0.0,0.0,0.0,0.0,0.0,0.0,0.0,3.3807,3.3807,3.344,3.2619,3.2583,3.2228,3.1397,3.2082,3.2447,3.2491,3.3241,3.3578,3.3615,3.4258,3.4702,3.4979,3.6362,3.6991,3.7077,3.7771,3.8063,3.8063,3.8193,3.823,3.8266,3.8396,3.8433,3.8385,0.0,0.0,0.0,0.0,0.0,0.0,0.0,0.0,0.0,0.0,2.3381,0.0,0.0,0.0,0.0,0.0,0.0,0.0,0.0,0.0,0.0,0.0,0.0,0.0,0.0,0.0,0.0,0.0,0.0,0.0,0.0,0.0,0.0,3.7184,0.0,0.0,3.4528,3.2343,3.1719,3.2226,3.2422,3.234,3.2051,0.0,0.0,0.0,0.0,3.1359,3.1045,3.2522,3.2085,0.0,0.0,0.0,3.0766,3.1613,3.2365,3.3468,0.0,0.0,4.2463,0.0,0.0,0.0,0.0,0.0,0.0,0.0,0.0,0.0,0.0,0.0,0.0,0.0,0.0,0.0,0.0,0.0,0.0,0.0,0.0,0.0,0.0,0.0,0.0,0.0,0.0,0.0,3.3807,3.3807,3.344,3.2619,3.2583,3.2228,3.1397,3.1507,3.1743,3.2068,3.248,3.2663,3.2699,3.277,3.3458,3.4485,3.4718,3.4963,3.5257,3.5364,3.54,3.5471,3.6114,3.6381,3.6435,3.7147,3.7396,3.7378,0.0,0.0,0.0,0.0,0.0,0.0,0.0,0.0,0.0,0.0,0.0,2.4899,0.0,0.0,0.0,0.0,0.0,0.0,0.0,0.0,0.0,0.0,0.0,0.0,0.0,0.0,0.0,0.0,0.0,0.0,0.0,3.4503,3.5714,0.0,0.0,0.0,0.0,0.0,3.1007,3.1396,3.1849,3.1711,0.0,0.0,0.0,0.0,0.0,0.0,0.0,0.0,3.106,3.0548,3.0907,0.0,0.0,0.0,3.1476,3.2721,3.6086,3.8907,4.1279,0.0,0.0,0.0,0.0,0.0,0.0,0.0,0.0,0.0,0.0,0.0,0.0,0.0,0.0,0.0,0.0,0.0,0.0,0.0,0.0,0.0,0.0,0.0,0.0,0.0,0.0,3.3807,3.3807,3.3807,3.322,3.1971,3.1935,3.1311,3.0063,3.0742,3.1462,3.2295,3.2423,3.2483,3.2483,3.2483,3.3041,3.4002,3.4002,3.4331,3.4906,3.4906,3.4906,3.4977,3.5705,3.6006,3.6112,3.6908,3.7192,3.7154,0.0,0.0,0.0,0.0,0.0,0.0,0.0,0.0,0.0,0.0,0.0,0.0,0.0,0.0,0.0,0.0,0.0,0.0,0.0,0.0,0.0,0.0,0.0,0.0,0.0,0.0,0.0,0.0,0.0,0.0,3.4547,3.4522,3.6159,0.0,3.6483,0.0,0.0,0.0,0.0,0.0,0.0,0.0,0.0,0.0,0.0,0.0,0.0,0.0,0.0,0.0,0.0,0.0,0.0,0.0,0.0,0.0,0.0,0.0,0.0,0.0,3.9376,4.1287,0.0,0.0,0.0,0.0,0.0,0.0,0.0,0.0,0.0,0.0,0.0,0.0,0.0,0.0,0.0,0.0,0.0,0.0,0.0,0.0,0.0,0.0,0.0,0.0,0.0,3.3807,3.3807,3.3623,3.2813,3.1307,3.1051,3.0233,2.8713,2.9889,3.0909,3.1752,3.202,3.2179,3.2179,3.2179,3.2512,3.3073,3.316,3.3512,3.3969,3.3969,3.3969,3.4039,3.4966,3.5333,3.5438,3.6435,3.6786,3.6726,0.0,0.0,0.0,0.0,0.0,0.0,0.0,0.0,0.0,0.0,0.0,0.0,0.0,0.0,0.0,2.5407,0.0,0.0,0.0,0.0,0.0,0.0,0.0,0.0,0.0,0.0,0.0,0.0,0.0,0.0,3.4581,3.4581,3.6902,4.0937,3.832,3.625,3.4648,0.0,0.0,0.0,0.0,0.0,0.0,0.0,0.0,0.0,0.0,0.0,0.0,0.0,0.0,0.0,0.0,0.0,0.0,0.0,0.0,0.0,0.0,3.559,0.0,3.8552,0.0,0.0,0.0,0.0,0.0,0.0,0.0,0.0,0.0,0.0,0.0,0.0,0.0,0.0,0.0,0.0,0.0,0.0,0.0,0.0,0.0,0.0,0.0,0.0,0.0,3.3807,3.3807,3.3073,3.2122,3.0961,3.0116,2.9112,2.7968,2.9035,2.959,2.9677,3.0764,3.1269,3.1269,3.1269,3.1288,3.1342,3.1747,3.1726,3.139,3.139,3.139,3.1526,3.2964,3.3541,3.371,3.5147,3.5689,3.5689,0.0,0.0,0.0,0.0,0.0,0.0,0.0,0.0,0.0,0.0,0.0,0.0,0.0,2.5243,2.5303,2.5444,2.5501,0.0,0.0,0.0,0.0,0.0,0.0,0.0,0.0,0.0,0.0,0.0,0.0,2.9575,3.3789,3.376,3.4899,3.6936,3.6014,3.5586,3.539,3.3278,0.0,0.0,0.0,0.0,0.0,0.0,0.0,0.0,0.0,0.0,0.0,0.0,0.0,0.0,0.0,0.0,0.0,0.0,0.0,0.0,0.0,0.0,0.0,3.6772,0.0,0.0,0.0,0.0,0.0,0.0,0.0,0.0,0.0,0.0,0.0,0.0,0.0,0.0,0.0,0.0,0.0,0.0,0.0,0.0,0.0,0.0,0.0,0.0,0.0,0.0,3.2999,3.226,3.141,3.046,3.0139,2.988,2.9633,2.9538,2.9868,3.0624,3.0997,3.119,3.119,3.119,3.119,3.121,3.1351,3.1332,3.119,3.119,3.119,3.136,3.2814,3.3423,3.3592,3.5059,3.56,3.56,0.0,0.0,0.0,0.0,0.0,0.0,0.0,0.0,0.0,0.0,0.0,0.0,0.0,0.0,2.5151,2.5366,2.5522,2.557,2.5544,2.5625,0.0,0.0,0.0,0.0,0.0,0.0,0.0,0.0,0.0,0.0,0.0,3.2915,3.3696,3.502,3.4217,3.4336,0.0,0.0,0.0,3.1463,0.0,0.0,3.083,0.0,0.0,0.0,0.0,0.0,0.0,0.0,0.0,0.0,0.0,0.0,0.0,0.0,0.0,0.0,0.0,0.0,0.0,0.0,0.0,0.0,0.0,0.0,0.0,0.0,0.0,0.0,0.0,0.0,0.0,0.0,0.0,0.0,0.0,0.0,0.0,0.0,0.0,0.0,0.0,0.0,0.0,0.0,0.0,0.0,3.2535,3.1524,3.0576,2.9628,2.9451,2.9622,3.0055,2.9832,3.0081,3.0818,3.1089,3.119,3.119,3.119,3.119,3.119,3.119,3.119,3.119,3.119,3.1326,3.1684,3.2916,3.3558,3.3931,3.516,3.56,3.56,0.0,0.0,0.0,0.0,0.0,0.0,0.0,0.0,0.0,0.0,0.0,0.0,0.0,0.0,0.0,2.5096,2.5393,2.5599,2.5599,2.5585,0.0,0.0,0.0,0.0,0.0,0.0,0.0,0.0,0.0,0.0,0.0,0.0,3.3476,3.5742,3.332,3.2656,3.3398,0.0,3.4008,3.3018,0.0,3.0929,3.2395,0.0,0.0,0.0,3.1861,3.1591,0.0,0.0,0.0,0.0,0.0,0.0,0.0,0.0,0.0,0.0,0.0,0.0,0.0,0.0,0.0,0.0,0.0,0.0,0.0,0.0,0.0,0.0,0.0,0.0,0.0,0.0,0.0,0.0,0.0,0.0,0.0,0.0,0.0,0.0,0.0,0.0,0.0,0.0,0.0,3.245,3.245,3.1036,2.9683,2.8502,2.8049,2.8229,2.9044,2.9736,3.0089,3.0142,3.0852,3.119,3.119,3.119,3.119,3.119,3.119,3.119,3.1224,3.1224,3.165,3.2395,3.3152,3.3863,3.4573,3.5329,3.56,3.56,0.0,0.0,0.0,0.0,0.0,0.0,0.0,0.0,0.0,0.0,0.0,0.0,0.0,0.0,0.0,2.5006,2.5278,2.5463,2.5513,2.5542,2.5543,2.5613,2.5606,0.0,0.0,0.0,0.0,0.0,0.0,0.0,0.0,0.0,0.0,0.0,3.2851,3.2539,3.164,3.2403,0.0,0.0,3.2421,3.2164,0.0,0.0,0.0,0.0,0.0,3.2124,0.0,0.0,3.071,3.1397,0.0,0.0,0.0,0.0,0.0,0.0,2.928,0.0,0.0,0.0,0.0,0.0,3.4908,3.5789,0.0,0.0,0.0,0.0,0.0,0.0,0.0,0.0,0.0,0.0,0.0,0.0,0.0,0.0,0.0,0.0,0.0,0.0,0.0,0.0,3.2057,3.1878,3.1564,3.0635,2.9981,2.9649,2.8996,2.9296,3.0601,3.0277,3.0378,3.0886,3.1089,3.119,3.119,3.119,3.119,3.119,3.119,3.1495,3.1989,3.1989,3.2124,3.2429,3.3694,3.4303,3.4573,3.5329,3.56,3.56,0.0,0.0,0.0,0.0,0.0,0.0,0.0,0.0,0.0,0.0,0.0,0.0,0.0,0.0,0.0,2.4961,2.5207,2.5441,2.5486,2.5463,2.55,2.5602,2.5939,2.6368,0.0,0.0,0.0,0.0,0.0,0.0,0.0,0.0,0.0,0.0,0.0,0.0,0.0,0.0,0.0,0.0,3.2203,0.0,0.0,3.2855,3.2585,0.0,0.0,0.0,3.3512,3.1409,3.1311,0.0,0.0,0.0,0.0,0.0,0.0,0.0,0.0,0.0,0.0,0.0,0.0,0.0,3.3623,3.4174,3.4798,0.0,0.0,0.0,0.0,0.0,0.0,0.0,0.0,0.0,0.0,0.0,0.0,0.0,0.0,0.0,0.0,0.0,0.0,3.1842,3.1641,3.1295,3.077,3.0345,3.0108,3.0108,2.9668,3.0006,3.119,3.0784,3.0784,3.119,3.119,3.119,3.119,3.119,3.119,3.119,3.119,3.1427,3.1853,3.2158,3.2496,3.2848,3.3694,3.4235,3.4573,3.5329,3.56,3.56,0.0,0.0,0.0,0.0,0.0,0.0,0.0,0.0,0.0,0.0,0.0,0.0,0.0,0.0,0.0,0.0,2.5224,2.5431,2.5486,2.5428,0.0,0.0,2.6389,2.6895,2.7047,2.7888,0.0,0.0,0.0,0.0,0.0,0.0,0.0,0.0,0.0,0.0,0.0,0.0,0.0,3.2916,3.1177,3.2172,0.0,0.0,3.3833,0.0,3.4027,3.4284,3.4527,3.2375,3.1544,0.0,0.0,0.0,0.0,0.0,3.0283,0.0,0.0,0.0,0.0,0.0,0.0,0.0,3.3259,3.3433,3.3496,0.0,0.0,0.0,0.0,0.0,0.0,0.0,0.0,0.0,0.0,0.0,0.0,0.0,0.0,0.0,0.0,3.3171,3.2581,3.1786,3.1408,3.092,3.0277,3.0224,3.0224,3.0224,3.0224,3.0548,3.119,3.119,3.119,3.119,3.119,3.119,3.119,3.119,3.119,3.119,3.119,3.1258,3.136,3.1955,3.2645,3.3423,3.3491,3.3964,3.4709,3.5363,3.56,3.56,0.0,0.0,0.0,0.0,0.0,0.0,0.0,0.0,0.0,0.0,0.0,0.0,0.0,0.0,0.0,0.0,0.0,2.536,2.5484,0.0,2.5468,2.5603,2.6416,2.7237,2.7947,2.8162,2.9062,3.0664,0.0,0.0,0.0,0.0,0.0,0.0,0.0,0.0,0.0,0.0,0.0,3.2094,3.2348,0.0,3.4668,3.4436,3.385,3.3133,3.3623,3.3917,3.3954,0.0,3.2449,3.1507,0.0,0.0,0.0,0.0,0.0,0.0,0.0,0.0,0.0,0.0,0.0,0.0,3.0942,3.116,3.1568,0.0,0.0,0.0,0.0,0.0,0.0,0.0,0.0,0.0,0.0,0.0,0.0,0.0,0.0,0.0,0.0,3.2696,3.2128,3.138,3.1249,3.1123,3.0987,3.0987,3.0987,3.0987,3.0987,3.1055,3.119,3.119,3.119,3.119,3.119,3.119,3.119,3.119,3.119,3.119,3.119,3.1549,3.2056,3.1616,3.2205,3.3457,3.4066,3.4742,3.5397,3.5532,3.56,3.56,0.0,0.0,0.0,0.0,0.0,0.0,0.0,0.0,0.0,0.0,0.0,0.0,0.0,0.0,0.0,0.0,0.0,0.0,0.0,0.0,0.0,2.5603,2.6852,2.7752,2.8181,2.9138,3.0039,3.0898,3.0469,3.0469,0.0,0.0,0.0,0.0,0.0,0.0,0.0,0.0,3.2237,3.3004,3.296,0.0,3.4243,3.4262,3.389,3.3438,3.3845,3.3915,3.3807,3.3807,3.3256,0.0,0.0,3.2339,3.2008,0.0,3.1715,3.1482,0.0,0.0,0.0,3.1931,0.0,0.0,0.0,3.035,3.0298,3.1443,0.0,0.0,0.0,0.0,0.0,0.0,0.0,0.0,0.0,0.0,0.0,0.0,0.0,0.0,0.0,3.3686,3.3106,3.2341,3.1935,3.1752,3.1752,3.1393,3.119,3.119,3.119,3.119,3.119,3.119,3.136,3.1752,3.136,3.1393,3.1752,3.136,3.119,3.119,3.119,3.1413,3.1718,3.1326,3.207,3.3457,3.3795,3.4404,3.5115,3.5464,3.56,3.5667,0.0,0.0,0.0,0.0,0.0,0.0,0.0,0.0,0.0,0.0,0.0,0.0,0.0,0.0,0.0,0.0,0.0,0.0,0.0,0.0,0.0,0.0,2.7485,2.8306,2.8462,3.0077,3.0898,3.0898,3.0859,3.0858,3.0858,0.0,0.0,0.0,0.0,0.0,0.0,0.0,0.0,3.3845,0.0,3.3563,3.3989,3.3989,3.4051,3.4104,3.4104,3.3968,3.3807,3.3807,0.0,3.3697,3.3023,3.3183,0.0,0.0,0.0,0.0,0.0,0.0,0.0,0.0,0.0,3.159,0.0,0.0,0.0,3.0763,0.0,0.0,0.0,0.0,0.0,0.0,0.0,0.0,0.0,0.0,0.0,0.0,0.0,0.0,0.0,3.4499,3.3897,3.3423,3.2598,3.2158,3.2293,3.1616,3.119,3.119,3.119,3.119,3.119,3.119,3.1582,3.2293,3.1549,3.1582,3.2259,3.1549,3.119,3.119,3.119,3.119,3.119,3.1326,3.2205,3.3423,3.3423,3.3931,3.4776,3.5363,3.56,3.5701,2.9894,2.9267,0.0,0.0,0.0,0.0,0.0,0.0,0.0,0.0,0.0,0.0,0.0,0.0,0.0,0.0,0.0,0.0,2.9904,0.0,0.0,0.0,0.0,0.0,2.9414,3.0391,3.0898,3.0898,3.0771,3.0721,3.072,0.0,0.0,0.0,3.0453,0.0,0.0,0.0,3.2753,0.0,3.4279,3.4753,0.0,3.4602,3.4289,3.3873,3.3873,3.3847,3.3807,0.0,3.3807,3.377,0.0,3.3256,0.0,0.0,0.0,0.0,0.0,0.0,0.0,0.0,3.2402,0.0,0.0,0.0,3.03,2.978,0.0,0.0,0.0,0.0,0.0,0.0,0.0,0.0,0.0,0.0,0.0,0.0,0.0,0.0,0.0,0.0,3.2801,3.3355,3.2104,3.1616,3.2259,3.1616,3.119,3.119,3.119,3.119,3.119,3.119,3.1582,3.2293,3.1549,3.1582,3.2259,3.1549,3.119,3.119,3.119,3.119,3.1258,3.1921,3.2645,3.3423,3.3423,3.4247,3.5498,3.5566,3.56,3.5701,0.0,2.9635,0.0,0.0,0.0,0.0,0.0,0.0,0.0,0.0,0.0,0.0,0.0,0.0,0.0,0.0,0.0,3.0348,0.0,0.0,0.0,0.0,0.0,0.0,0.0,3.0567,3.0765,3.0741,3.0681,3.0631,3.0628,0.0,0.0,0.0,3.0443,0.0,3.2185,0.0,0.0,0.0,0.0,0.0,0.0,3.4614,3.442,3.4006,3.385,3.3807,3.3807,0.0,3.3807,0.0,0.0,0.0,0.0,0.0,0.0,0.0,0.0,0.0,0.0,0.0,0.0,0.0,0.0,0.0,2.9826,0.0,0.0,0.0,0.0,0.0,0.0,0.0,0.0,0.0,0.0,0.0,0.0,0.0,0.0,0.0,0.0,0.0,0.0,0.0,0.0,3.1989,3.2293,3.1616,3.119,3.119,3.119,3.1413,3.1853,3.1853,3.2429,3.358,3.2814,3.2848,3.3546,3.2814,3.2239,3.1853,3.2273,3.2239,3.1887,3.2611,3.3355,3.4032,3.4032,3.4675,3.56,3.56,3.5926,3.64,0.0,0.0,0.0,0.0,0.0,0.0,0.0,0.0,0.0,0.0,0.0,0.0,3.3976,3.4065,0.0,0.0,0.0,3.3035,0.0,0.0,3.1285,0.0,0.0,0.0,0.0,0.0,0.0,3.0583,3.0562,3.0552,3.0587,3.0483,0.0,0.0,0.0,3.1584,3.2944,0.0,0.0,3.4703,3.4593,3.4386,3.4129,3.4364,3.4307,3.4068,3.3863,3.3807,3.3807,3.3807,3.3739,0.0,3.3306,0.0,0.0,0.0,0.0,0.0,3.2298,0.0,0.0,0.0,0.0,0.0,0.0,0.0,0.0,0.0,0.0,0.0,0.0,0.0,0.0,0.0,0.0,0.0,0.0,0.0,0.0,0.0,0.0,0.0,0.0,0.0,0.0,3.366,3.2645,3.209,3.2293,3.1616,3.1292,3.1515,3.1515,3.1853,3.2598,3.2598,3.3241,3.4472,3.3761,3.3795,3.4472,3.3728,3.3119,3.2632,3.3186,3.3085,3.2666,3.3389,3.4032,3.4539,3.4967,3.5453,3.5926,3.5926,3.6434,3.7212,3.1012,3.0422,0.0,0.0,0.0,0.0,0.0,0.0,0.0,0.0,0.0,0.0,0.0,0.0,0.0,0.0,0.0,3.6865,3.6904,0.0,3.2457,0.0,0.0,0.0,0.0,0.0,0.0,0.0,0.0,3.0488,3.0483,3.0425,0.0,0.0,0.0,3.2583,3.4147,3.3876,3.4109,3.4655,3.4327,3.4056,3.382,0.0,3.3834,3.382,3.3807,0.0,0.0,3.3807,3.3536,0.0,0.0,0.0,0.0,0.0,0.0,0.0,0.0,0.0,0.0,3.1582,0.0,0.0,0.0,0.0,3.2022,0.0,0.0,0.0,0.0,0.0,0.0,0.0,0.0,0.0,0.0,0.0,0.0,0.0,0.0,0.0,0.0,0.0,0.0,3.4336,3.2442,3.1549,3.2259,3.1616,3.1549,3.2226,3.2259,3.2611,3.3355,3.3355,3.3761,3.4472,3.3761,3.3795,3.4472,3.3728,3.3389,3.3389,3.3389,3.3389,3.3423,3.4167,3.4472,3.4663,3.6152,3.6761,3.6761,3.6761,3.7212,3.799,0.0,0.0,0.0,0.0,0.0,0.0,0.0,3.2638,0.0,0.0,0.0,0.0,0.0,0.0,4.0658,0.0,0.0,3.9158,3.8048,3.6987,0.0,0.0,0.0,3.5045,0.0,0.0,0.0,0.0,0.0,0.0,3.2044,3.0908,0.0,0.0,0.0,3.2749,0.0,0.0,0.0,0.0,0.0,3.4207,3.4527,0.0,0.0,3.3807,3.3807,3.3807,0.0,3.3494,3.3321,3.309,3.2466,3.2161,3.1969,3.1731,3.156,0.0,0.0,0.0,3.1935,3.1921,0.0,0.0,0.0,0.0,0.0,0.0,0.0,0.0,0.0,0.0,0.0,0.0,0.0,0.0,0.0,0.0,0.0,0.0,0.0,0.0,0.0,0.0,0.0,3.2239,3.1157,3.0784,3.1549,3.1819,3.2056,3.2293,3.2747,3.3389,3.41,3.4134,3.4506,3.5194,3.4957,3.4991,3.5194,3.4957,3.4607,3.4167,3.4619,3.4573,3.4201,3.4912,3.5554,3.6084,3.6592,3.7405,3.8193,3.7719,3.799,3.8734,3.2997,0.0,0.0,0.0,0.0,0.0,0.0,0.0,0.0,0.0,3.8484,0.0,4.1085,0.0,4.1972,0.0,4.1668,4.1218,3.9516,3.949,0.0,3.8341,3.8107,0.0,0.0,0.0,0.0,0.0,0.0,3.2391,3.2852,3.1098,0.0,0.0,0.0,0.0,0.0,0.0,3.3799,0.0,0.0,3.41,0.0,0.0,3.399,3.4211,0.0,3.3689,3.355,3.3306,3.2983,3.2598,3.1986,3.1715,3.1545,3.1288,3.119,3.119,3.119,3.1413,0.0,3.1853,3.1752,0.0,3.1853,0.0,0.0,0.0,0.0,0.0,0.0,0.0,0.0,0.0,0.0,0.0,0.0,0.0,0.0,0.0,0.0,0.0,0.0,0.0,3.0784,3.1549,3.092,3.0717,0.0,0.0,3.2429,3.2699,3.3389,3.4167,3.4878,3.4878,3.5284,3.6028,3.6028,3.6028,3.6028,3.6028,3.5622,3.4912,3.5397,3.5487,3.5351,3.5825,3.6502,3.7235,3.7506,3.8159,3.8937,3.8464,3.8768,3.9469,0.0,0.0,0.0,0.0,3.2468,0.0,0.0,0.0,3.8528,0.0,4.0399,4.1041,4.1069,4.2513,4.3133,4.2379,4.3045,0.0,4.1367,4.125,0.0,0.0,3.9346,3.8506,3.5815,0.0,0.0,0.0,0.0,0.0,3.2917,3.0925,0.0,0.0,3.2342,0.0,3.3468,3.399,3.4188,3.414,3.3902,3.3807,3.3844,3.3807,3.4307,3.4866,3.4073,3.3522,3.3181,3.3136,3.2533,3.1789,3.1771,3.1507,3.119,3.119,3.119,3.119,3.119,3.1718,3.209,3.1427,0.0,0.0,0.0,0.0,3.209,0.0,0.0,0.0,0.0,0.0,0.0,0.0,0.0,0.0,0.0,0.0,0.0,0.0,0.0,0.0,0.0,3.2002,3.1427,3.2192,3.1562,3.1157,0.0,0.0,3.2699,3.3389,3.4134,3.4912,3.5633,3.5633,3.6028,3.6863,3.6829,3.6829,3.6863,3.6863,3.6434,3.5701,3.5701,3.6163,3.6863,3.6863,3.728,3.8024,3.8734,3.9005,3.9039,3.9039,3.9503,4.0113,3.5189,3.4808,3.45,0.0,3.416,3.4481,0.0,0.0,0.0,0.0,4.2102,4.2869,4.3653,4.4157,4.3846,4.2414,4.2565,0.0,0.0,0.0,0.0,4.2074,4.2299,4.1412,3.9253,3.8815,0.0,3.5731,0.0,0.0,3.3509,3.0956,3.0999,0.0,0.0,0.0,3.4016,3.416,3.4093,3.3902,3.3847,3.4174,0.0,0.0,3.4118,3.4452,3.3655,3.3306,3.309,3.24,3.2004,3.177,3.1432,3.1274,3.119,3.119,3.119,3.119,3.119,3.1326,3.1582,3.1921,3.1752,3.1562,0.0,0.0,0.0,0.0,0.0,0.0,0.0,0.0,0.0,0.0,0.0,0.0,0.0,0.0,0.0,0.0,0.0,0.0,0.0,3.092,3.0683,3.1447,3.0784,3.0615,0.0,0.0,0.0,3.3389,3.4675,3.569,3.6468,3.5926,3.6276,3.7618,3.7043,3.71,3.7618,3.7618,3.7516,3.729,3.729,3.7449,3.7618,3.7618,3.8058,3.8734,3.8937,3.9309,3.9842,3.9842,3.9943,4.0113,3.6003,0.0,0.0,3.7161,0.0,0.0,3.8396,0.0,0.0,4.2513,4.3137,0.0,4.4197,4.4307,4.3931,4.2993,4.2578,0.0,0.0,0.0,0.0,4.3311,4.3311,4.2282,4.0023,3.9061,0.0,3.5438,0.0,0.0,3.308,3.1026,0.0,0.0,0.0,3.2776,0.0,3.387,3.3954,3.3807,3.3807,0.0,0.0,3.3775,3.3698,3.3749,3.2905,3.2582,3.2516,3.1969,3.1678,3.1507,3.1288,3.119,3.119,3.119,3.119,3.119,3.119,3.119,3.1292,3.1718,3.1495,3.1292,3.1718,3.1819,3.1718,0.0,0.0,0.0,0.0,0.0,0.0,0.0,0.0,0.0,0.0,0.0,0.0,0.0,0.0,0.0,0.0,3.0681,3.0653,3.0804,3.0677,3.0677,0.0,0.0,0.0,3.3402,3.5182,3.6332,3.6795,3.6671,3.7212,3.8396,3.7956,3.7956,3.8396,3.8396,3.8193,3.7922,3.7922,3.8091,3.8396,3.8396,3.8802,3.9503,3.9503,3.974,4.0113,4.0113,4.0113,4.0113,0.0,0.0,0.0,0.0,0.0,0.0,0.0,4.1873,0.0,4.3681,0.0,4.3828,4.3711,4.3594,4.3476,4.3359,0.0,4.2496,4.3344,4.3396,4.337,4.3369,4.3376,4.2176,3.9638,3.8295,0.0,0.0,0.0,0.0,3.2109,3.1053,0.0,0.0,0.0,0.0,0.0,3.3513,3.3807,0.0,3.3807,3.378,3.3675,3.335,3.3121,3.2921,3.2092,3.1789,3.1771,3.1751,3.1488,3.119,3.119,3.119,3.119,3.119,3.119,3.119,3.119,3.119,3.1224,3.1326,3.1258,3.1224,3.1326,3.1258,3.119,3.119,3.119,3.119,0.0,0.0,0.0,0.0,0.0,0.0,0.0,0.0,0.0,0.0,0.0,0.0,0.0,0.0,3.0938,3.0246,3.0718,0.0,0.0,0.0,0.0,3.3296,3.5476,0.0,3.71,0.0,3.8362,3.9276,3.9073,3.9039,3.914,3.914,3.8802,3.8193,3.8193,3.8565,3.914,3.914,3.9537,4.0113,4.0113,4.0113,4.0113,4.0113,4.0113,4.0113,0.0,0.0,0.0,0.0,0.0,4.2276,4.298,4.3146,4.3596,4.4605,4.4675,0.0,4.3789,4.3047,4.2303,4.1539,4.1333,0.0,0.0,0.0,0.0,4.424,4.4273,4.3241,4.1083,3.8791,3.6918,0.0,0.0,0.0,0.0,0.0,0.0,0.0,0.0,0.0,3.3587,3.3733,0.0,3.3807,3.3807,3.3592,3.3321,3.3247,3.2711,3.2022,3.1844,3.1789,3.177,3.1428,3.1269,3.119,3.119,3.119,3.119,3.119,3.119,3.119,3.119,3.119,3.1326,3.1955,3.165,3.136,3.1989,3.165,3.119,3.119,3.119,3.119,3.119,0.0,0.0,0.0,0.0,0.0,0.0,0.0,0.0,0.0,0.0,0.0,0.0,0.0,0.0,0.0,0.0,0.0,0.0,0.0,0.0,0.0,3.475,0.0,0.0,0.0,3.887,4.0798,3.958,3.9334,3.991,3.991,3.9842,3.9706,3.9706,3.9808,3.991,3.991,3.9977,4.0113,4.0113,4.0113,4.0113,4.0113,4.0113,4.0113,0.0,0.0,0.0,0.0,0.0,0.0,0.0,4.4614,0.0,4.5,4.4566,4.4096,4.375,4.293,4.2184,4.1724,4.1181,4.1236,4.2019,4.2366,4.2944,4.375,4.3188,0.0,4.0759,3.7564,3.5598,3.5038,0.0,0.0,0.0,0.0,0.0,0.0,0.0,3.344,0.0,0.0,0.0,3.3793,3.3564,3.3379,3.3136,3.2647,3.2196,3.1822,3.1994,3.1796,3.1451,3.1269,3.119,3.119,3.119,3.119,3.119,3.119,3.119,3.1292,3.1684,3.1785,3.1874,3.2247,3.2047,3.1773,3.1801,3.1476,3.119,3.119,3.119,3.1326,3.1718,3.207,0.0,0.0,0.0,0.0,0.0,0.0,0.0,0.0,0.0,0.0,0.0,0.0,0.0,0.0,0.0,0.0,0.0,0.0,0.0,0.0,0.0,0.0,0.0,0.0,0.0,3.9981,3.9733,3.9774,4.0113,4.0113,4.0113,4.0113,4.0113,4.0113,4.0113,4.0113,4.0113,4.0113,4.0113,4.0113,4.0113,4.0113,4.006,4.0074,0.0,4.297,0.0,0.0,4.4236,0.0,4.4899,4.5699,4.6055,4.5351,4.4375,4.3789,4.3945,4.2891,4.2184,4.227,4.1383,4.1081,4.1672,4.1769,4.2124,4.2777,4.1829,4.0834,3.9784,3.634,3.4323,0.0,0.0,0.0,0.0,0.0,0.0,0.0,0.0,0.0,0.0,0.0,3.3807,3.378,3.3379,3.3136,3.2968,3.2302,3.1908,3.176,3.2332,3.2056,3.1481,3.1596,3.1562,3.1481,3.1596,3.1664,3.1664,3.1664,3.1664,3.1779,3.2197,3.2324,3.2353,3.2386,3.223,3.1972,3.1613,3.1374,3.119,3.119,3.1326,3.1684,3.2395,3.3017,0.0,0.0,0.0,0.0,0.0,0.0,0.0,0.0,0.0,0.0,0.0,0.0,0.0,0.0,0.0,0.0,0.0,0.0,0.0,0.0,0.0,3.557,3.6913,0.0,3.9169,0.0,3.9815,4.0113,4.0113,4.0113,4.0113,4.0113,4.0113,4.0113,4.0087,3.9927,3.9952,4.0087,3.9901,4.0054,4.035,4.035,4.0366,4.0536,0.0,0.0,0.0,0.0,0.0,0.0,0.0,4.5742,4.6289,4.6172,4.4726,4.3984,4.4805,4.2734,4.1598,4.2231,4.1383,4.0809,4.0825,4.1422,4.1846,4.1923,4.1523,4.0459,3.8683,3.6501,3.4501,0.0,0.0,0.0,0.0,0.0,0.0,0.0,0.0,0.0,0.0,3.3807,3.3807,3.378,3.3379,3.2952,3.2606,3.2788,3.2219,3.1438,3.2801,3.2814,3.2293,3.2983,3.2747,3.2327,3.2983,3.3186,3.3186,3.3186,3.3186,3.3094,3.2531,3.2407,3.2385,3.2383,3.1901,3.1548,3.2088,3.1658,3.119,3.119,3.1752,3.2429,3.3152,3.3355,3.3626,0.0,0.0,0.0,0.0,0.0,0.0,0.0,0.0,0.0,0.0,0.0,0.0,0.0,0.0,0.0,0.0,0.0,0.0,3.163,0.0,3.6341,3.7702,3.9209,3.9971,3.9985,4.005,4.0113,4.0113,4.0113,4.0113,4.0113,4.0113,4.0113,4.0028,3.9315,3.942,4.0003,3.9289,3.988,4.1102,4.1102,4.149,4.2206,0.0,0.0,0.0,0.0,0.0,0.0,0.0,4.6094,4.6093,4.5536,4.4881,4.4414,4.4258,4.2851,4.179,4.1434,4.1038,4.0738,4.0609,4.0862,4.1008,4.1008,4.0539,3.9916,3.9162,3.6559,3.5058,0.0,0.0,0.0,0.0,0.0,0.0,0.0,0.0,3.3648,3.3451,3.3451,3.3451,3.3394,3.2699,3.2282,3.2056,3.1963,3.1623,3.1393,3.2882,3.2916,3.2564,3.4167,3.3931,3.2916,3.278,3.3051,3.3237,3.2372,3.2463,3.2762,3.2512,3.2474,3.2474,3.2474,3.2206,3.1924,3.1755,3.1456,3.119,3.119,3.2138,3.3186,3.3931,3.4438,3.4822,0.0,0.0,0.0,0.0,0.0,0.0,0.0,0.0,0.0,0.0,0.0,0.0,0.0,0.0,0.0,0.0,0.0,0.0,3.2742,0.0,3.5764,3.7143,3.8612,3.9369,3.9396,3.9882,4.0113,4.0113,4.0113,4.0113,4.0113,4.0113,4.0113,4.0121,4.0244,4.0471,4.0772,4.0915,4.1305,4.1794,4.1276,4.1572,4.2214,4.6082,0.0,4.5456,0.0,4.5781,4.5508,4.5859,4.5897,4.5578,4.4655,4.4315,4.4011,4.3659,4.2604,4.1722,4.1221,4.1177,4.0959,4.0581,4.0777,4.0785,4.0516,3.9934,0.0,3.9252,3.6703,3.5459,3.5569,3.3807,0.0,0.0,0.0,0.0,0.0,3.3284,3.3255,3.2999,3.2999,3.2999,3.2937,3.2162,3.1824,3.177,3.1589,3.1413,3.1393,3.2882,3.2916,3.2598,3.4607,3.4585,3.366,3.3355,3.3626,3.3802,3.2618,3.2636,3.2976,3.2609,3.2538,3.2463,3.2226,3.2136,3.1972,3.1406,3.1227,3.1326,3.1765,3.2679,3.3694,3.4641,3.5228,3.5667,3.5904,0.0,0.0,0.0,0.0,0.0,0.0,0.0,3.1462,3.0127,0.0,0.0,0.0,0.0,0.0,0.0,0.0,0.0,0.0,0.0,0.0,0.0,3.8148,3.8799,3.858,3.961,4.0113,4.0113,4.0113,4.0113,4.0113,4.035,4.0392,4.046,4.0995,4.1324,4.155,4.187,4.226,4.2571,4.1927,4.2223,4.2829,4.6089,4.6201,4.6289,4.6289,4.6289,4.6016,4.5156,4.4949,4.4612,4.3712,4.276,4.2467,4.3292,4.184,4.1175,4.1996,4.2027,4.1627,4.0736,4.1384,4.1393,0.0,0.0,3.9252,3.8433,3.7037,3.5459,3.3844,0.0,0.0,3.0836,0.0,3.174,3.2535,3.25,3.25,3.2535,3.2535,3.2535,3.245,3.1986,3.1789,3.1839,3.2134,3.1853,3.1393,3.2882,3.2916,3.253,3.402,3.4506,3.4607,3.5329,3.5566,3.5453,3.475,3.4583,3.4293,3.2944,3.2598,3.2422,3.1625,3.1421,3.137,3.1213,3.119,3.1596,3.3085,3.3389,3.3863,3.5329,3.56,3.5836,3.666,0.0,0.0,0.0,0.0,0.0,0.0,3.3829,3.2874,3.1517,0.0,0.0,0.0,0.0,0.0,0.0,0.0,0.0,3.4607,3.5338,0.0,3.6706,3.8166,3.8525,3.7851,3.9375,4.0113,4.0113,4.0113,4.0113,4.0146,4.0865,4.1204,4.1186,4.1217,4.1655,4.2233,4.1516,4.2088,4.3375,4.3375,4.3882,4.4654,4.6245,4.6288,4.6289,4.6289,4.582,4.5311,4.4987,4.4426,4.3646,4.262,4.2213,4.1873,4.1455,4.1039,4.0904,0.0,4.1656,4.1848,0.0,4.1655,4.1558,4.1054,4.0106,3.9373,3.8889,3.7715,3.6868,3.6317,0.0,0.0,0.0,3.2072,3.2069,3.2022,3.2349,3.2315,3.2022,3.2022,3.2022,3.1969,3.1564,3.1681,3.2105,3.171,3.1718,3.2022,3.2496,3.2496,3.253,3.3998,3.4506,3.4607,3.5363,3.56,3.5386,3.4197,3.3884,3.3751,3.2841,3.1907,3.1216,3.1374,3.1039,3.078,3.1133,3.1582,3.2361,3.3829,3.4134,3.4607,3.6129,3.64,3.6671,3.7415,3.6907,0.0,0.0,0.0,0.0,0.0,3.2131,3.1867,0.0,3.2085,0.0,0.0,0.0,0.0,0.0,0.0,0.0,0.0,3.6267,0.0,3.7454,3.8411,3.9076,3.9375,3.9876,4.0113,4.0113,4.0595,4.0832,4.0899,4.1644,4.1948,4.2016,4.2482,4.284,4.3071,4.3418,4.3811,4.4193,4.4115,4.4629,4.5346,4.6289,4.6289,4.6289,4.6289,4.5859,4.5349,4.493,4.4085,4.3162,4.2139,4.1667,4.1201,4.0569,4.0913,0.0,4.1113,4.1917,4.237,4.2285,4.2164,4.1857,4.1322,4.0102,3.9314,3.9093,0.0,0.0,3.7213,3.4973,3.3312,3.223,3.2092,3.186,3.1601,3.1878,3.1842,3.1582,3.1582,3.1582,3.1564,3.1293,3.165,3.2259,3.1785,3.209,3.2733,3.2733,3.2733,3.2903,3.41,3.4506,3.4607,3.5363,3.56,3.5386,3.4253,3.377,3.3469,3.2761,3.1723,3.0911,3.1311,3.1068,3.088,3.1496,3.2171,3.3051,3.4235,3.4709,3.5284,3.6558,3.7032,3.7449,3.8193,3.7472,3.6457,3.5509,0.0,0.0,0.0,0.0,0.0,0.0,3.3551,0.0,0.0,0.0,0.0,0.0,0.0,0.0,3.5796,3.6533,0.0,3.7791,3.8241,3.9045,4.0098,4.0661,4.0925,4.0959,4.1407,4.161,4.1644,4.2388,4.2726,4.276,4.3538,4.3842,4.3944,4.4688,4.4993,4.5037,4.5243,4.563,4.6152,4.6289,4.6289,0.0,0.0,4.625,0.0,4.4842,4.3958,4.3034,4.2098,4.1205,4.0669,4.0669,4.1393,4.1923,4.1962,0.0,0.0,0.0,4.2757,4.2151,4.1376,3.9889,3.908,3.909,3.8087,3.7265,3.6564,3.4197,3.2586,3.177,3.1389,3.119,3.119,3.119,3.119,3.119,3.1258,3.1258,3.1258,3.1326,3.1785,3.2462,3.2395,3.2814,3.3491,3.3423,3.3423,3.3525,3.4235,3.4506,3.4607,3.5363,3.56,3.5453,3.483,3.417,3.3515,3.2859,3.2062,3.1426,3.1451,3.1449,3.1615,3.2306,3.2983,3.3694,3.4506,3.5216,3.596,3.6795,3.7516,3.8193,3.887,3.7811,3.6829,3.6728,0.0,0.0,0.0,0.0,0.0,0.0,3.5949,3.5967,0.0,0.0,0.0,0.0,0.0,3.5685,3.7496,3.6432,3.646,3.7793,3.7976,3.8792,4.0266,4.1621,4.2286,4.2286,4.2354,4.2388,4.2422,4.3166,4.3477,4.3511,4.4282,4.4649,4.475,4.5432,4.5737,4.5872,4.6583,4.6887,4.6989,0.0,0.0,4.6289,4.6289,4.5656,4.4842,4.3877,4.3452,4.2905,4.1986,4.2233,4.247,4.247,4.2662,4.3047,4.3662,4.3355,4.3239,4.3606,4.2372,4.1581,4.1541,3.997,3.8994,3.8803,3.8551,3.741,3.533,3.3826,3.249,3.1332,3.1249,3.119,3.119,3.119,3.119,3.1224,3.1819,3.2056,3.209,3.2645,3.3322,3.3897,3.3355,3.3592,3.4167,3.3592,3.3423,3.3525,3.4235,3.4506,3.4607,3.5363,3.56,3.5577,3.5407,3.4911,3.4219,3.347,3.2377,3.1581,3.2048,3.2553,3.3085,3.3808,3.41,3.4607,3.5983,3.6389,3.6907,3.8251,3.8599,3.8802,3.8971,3.8227,3.7246,3.6039,3.5397,0.0,0.0,3.5543,3.6254,3.6254,3.6592,3.6572,0.0,0.0,0.0,0.0,3.6986,3.6493,3.5308,3.7703,3.8606,3.7822,3.952,4.0856,4.1802,4.2105,4.2286,4.232,4.2895,4.3166,4.32,4.3978,4.4316,4.4316,4.4513,4.4925,4.5466,4.5635,4.6041,4.6616,4.7394,4.7665,4.7642,4.6289,4.6247,4.6202,4.6202,4.5696,4.5114,4.4574,4.4095,4.3581,4.3033,4.3047,4.3085,4.3085,4.3431,4.3773,4.4039,4.3685,4.3694,4.4353,4.2549,4.1481,4.1595,3.9857,3.884,3.8689,3.8465,3.7265,3.5093,3.3521,3.2374,3.1718,3.136,3.119,3.119,3.119,3.1413,3.1752,3.2124,3.2496,3.2848,3.3254,3.3829,3.4438,3.4066,3.437,3.4945,3.4573,3.4404,3.445,3.4878,3.5013,3.5081,3.5464,3.56,3.56,3.56,3.5121,3.4517,3.4098,3.3237,3.2499,3.2774,3.3369,3.3998,3.4404,3.5069,3.5814,3.6626,3.7337,3.8048,3.8836,3.9276,3.9276,3.8599,3.8159,3.7246,3.5351,3.5363,0.0,3.5047,3.6366,3.728,3.728,3.7912,3.7883,3.6843,0.0,0.0,3.7427,3.7991,3.7923,3.7079,3.8663,3.9483,3.9365,4.122,4.2411,4.2828,4.3504,4.3842,4.3876,4.4282,4.4451,4.4485,4.4553,4.4615,4.4615,4.4615,4.5026,4.5737,4.6075,4.665,4.7335,4.7642,4.7753,4.7691,4.6288,4.6195,4.6087,4.6077,4.5967,4.5818,4.5648,4.506,4.4566,4.4342,4.3816,4.347,4.347,4.4051,4.4288,4.402,4.3874,4.4095,4.4715,4.2658,4.1427,4.1518,3.9696,3.8762,3.8872,3.8062,3.6844,3.5312,3.3393,3.2462,3.2462,3.1833,3.1461,3.136,3.136,3.1718,3.2293,3.2429,3.2882,3.3592,3.3694,3.41,3.4675,3.4675,3.5047,3.56,3.56,3.56,3.56,3.56,3.56,3.56,3.56,3.5532,3.5487,3.5712,3.5222,3.4607,3.4603,3.414,3.3682,3.3672,3.4266,3.4888,3.4941,3.5994,3.6998,3.71,3.8149,3.9039,3.914,3.9673,3.9673,3.8294,3.8058,3.7313,3.5148,0.0,3.6073,3.5938,3.7313,3.8294,3.8396,3.9309,3.9202,3.7491,3.7723,3.7716,0.0,3.845,3.9567,4.0386,3.987,4.0286,4.1707,4.283,4.3511,4.3747,4.5094,4.5771,4.5872,4.5872,4.5872,4.5838,4.5196,4.4953,4.4953,4.4953,4.5365,4.6109,4.6718,4.7428,4.8017,4.7734,4.7572,4.7473,4.6149,4.6095,4.6072,4.5959,4.588,4.5538,4.4821,4.5101,4.5167,4.4402,4.4816,4.521,4.521,4.5055,4.493,4.4887,4.4346,4.3726,4.3194,4.1498,4.0711,4.1151,3.9601,3.9019,3.968,3.7466,3.5981,3.5312,3.3919,3.322,3.322,3.3119,3.2713,3.2124,3.2124,3.2192,3.2327,3.2949,3.366,3.437,3.4991,3.5329,3.543,3.543,3.5498,3.56,3.56,3.56,3.56,3.56,3.56,3.56,3.56,3.5191,3.4987,3.6262,3.5646,3.4603,3.4544,3.4442,3.446,3.4891,3.5724,3.6537,3.6956,3.7388,3.7922,3.8531,3.8836,3.9174,3.9808,4.0011,3.9842,3.8971,3.8836,3.8261,3.666,0.0,3.8227,3.7618,3.8836,3.9986,4.0629,3.9749,3.9479,4.0264,3.9275,3.8845,3.9297,4.018,4.1041,4.184,4.2389,4.3127,4.4075,4.3618,4.4051,4.5365,4.5602,4.6041,4.6616,4.6616,4.6616,4.6616,4.6515,4.6447,4.6447,4.6447,4.6887,4.7567,4.7669,4.8206,4.8757,4.79,4.7572,4.7438,4.5998,4.5963,4.5909,4.5869,4.5757,4.555,4.5163,4.5393,4.5479,4.5056,4.5364,4.5541,4.5361,4.5201,4.4943,4.4548,4.4204,4.3571,4.2612,4.1804,4.1304,4.1111,3.9974,3.9069,3.8453,3.6845,3.5824,3.5437,3.4092,3.3423,3.3423,3.3423,3.3017,3.2327,3.2733,3.3119,3.3512,3.3829,3.4438,3.5115,3.5464,3.56,3.56,3.56,3.56,3.56,3.56,3.56,3.56,3.56,3.56,3.5554,3.5168,3.5105,3.5276,3.598,3.6024,3.5753,3.5557,3.5852,3.6297,3.6831,3.763,3.8363,3.8558,3.8781,3.902,3.9363,3.9521,3.9706,4.0045,4.0113,3.974,3.8599,3.8734,0.0,0.0,3.842,3.9478,3.914,4.0392,4.1407,4.1745,4.0769,4.0167,4.0375,3.9354,3.9017,3.9809,4.0589,4.1576,4.2812,4.3642,4.4215,4.4615,4.4215,4.4587,4.5703,4.6109,4.6684,4.7394,4.7394,4.7394,4.7361,4.6955,4.6786,4.6786,4.6786,4.7225,4.7906,4.7906,4.8376,4.8892,4.7933,4.7836,4.8063,4.5881,4.5859,4.5776,4.5768,4.5665,4.5594,4.5594,4.5594,4.5594,4.5594,4.5541,4.539,4.5137,4.4954,4.4625,4.4043,4.3943,4.3495,4.265,4.258,4.2213,4.1389,4.0646,3.9386,3.7529,3.676,3.6107,3.56,3.445,3.3931,3.3931,3.3931,3.3525,3.2835,3.3389,3.3964,3.4506,3.4506,3.4945,3.56,3.56,3.56,3.56,3.56,3.5701,3.5836,3.5667,3.5701,3.5836,3.5667,3.5588,3.5515,3.5,3.5077,3.5409,3.5836,3.6431,3.7006,3.6952,3.7394,3.8,3.8683,3.9349,3.9878,3.9996,4.0046,4.0054,4.0054,4.0216,4.0383,4.0383,4.0519,4.0155,3.887,0.0,0.0,0.0,3.9334,4.0527,4.0392,4.1508,4.2354,4.2523,4.1777,4.1128,4.0716,3.9912,3.9724,4.035,4.1111,4.2171,4.3574,4.4266,4.4598,4.4534,4.4505,4.4976,4.5883,4.6455,4.7248,4.8173,4.8173,4.8173,4.8108,4.7564,4.7293,4.7293,4.7293,4.7665,4.8173,4.8173,4.8612,4.9162,4.8199,4.8297,4.8854,4.5828,4.579,4.5768,4.5654,4.5603,4.5594,4.5594,4.5594,4.5594,4.5594,4.5351,4.5137,4.5115,4.4495,4.4058,4.3998,4.371,4.3512,4.3441,4.3404,4.3057,4.2249,4.1614,4.0342,3.8364,3.7699,3.6818,3.56,3.5498,3.543,3.543,3.543,3.5047,3.4336,3.437,3.4438,3.4506,3.4506,3.4945,3.56,3.56,3.56,3.56,3.56,3.6062,3.6626,3.5893,3.6096,3.6626,3.5836,3.5589,3.5589,3.5539,3.5091,3.4875,3.6214,3.7156,3.7834,3.8379,3.8595,3.8852,3.9908,4.0386,4.072,4.1171,4.1018,4.0816,4.0816,4.0979,4.1136,4.1136,4.1677,4.188,4.1102,0.0,0.0,4.0079,4.117,4.188,4.1204,4.1813,4.2557,4.324,4.2638,4.2445,4.2996,4.2351,4.1922,4.1853,4.2671,4.346,4.4212,4.4457,4.4514,4.4342,4.4342,4.5034,4.6451,4.6517,4.733,4.8917,4.8917,4.8917,4.8917,4.8849,4.8849,4.8849,4.8849,4.8883,4.8917,4.8917,4.9357,4.9905,4.8962,4.9089,4.9678,4.5696,4.568,4.5657,4.5612,4.5594,4.5594,4.5594,4.5419,4.5283,4.5283,4.4988,4.4676,4.4455,4.4175,4.3927,4.371,4.3563,4.3515,4.3515,4.3515,4.313,4.2323,4.0797,3.9498,3.8435,3.7365,3.6431,3.56,3.56,3.5363,3.4945,3.5363,3.5216,3.4506,3.4979,3.5182,3.5182,3.5182,3.5329,3.56,3.56,3.56,3.56,3.56,3.5769,3.6096,3.6265,3.6535,3.6829,3.6975,3.6668,3.6186,3.5772,3.5415,3.5419,3.6956,3.8243,3.9437,4.0371,4.0299,4.0217,4.1252,4.1995,4.2486,4.265,4.2072,4.1591,4.2061,4.1626,4.1339,4.1813,4.2117,4.2185,4.1914,0.0,4.2083,4.1568,4.2787,4.3633,4.3335,4.435,4.5196,4.5466,4.4792,4.4212,4.3979,4.3222,4.2556,4.2046,4.2719,4.3716,4.494,4.4489,4.4203,4.4106,4.4106,4.4919,4.6486,4.6127,4.7007,4.9018,4.9018,4.8576,4.7868,4.8639,4.8671,4.8193,4.8767,4.9018,4.9052,4.9492,4.983,5.0103,5.022,5.0726,5.1329,4.5594,4.5594,4.5594,4.5594,4.5494,4.5438,4.5438,4.5169,4.4943,4.4943,4.4625,4.4304,4.4028,4.3912,4.3758,4.3532,4.3515,4.3515,4.3515,4.3339,4.2994,4.2465,4.0669,3.9416,3.8863,3.7789,3.692,3.6309,3.6096,3.5723,3.5238,3.5487,3.5329,3.4878,3.5363,3.56,3.56,3.56,3.56,3.5633,3.5893,3.5994,3.5994,3.6208,3.6309,3.6343,3.6694,3.6965,3.7155,3.7177,3.697,3.6598,3.5864,3.5712,3.6131,3.769,3.8914,4.0011,4.1407,4.1421,4.1319,4.2392,4.2953,4.3323,4.3561,4.2721,4.2105,4.2843,4.2408,4.2117,4.2861,4.2997,4.3098,4.3335,4.3369,4.3369,4.3369,4.4451,4.5292,4.5292,4.6177,4.6786,4.6786,4.627,4.5701,4.5202,4.4329,4.346,4.2685,4.3292,4.4167,4.5245,4.4603,4.4246,4.4246,4.4025,4.4628,4.6086,4.5654,4.6717,4.9018,4.9018,4.8513,4.777,4.8608,4.8639,4.8096,4.8736,4.9154,4.939,4.9898,5.0371,5.0845,5.1352,5.2029,5.2672,4.5594,4.5594,4.5594,4.5594,4.5303,4.5115,4.5115,4.4812,4.4612,4.4612,4.4247,4.3982,4.3982,4.3693,4.3515,4.3515,4.3515,4.3515,4.3497,4.3013,4.2674,4.2674,4.1516,4.0539,3.9811,3.9276,3.8633,3.7922,3.7168,3.6795,3.6795,3.5994,3.56,3.56,3.56,3.56,3.56,3.56,3.56,3.5701,3.6491,3.6829,3.6897,3.7618,3.7922,3.7821,3.71,3.728,3.7667,3.6125,3.6123,3.6596,3.5756,3.6012,3.6934,3.8437,3.8908,3.9328,4.1261,4.181,4.2083,4.3195,4.3105,4.289,4.3608,4.2891,4.2293,4.3054,4.3313,4.3673,4.4479,4.4615,4.4886,4.5602,4.5703,4.5703,4.5703,4.6346,4.6819,4.6819,4.6819,4.6819,4.6819,4.6819,4.6819,4.6819,4.5901,4.5016,4.406,4.4697,4.508,4.5112,4.4919,4.4774,4.4812,4.4056,4.421,4.5201,4.5201,4.6558,4.9018,4.9018,4.8984,4.9018,4.9018,4.9018,4.8984,4.9018,4.9424,5.0101,5.0101,5.1014,5.23,5.23,5.2807,5.3518,4.5594,4.5594,4.5541,4.5283,4.5169,4.5011,4.4788,4.4414,4.4175,4.4175,4.3865,4.3664,4.3664,4.3546,4.3515,4.3515,4.3515,4.3321,4.294,4.2402,4.1874,4.1486,4.0605,4.0019,3.9777,3.8764,3.8125,3.7922,3.7686,3.7313,3.6795,3.6535,3.6129,3.56,3.56,3.5904,3.6434,3.6434,3.6738,3.7246,3.7483,3.7584,3.7584,3.7821,3.7922,3.7956,3.8227,3.8464,3.8676,3.8748,3.8546,3.8116,3.7326,3.763,3.8298,3.8772,3.9315,3.9969,4.092,4.1161,4.1451,4.2638,4.2808,4.2757,4.3102,4.26,4.2455,4.3712,4.4126,4.4451,4.5229,4.5771,4.621,4.6447,4.6481,4.6481,4.6481,4.7124,4.7597,4.7597,4.8037,4.8342,4.8342,4.8342,4.8139,4.7631,4.5664,4.4553,4.4763,4.378,4.371,4.4841,4.4152,4.4082,4.4774,4.4558,4.4934,4.5889,4.6349,4.7406,4.9018,4.9018,4.8513,4.7737,4.8608,4.8608,4.8096,4.8736,4.9424,5.0135,5.0676,5.1454,5.2367,5.2942,5.3281,5.3518,4.5429,4.541,4.5283,4.4954,4.475,4.46,4.4387,4.405,4.3786,4.3786,4.3631,4.3515,4.3515,4.3515,4.3515,4.3515,4.3303,4.305,4.2713,4.1916,4.1273,4.0943,4.0272,3.9924,3.9924,3.9166,3.8768,3.8768,3.8497,3.8091,3.7675,3.7347,3.6975,3.6512,3.6512,3.6772,3.7246,3.7246,3.7483,3.7922,3.8227,3.8328,3.8362,3.8667,3.8599,3.8396,3.8836,3.9005,3.9014,3.9143,3.8871,3.8442,3.8274,3.8553,3.8962,3.9289,3.9714,4.0229,4.0756,4.092,4.1174,4.2178,4.2455,4.2583,4.2949,4.2816,4.3057,4.454,4.4933,4.5331,4.638,4.6684,4.6989,4.7564,4.7428,4.7327,4.7631,4.8071,4.8342,4.8342,4.8748,4.9018,4.9018,4.8639,4.7929,4.675,4.525,4.4378,4.4387,4.3707,4.3997,4.5306,4.4396,4.4358,4.5342,4.5342,4.5778,4.6558,4.6902,4.777,4.9018,4.9018,4.8576,4.7901,4.8639,4.8671,4.8193,4.8767,4.9627,5.0574,5.1048,5.186,5.2841,5.3315,5.3518,5.3518,4.5169,4.5094,4.4943,4.4624,4.4233,4.3982,4.3937,4.3693,4.3515,4.3515,4.3515,4.3515,4.3515,4.3515,4.3515,4.3515,4.2977,4.2635,4.2557,4.1495,4.0897,4.0827,4.0368,4.0113,4.0113,4.0113,4.0113,4.0113,3.9436,3.9039,3.8971,3.8328,3.7956,3.7922,3.7922,3.7956,3.799,3.799,3.8058,3.8159,3.8836,3.9073,3.9174,3.9842,3.9673,3.9073,3.9073,3.9073,3.8974,3.8273,3.8003,3.8104,3.8799,3.8989,3.9123,3.9901,4.0113,4.0204,4.0789,4.0931,4.1103,4.1909,4.2185,4.2393,4.3084,4.3355,4.3916,4.5399,4.5805,4.6312,4.7635,4.7428,4.7428,4.8781,4.8443,4.824,4.8917,4.9018,4.9018,4.9018,4.9018,4.9018,4.9018,4.8161,4.6831,4.4962,4.4812,4.4396,4.3488,4.4282,4.5227,4.6173,4.53,4.5264,4.6173,4.6208,4.6488,4.7004,4.7205,4.7868,4.9018,4.9018,4.9052,4.9086,4.9052,4.9086,4.9187,4.912,4.9965,5.1319,5.1319,5.2198,5.3518,5.3518,5.3518,5.3518,4.5126,4.4896,4.4612,4.419,4.4043,4.3927,4.3664,4.3529,4.3515,4.3515,4.3515,4.3515,4.3515,4.3515,4.3515,4.3515,4.2865,4.2124,4.1318,4.1059,4.0709,4.0269,4.0154,4.0113,4.0113,4.0113,4.0113,4.0113,3.9943,3.9571,3.9005,3.8836,3.8464,3.7922,3.7922,3.8227,3.8768,3.8768,3.9073,3.9639,3.9808,3.9876,3.9876,4.0045,4.0011,3.9876,3.9876,3.9876,3.9851,3.9665,3.9613,3.961,3.9799,3.985,3.9876,4.0028,4.0113,4.0239,4.0943,4.1138,4.1308,4.2056,4.2702,4.3151,4.3348,4.3885,4.4587,4.55,4.6616,4.75,4.7838,4.824,4.8646,4.8951,4.8883,4.8815,4.8984,4.9018,4.9018,4.9018,4.9018,4.9018,4.9018,4.8161,4.6831,4.4962,4.4812,4.4699,4.4472,4.4662,4.5227,4.6173,4.53,4.5264,4.6173,4.6208,4.6279,4.6419,4.7868,4.8736,4.9018,4.9018,4.9323,4.983,4.9255,4.9661,5.071,5.0101,5.071,5.2063,5.2063,5.2672,5.3518,5.3518,5.3518,5.3518,4.4612,4.4428,4.419,4.3818,4.3775,4.3693,4.3549,4.3515,4.3515,4.3515,4.3515,4.3515,4.3515,4.3515,4.356,4.3723,4.2573,4.1714,4.1498,4.0879,4.0392,4.0138,4.0113,4.0113,4.0113,4.0113,4.0113,4.0113,4.0113,3.991,3.9512,3.9512,3.9334,3.8937,3.8937,3.914,3.9512,3.9512,3.9774,4.0113,4.0113,4.0113,4.0113,4.0113,4.0113,4.0113,4.0113,4.0113,4.0113,4.0113,4.0113,4.0113,4.0113,4.0113,4.0113,4.0113,4.0113,4.0282,4.1001,4.1204,4.1474,4.2557,4.3403,4.3978,4.3978,4.4553,4.5432,4.6515,4.7331,4.8007,4.8376,4.8748,4.9018,4.9018,4.9018,4.9018,4.9018,4.9018,4.9018,4.9018,4.8608,4.7999,4.707,4.6555,4.585,4.4887,4.4812,4.4999,4.5452,4.5885,4.6381,4.6833,4.5957,4.5706,4.6208,4.6208,4.6208,4.6208,4.8129,4.9018,4.9018,4.9018,4.939,5.0067,4.9323,4.983,5.115,5.0405,5.0947,5.23,5.23,5.2807,5.3518,5.3518,5.3518,5.3518,4.4058,4.3937,4.3818,4.3529,4.3515,4.3551,4.3681,4.3718,4.3754,4.3864,4.3845,4.3772,4.3772,4.3625,4.365,4.4044,4.2416,4.1544,4.1905,4.0787,4.0113,4.0113,4.0113,4.0113,4.0113,4.0113,4.0113,4.0113,4.0113,4.0113,4.0113,4.0113,4.0113,4.0113,4.0113,4.0113,4.0113,4.0113,4.0113,4.0113,4.0113,4.0113,4.0113,4.0113,4.0113,4.0113,4.0113,4.0113,4.0113,4.0113,4.0113,4.0113,4.0113,4.0113,4.0113,4.0248,4.0282,4.0485,4.1339,4.1576,4.1948,4.3436,4.4282,4.4852,4.5122,4.5635,4.6447,4.7635,4.7973,4.8274,4.8883,4.9018,4.9018,4.9018,4.9018,4.9018,4.9018,4.9018,4.9018,4.9018,4.8289,4.7172,4.5447,4.5264,4.5227,4.5042,4.5042,4.5452,4.6384,4.7172,4.7572,4.7572,4.6696,4.6103,4.5961,4.5961,4.6032,4.6208,4.7933,4.8829,4.9018,4.9018,4.9458,5.0236,4.9357,4.9932,5.1352,5.0574,5.1082,5.23,5.2469,5.2909,5.3518,5.3518,5.3518,5.3518,4.3998,4.3775,4.3546,4.3515,4.3515,4.3718,4.4452,4.4562,4.4782,4.548,4.5149,4.4892,4.4892,4.4048,4.37,4.4214,4.2987,4.1928,4.1367,4.0544,4.0113,4.0113,4.0113,4.0113,4.0113,4.0113,4.0113,4.0113,4.0113,4.0113,4.0113,4.0113,4.0113,4.0113,4.0113,4.0113,4.0113,4.0113,4.0113,4.0113,4.0113,4.0113,4.0113,4.0113,4.0113,4.0113,4.0113,4.0113,4.0113,4.0113,4.0113,4.0113,4.0113,4.0113,4.0248,4.0865,4.1068,4.1339,4.2726,4.3105,4.3443,4.5026,4.5466,4.5906,4.7158,4.75,4.7635,4.7838,4.8409,4.8883,4.8984,4.9018,4.9018,4.9018,4.9018,4.9018,4.9018,4.9018,4.9018,4.9018,4.8892,4.8385,4.7306,4.7205,4.69,4.6067,4.5996,4.6419,4.7373,4.7506,4.7572,4.7572,4.6696,4.5814,4.5005,4.4968,4.5379,4.6208,4.7273,4.8225,4.9018,4.9018,4.9763,5.098,4.9593,5.0202,5.2097,5.1352,5.1555,5.2367,5.3078,5.3416,5.3518,5.3518,5.3518,5.3518,4.3726,4.3965,4.4158,4.4158,4.4525,4.4966,4.5333,4.5369,4.5516,4.5847,4.5957,4.5993,4.5993,4.5461,4.4929,4.4518,4.3408,4.2658,4.2455,4.1745,4.1136,4.073,4.0696,4.0493,4.0113,4.0113,4.0113,4.0113,4.0113,4.0113,4.0113,4.0113,4.0113,4.0113,4.0113,4.0113,4.0113,4.0113,4.0113,4.0113,4.0113,4.0113,4.0113,4.0113,4.0113,4.0113,4.0113,4.0113,4.0113,4.0113,4.0383,4.0696,4.0696,4.1001,4.1373,4.1711,4.1813,4.2049,4.3132,4.3375,4.3747,4.5331,4.6007,4.6583,4.7665,4.824,4.8511,4.8511,4.8781,4.9018,4.9018,4.9018,4.9018,4.9018,4.9018,4.9018,4.9018,4.9018,4.8798,4.8289,4.8225,4.7836,4.6934,4.6799,4.6833,4.697,4.736,4.803,4.8955,4.9389,4.9327,4.8791,4.7505,4.6348,4.5301,4.5494,4.5814,4.6208,4.8101,4.9011,4.9018,4.9018,4.9593,5.0541,4.9458,5.0033,5.1657,5.1352,5.1657,5.2367,5.3179,5.3518,5.3518,5.3518,5.3518,5.3518]}]]